[[{"header":{"parameterUnit":"m.s-1","parameterCategory":1,"la1":30.6,"la2":29.2853,"lo1":-89.7004,"lo2":-87.6739,"dy":0.0162,"dx":0.0183,"nx":112,"ny":82,"refTime":"2026-05-23T00:00:00:Z","depth":0,"parameterNumber":2,"parameterNumberName":"U-component_of_WINDS"},"data":[0.0,0.0,0.0,0.0,0.0,0.0,0.0,0.0,0.0,0.0,0.0,0.0,0.0,0.0,0.0,0.0,0.0,0.0,0.0,0.0,0.0,0.0,0.0,0.0,0.0,0.0,0.0,0.0,0.0,0.0,0.0,0.0,0.0,0.0,0.0,0.0,0.0,0.0,0.0,0.0,0.0,0.0,0.0,0.0,0.0,0.0,0.0,0.0,0.0,0.0,0.0,0.0,0.0,0.0,0.0,0.0,0.0,0.0,0.0,0.0,0.0,0.0,0.0,0.0,0.0,0.0,0.0,0.0,0.0,0.0,0.0,0.0,0.0,0.0,0.0,0.0,0.0,0.0,0.0,0.0,0.0,0.0,0.0,0.0,0.0,0.0,0.0,0.0,0.0,0.0,-3.4642,-3.6028,-3.868,-4.04,-4.0498,-4.0473,-3.9023,-3.5628,0.0,0.0,0.0,0.0,0.0,0.0,0.0,0.0,0.0,0.0,0.0,0.0,0.0,0.0,0.0,0.0,0.0,0.0,0.0,0.0,0.0,0.0,0.0,0.0,0.0,0.0,0.0,0.0,0.0,0.0,0.0,0.0,0.0,0.0,0.0,0.0,0.0,0.0,0.0,0.0,0.0,0.0,0.0,0.0,0.0,0.0,0.0,0.0,0.0,0.0,0.0,0.0,0.0,0.0,0.0,0.0,0.0,0.0,0.0,0.0,0.0,0.0,0.0,0.0,0.0,0.0,0.0,0.0,0.0,0.0,0.0,0.0,0.0,0.0,0.0,0.0,0.0,0.0,0.0,0.0,0.0,0.0,0.0,0.0,0.0,0.0,0.0,0.0,0.0,0.0,0.0,0.0,0.0,0.0,0.0,0.0,0.0,0.0,0.0,0.0,0.0,0.0,0.0,0.0,-3.6436,-4.0138,-4.0367,-4.0539,-4.134,-4.0746,-3.8969,-3.5774,0.0,0.0,0.0,0.0,0.0,0.0,0.0,0.0,0.0,0.0,0.0,0.0,0.0,0.0,0.0,0.0,0.0,0.0,0.0,0.0,0.0,0.0,0.0,0.0,0.0,0.0,0.0,0.0,0.0,0.0,0.0,0.0,0.0,0.0,0.0,0.0,0.0,0.0,0.0,0.0,0.0,0.0,0.0,0.0,0.0,0.0,0.0,0.0,0.0,0.0,0.0,0.0,0.0,0.0,0.0,0.0,0.0,0.0,0.0,0.0,0.0,0.0,0.0,0.0,0.0,0.0,0.0,0.0,0.0,0.0,0.0,0.0,0.0,0.0,0.0,0.0,0.0,0.0,0.0,0.0,0.0,0.0,0.0,0.0,0.0,0.0,0.0,0.0,0.0,0.0,0.0,0.0,0.0,0.0,0.0,0.0,0.0,0.0,0.0,0.0,0.0,0.0,0.0,-3.471,-3.7737,-4.1074,-4.0673,-4.0501,-4.1399,-4.073,-3.9059,-3.6317,-3.4193,0.0,0.0,0.0,0.0,0.0,0.0,0.0,0.0,0.0,0.0,0.0,0.0,0.0,0.0,0.0,0.0,0.0,0.0,0.0,0.0,0.0,0.0,0.0,0.0,0.0,0.0,0.0,0.0,0.0,0.0,0.0,0.0,0.0,0.0,0.0,0.0,0.0,0.0,0.0,0.0,0.0,0.0,0.0,0.0,0.0,0.0,0.0,0.0,0.0,0.0,0.0,0.0,0.0,0.0,0.0,0.0,0.0,0.0,0.0,0.0,0.0,0.0,0.0,0.0,0.0,0.0,0.0,0.0,0.0,0.0,0.0,0.0,0.0,0.0,0.0,0.0,0.0,0.0,0.0,0.0,0.0,0.0,0.0,0.0,0.0,0.0,0.0,0.0,0.0,0.0,0.0,0.0,0.0,0.0,0.0,0.0,0.0,0.0,0.0,0.0,0.0,0.0,-3.6539,-3.8498,-4.1129,-4.0592,-4.044,-4.132,-4.0291,-3.8647,-3.6458,-3.3863,0.0,0.0,0.0,0.0,0.0,0.0,0.0,0.0,0.0,0.0,0.0,0.0,0.0,0.0,0.0,0.0,0.0,0.0,0.0,0.0,0.0,0.0,0.0,0.0,0.0,0.0,0.0,0.0,0.0,0.0,0.0,0.0,0.0,0.0,0.0,0.0,0.0,0.0,0.0,0.0,0.0,0.0,0.0,0.0,0.0,0.0,0.0,0.0,0.0,0.0,0.0,0.0,0.0,0.0,0.0,0.0,0.0,0.0,0.0,0.0,0.0,0.0,0.0,0.0,0.0,0.0,0.0,0.0,0.0,0.0,0.0,0.0,0.0,0.0,0.0,0.0,0.0,0.0,0.0,0.0,0.0,0.0,0.0,0.0,0.0,0.0,0.0,0.0,0.0,0.0,0.0,0.0,0.0,0.0,0.0,0.0,0.0,0.0,0.0,0.0,0.0,0.0,-3.6501,-3.8497,-4.1127,-4.0551,-4.0399,-4.1336,-3.9185,-3.7122,-3.5585,-3.2463,0.0,0.0,0.0,0.0,0.0,0.0,0.0,0.0,0.0,0.0,0.0,0.0,0.0,0.0,0.0,0.0,0.0,0.0,0.0,0.0,0.0,0.0,0.0,0.0,0.0,0.0,0.0,0.0,0.0,0.0,0.0,0.0,0.0,0.0,0.0,0.0,0.0,0.0,0.0,0.0,0.0,0.0,0.0,0.0,0.0,0.0,0.0,0.0,0.0,0.0,0.0,0.0,0.0,0.0,0.0,0.0,0.0,0.0,0.0,0.0,0.0,0.0,0.0,0.0,0.0,0.0,0.0,0.0,0.0,0.0,0.0,0.0,0.0,0.0,0.0,0.0,0.0,0.0,0.0,0.0,0.0,0.0,0.0,0.0,0.0,0.0,0.0,0.0,0.0,0.0,0.0,0.0,0.0,0.0,0.0,0.0,0.0,0.0,0.0,0.0,0.0,0.0,-3.7658,-3.9593,-4.1114,-4.0444,-4.0252,-4.1209,-3.9859,-3.7909,-3.5435,0.0,0.0,0.0,0.0,0.0,0.0,0.0,0.0,0.0,0.0,0.0,0.0,0.0,0.0,0.0,0.0,0.0,0.0,0.0,0.0,0.0,0.0,0.0,0.0,0.0,0.0,0.0,0.0,0.0,0.0,0.0,0.0,0.0,0.0,0.0,0.0,0.0,0.0,0.0,0.0,0.0,0.0,0.0,0.0,0.0,0.0,0.0,0.0,0.0,0.0,0.0,0.0,0.0,0.0,0.0,0.0,0.0,0.0,0.0,0.0,0.0,0.0,0.0,0.0,0.0,0.0,0.0,0.0,0.0,0.0,0.0,0.0,0.0,0.0,0.0,0.0,0.0,0.0,0.0,0.0,0.0,0.0,0.0,0.0,0.0,0.0,0.0,0.0,0.0,0.0,0.0,0.0,0.0,0.0,0.0,0.0,0.0,0.0,0.0,0.0,0.0,0.0,-3.6083,-3.8355,-4.0116,-4.0748,-4.023,-4.0094,-4.0767,-3.9738,-3.7963,-3.5359,0.0,0.0,0.0,0.0,0.0,0.0,0.0,0.0,0.0,0.0,0.0,0.0,0.0,0.0,0.0,0.0,0.0,0.0,0.0,0.0,0.0,0.0,0.0,0.0,0.0,0.0,0.0,0.0,0.0,0.0,0.0,0.0,0.0,0.0,0.0,0.0,0.0,0.0,0.0,0.0,0.0,0.0,0.0,0.0,0.0,0.0,0.0,0.0,0.0,0.0,0.0,0.0,0.0,0.0,0.0,0.0,0.0,0.0,0.0,0.0,0.0,0.0,0.0,0.0,0.0,0.0,0.0,0.0,0.0,0.0,0.0,0.0,0.0,0.0,0.0,0.0,0.0,0.0,0.0,0.0,0.0,0.0,0.0,0.0,0.0,0.0,0.0,0.0,0.0,0.0,0.0,0.0,0.0,0.0,0.0,0.0,0.0,0.0,0.0,0.0,0.0,0.0,-3.6084,-3.8317,-3.9848,-3.9975,-3.9933,-3.9933,-3.9996,-3.8495,-3.6882,0.0,0.0,0.0,0.0,0.0,0.0,0.0,0.0,0.0,0.0,0.0,0.0,0.0,0.0,0.0,0.0,0.0,0.0,0.0,0.0,0.0,0.0,0.0,0.0,0.0,0.0,0.0,0.0,0.0,0.0,0.0,0.0,0.0,0.0,0.0,0.0,0.0,0.0,0.0,0.0,0.0,0.0,0.0,0.0,0.0,0.0,0.0,0.0,0.0,0.0,0.0,0.0,0.0,0.0,0.0,0.0,0.0,0.0,0.0,0.0,0.0,0.0,0.0,0.0,0.0,0.0,0.0,0.0,0.0,0.0,0.0,0.0,0.0,0.0,0.0,0.0,0.0,0.0,0.0,0.0,0.0,0.0,0.0,0.0,0.0,0.0,0.0,0.0,0.0,0.0,0.0,0.0,0.0,0.0,0.0,0.0,0.0,0.0,0.0,0.0,0.0,0.0,0.0,-3.6734,-3.8587,-3.98,-3.9792,-3.98,-3.9804,-3.9781,-3.9435,-3.8534,-3.6993,0.0,0.0,0.0,0.0,0.0,0.0,0.0,0.0,0.0,0.0,0.0,0.0,0.0,0.0,0.0,0.0,0.0,0.0,0.0,0.0,0.0,0.0,0.0,0.0,0.0,0.0,0.0,0.0,0.0,0.0,0.0,0.0,0.0,0.0,0.0,0.0,0.0,0.0,0.0,0.0,0.0,0.0,0.0,0.0,0.0,0.0,0.0,0.0,0.0,0.0,0.0,0.0,0.0,0.0,0.0,0.0,0.0,0.0,0.0,0.0,0.0,0.0,0.0,0.0,0.0,0.0,0.0,0.0,0.0,0.0,0.0,0.0,0.0,0.0,0.0,0.0,0.0,0.0,0.0,0.0,0.0,0.0,0.0,0.0,0.0,0.0,0.0,0.0,0.0,0.0,0.0,0.0,0.0,0.0,0.0,0.0,0.0,0.0,0.0,0.0,0.0,0.0,-3.6597,-3.8486,-3.9731,-3.9727,-3.9777,-3.9804,-3.9804,-3.9848,-3.9214,-3.7737,0.0,0.0,0.0,0.0,0.0,0.0,0.0,0.0,0.0,0.0,0.0,0.0,0.0,0.0,0.0,0.0,0.0,0.0,0.0,0.0,0.0,0.0,0.0,0.0,0.0,0.0,0.0,0.0,0.0,0.0,0.0,0.0,0.0,0.0,0.0,0.0,0.0,0.0,0.0,0.0,0.0,0.0,0.0,0.0,0.0,0.0,0.0,0.0,0.0,0.0,0.0,0.0,0.0,0.0,0.0,0.0,0.0,0.0,0.0,0.0,0.0,0.0,0.0,0.0,0.0,0.0,0.0,0.0,0.0,0.0,0.0,0.0,0.0,0.0,0.0,0.0,0.0,0.0,0.0,0.0,0.0,0.0,0.0,0.0,0.0,0.0,0.0,0.0,0.0,0.0,0.0,0.0,0.0,0.0,0.0,0.0,0.0,0.0,0.0,0.0,0.0,0.0,-3.5941,-3.8139,-3.9623,-3.9758,-3.9781,-3.9848,-3.9954,-3.9892,-3.9288,-3.7985,0.0,0.0,0.0,0.0,0.0,0.0,0.0,0.0,0.0,0.0,0.0,0.0,0.0,0.0,0.0,0.0,0.0,0.0,0.0,0.0,0.0,0.0,0.0,0.0,0.0,0.0,0.0,0.0,0.0,0.0,0.0,0.0,0.0,0.0,0.0,0.0,0.0,0.0,0.0,0.0,0.0,0.0,0.0,0.0,0.0,0.0,0.0,0.0,0.0,0.0,0.0,0.0,0.0,0.0,0.0,0.0,0.0,0.0,0.0,0.0,-3.1156,-3.0086,0.0,0.0,0.0,0.0,0.0,0.0,0.0,0.0,0.0,0.0,0.0,0.0,0.0,0.0,0.0,0.0,0.0,0.0,0.0,0.0,0.0,0.0,0.0,0.0,0.0,0.0,0.0,0.0,0.0,0.0,0.0,0.0,0.0,0.0,0.0,0.0,0.0,0.0,0.0,0.0,-3.5835,-3.7981,-3.9471,-3.9552,-3.9708,-3.9781,-3.9758,-3.9975,-3.9965,-3.9603,-3.8232,0.0,0.0,0.0,0.0,0.0,0.0,0.0,0.0,0.0,0.0,0.0,0.0,0.0,0.0,0.0,0.0,0.0,0.0,0.0,0.0,0.0,0.0,0.0,0.0,0.0,0.0,0.0,0.0,0.0,0.0,0.0,0.0,0.0,0.0,0.0,0.0,0.0,0.0,0.0,0.0,0.0,0.0,0.0,0.0,0.0,0.0,0.0,0.0,0.0,0.0,0.0,0.0,0.0,0.0,0.0,0.0,0.0,0.0,0.0,-3.3167,-3.1714,0.0,0.0,0.0,0.0,0.0,0.0,0.0,0.0,0.0,0.0,0.0,0.0,0.0,0.0,0.0,0.0,0.0,0.0,0.0,0.0,0.0,0.0,0.0,0.0,0.0,0.0,0.0,0.0,0.0,0.0,0.0,0.0,0.0,0.0,0.0,0.0,0.0,0.0,0.0,0.0,-3.5218,-3.8117,-4.0146,-4.0134,-4.0674,-4.1041,-4.106,-4.0829,-4.0665,-4.0667,-3.9527,0.0,0.0,0.0,0.0,0.0,0.0,0.0,0.0,0.0,0.0,0.0,0.0,0.0,0.0,0.0,0.0,0.0,0.0,0.0,0.0,0.0,0.0,0.0,0.0,0.0,0.0,0.0,0.0,0.0,0.0,0.0,0.0,0.0,0.0,0.0,0.0,0.0,0.0,0.0,0.0,0.0,0.0,0.0,0.0,0.0,0.0,0.0,0.0,0.0,0.0,0.0,0.0,0.0,-3.8448,-3.8338,-3.8041,-3.7963,-3.7717,-3.7216,-3.5044,-3.3529,-3.2586,-3.2418,0.0,0.0,0.0,0.0,0.0,0.0,0.0,0.0,0.0,0.0,0.0,0.0,0.0,0.0,0.0,0.0,0.0,0.0,0.0,0.0,0.0,0.0,0.0,0.0,-3.3195,-3.3332,-3.2194,0.0,0.0,0.0,0.0,0.0,0.0,0.0,0.0,0.0,0.0,0.0,-3.5019,-3.8442,-4.096,-4.1017,-4.1836,-4.2397,-4.2462,-4.1696,-4.1244,-4.1292,-4.0534,-3.9429,0.0,0.0,0.0,0.0,0.0,0.0,0.0,0.0,0.0,0.0,0.0,0.0,0.0,0.0,0.0,0.0,0.0,0.0,0.0,0.0,0.0,0.0,0.0,0.0,0.0,0.0,0.0,0.0,0.0,0.0,0.0,0.0,-3.2301,-3.3214,0.0,0.0,0.0,0.0,0.0,0.0,0.0,0.0,0.0,0.0,0.0,0.0,0.0,-4.0157,-4.076,-4.1623,-4.1685,-4.0997,-4.0902,-4.0481,-3.9814,-3.8854,-3.8361,-3.826,-3.6996,0.0,-3.4983,-3.4167,0.0,0.0,0.0,0.0,0.0,0.0,0.0,0.0,0.0,0.0,0.0,0.0,0.0,0.0,0.0,0.0,0.0,0.0,0.0,0.0,0.0,0.0,-3.3441,-3.3441,-3.3504,-3.3494,0.0,-3.3441,-3.3301,-3.2559,-3.3179,0.0,0.0,0.0,0.0,0.0,0.0,0.0,-3.6663,-3.9033,-4.099,-4.1858,-4.2152,-4.2323,-4.2323,-4.1677,-4.1285,-4.1222,-4.045,-3.9901,-3.9673,-3.8911,0.0,0.0,0.0,0.0,0.0,0.0,0.0,0.0,0.0,0.0,0.0,0.0,0.0,0.0,0.0,0.0,0.0,0.0,0.0,0.0,0.0,0.0,0.0,0.0,0.0,0.0,0.0,0.0,0.0,-3.3013,-3.4014,-3.4952,-3.5599,-3.6261,0.0,0.0,0.0,0.0,0.0,0.0,0.0,0.0,0.0,-4.0348,-4.1246,-4.1839,-4.2081,-4.2419,-4.2463,-4.2164,-4.2103,-4.1911,-4.1589,-4.1087,-4.0457,-3.972,-3.9202,-3.8137,-3.6665,-3.5851,-3.5116,-3.4366,0.0,0.0,0.0,0.0,-2.9755,-2.9725,-3.0098,-3.0516,-3.088,-3.082,0.0,0.0,0.0,0.0,0.0,0.0,0.0,-3.2249,0.0,0.0,-3.3481,-3.3481,-3.3749,-3.4027,-3.4152,-3.4586,-3.4676,0.0,-3.4272,-3.4796,-3.3993,0.0,0.0,0.0,0.0,-3.7314,-3.7718,-4.0013,-4.1952,-4.2781,-4.344,-4.382,-4.382,-4.3099,-4.2416,-4.192,-4.1127,-4.0466,-3.9951,-3.9094,-3.7882,0.0,0.0,0.0,0.0,0.0,0.0,0.0,0.0,0.0,0.0,0.0,0.0,0.0,0.0,0.0,0.0,0.0,0.0,0.0,0.0,0.0,0.0,0.0,0.0,0.0,0.0,0.0,0.0,-3.4572,-3.552,-3.6528,-3.7077,-3.7654,0.0,0.0,0.0,0.0,0.0,0.0,-4.1034,-4.1671,-4.1982,-4.1892,-4.2736,-4.3159,-4.304,-4.3123,-4.3126,-4.3023,-4.2978,-4.2883,-4.2735,-4.2637,-4.1923,-4.0778,-4.0664,-3.9629,-3.795,-3.7109,-3.6168,-3.519,-3.453,-3.3393,-3.2083,-3.2061,-3.1972,-3.1972,-3.2465,-3.2898,-3.3219,-3.309,-3.2998,-3.287,-3.2805,0.0,0.0,0.0,0.0,-3.2505,-3.3141,-3.3497,-3.3641,-3.3641,-3.4189,-3.4736,-3.4834,-3.5429,-3.5636,0.0,-3.544,-3.6162,-3.5889,0.0,0.0,0.0,-3.738,-3.8456,-3.8888,-4.0901,-4.2697,-4.3706,-4.4511,-4.4962,-4.4967,-4.418,-4.3298,-4.2404,-4.1632,-4.0776,-3.9841,-3.9173,-3.8277,-3.7056,0.0,0.0,0.0,0.0,0.0,0.0,0.0,0.0,0.0,0.0,0.0,0.0,0.0,0.0,0.0,0.0,0.0,0.0,0.0,0.0,0.0,0.0,0.0,0.0,0.0,0.0,0.0,0.0,0.0,-3.7668,-3.779,0.0,0.0,0.0,0.0,-4.1151,-4.1485,-4.2036,-4.3004,-4.298,-4.2917,-4.2912,-4.3655,-4.4019,-4.394,-4.4636,-4.4617,-4.3921,-4.3726,-4.3349,-4.2775,-4.2462,-4.1846,-4.0976,-4.0778,-3.9983,-3.8752,-3.7686,-3.676,-3.5939,-3.583,-3.5602,-3.5353,-3.5353,-3.5274,-3.5178,-3.5214,-3.4615,-3.3857,-3.3857,-3.3359,-3.2805,-3.2823,-3.2866,0.0,0.0,-3.297,-3.3063,-3.3099,-3.3692,-3.4249,-3.4249,-3.4925,-3.5533,-3.5566,-3.5792,-3.5982,0.0,-3.6769,-3.7237,-3.639,0.0,-3.769,-3.6895,-3.7542,-3.8721,-4.044,-4.1461,-4.2723,-4.4543,-4.4777,-4.484,-4.4895,-4.4156,-4.3275,-4.2284,-4.1567,-4.0688,-3.9564,-3.9537,-3.8952,-3.7674,-3.7552,0.0,0.0,0.0,0.0,0.0,0.0,0.0,0.0,0.0,0.0,0.0,0.0,0.0,0.0,0.0,0.0,0.0,0.0,0.0,0.0,0.0,0.0,0.0,0.0,0.0,0.0,0.0,0.0,-3.9645,-3.9783,0.0,-4.0807,-4.0845,-4.1303,-4.2428,-4.2603,-4.2835,-4.3233,-4.3752,-4.4032,-4.4032,-4.4713,-4.4996,-4.4842,-4.5107,-4.5105,-4.4838,-4.4796,-4.4685,-4.4479,-4.4296,-4.3577,-4.2467,-4.2344,-4.1325,-3.9649,-3.916,-3.8107,-3.6778,-3.6765,-3.625,-3.554,-3.554,-3.5424,-3.5273,-3.5205,-3.4923,-3.4606,-3.4447,-3.3882,-3.3265,-3.3334,-3.3082,-3.2737,-3.2838,-3.2948,-3.3149,-3.3669,-3.401,-3.4368,-3.487,-3.5639,-3.6247,-3.6314,-3.6777,-3.729,-3.7512,-3.7636,-3.7627,-3.7313,-3.8635,-3.9649,-3.9401,-4.0108,-4.1123,-4.2372,-4.2787,-4.3415,-4.4606,-4.4738,-4.4745,-4.4821,-4.4531,-4.3517,-4.1566,-4.1612,-4.0847,-3.886,-3.922,-3.8887,-3.7674,-3.6979,-3.5586,0.0,0.0,0.0,0.0,0.0,0.0,0.0,0.0,0.0,0.0,0.0,0.0,0.0,0.0,0.0,0.0,0.0,0.0,0.0,0.0,0.0,0.0,0.0,0.0,0.0,-4.0177,-4.0673,-4.0998,-4.1358,-4.1495,-4.132,-4.1726,-4.2341,-4.3139,-4.3504,-4.384,-4.4157,-4.4718,-4.5047,-4.5047,-4.5457,-4.5616,-4.5456,-4.54,-4.5381,-4.5419,-4.5399,-4.5399,-4.54,-4.5338,-4.4627,-4.3429,-4.3359,-4.2323,-4.0619,-4.024,-3.9301,-3.8045,-3.7403,-3.6798,-3.626,-3.5639,-3.5681,-3.5936,-3.5581,-3.5421,-3.5278,-3.4849,-3.4337,-3.3915,-3.4005,-3.3688,-3.3351,-3.3454,-3.3588,-3.3845,-3.4363,-3.4735,-3.5057,-3.5627,-3.6361,-3.7004,-3.7021,-3.7486,-3.7951,-3.8238,-3.8227,-3.8217,-3.8192,-3.9658,-4.0784,-4.0731,-4.1492,-4.237,-4.3262,-4.3427,-4.3747,-4.4565,-4.4659,-4.4685,-4.4745,-4.4202,-4.3001,-4.1017,-4.1029,-4.0083,-3.7817,-3.8394,-3.8201,-3.6916,-3.6413,-3.5056,-3.2798,0.0,0.0,0.0,0.0,0.0,0.0,0.0,0.0,0.0,0.0,0.0,0.0,0.0,0.0,0.0,0.0,0.0,0.0,0.0,0.0,0.0,0.0,0.0,-4.0414,-4.1684,-4.2379,-4.1668,-4.2379,-4.2364,-4.0952,-4.229,-4.326,-4.3269,-4.4208,-4.511,-4.5847,-4.5925,-4.5925,-4.5886,-4.5833,-4.58,-4.5781,-4.5601,-4.5568,-4.5693,-4.5496,-4.54,-4.54,-4.5339,-4.4731,-4.3744,-4.3672,-4.293,-4.1679,-4.083,-4.0256,-3.9735,-3.7794,-3.7434,-3.7803,-3.602,-3.6309,-3.747,-3.6468,-3.6128,-3.5968,-3.506,-3.474,-3.4723,-3.4723,-3.4761,-3.4799,-3.4799,-3.4942,-3.5101,-3.5137,-3.5758,-3.6399,-3.6435,-3.7077,-3.7703,-3.7703,-3.781,-3.7934,-3.8002,-3.8563,-3.9027,-3.9003,-4.013,-4.0959,-4.0654,-4.1389,0.0,-4.3128,-4.3277,-4.3659,-4.4484,-4.456,-4.4595,-4.4685,-4.3152,-4.175,-4.0757,-3.9836,-3.8457,-3.65,-3.7211,-3.6934,-3.5519,-3.597,-3.4995,-3.2568,0.0,0.0,0.0,0.0,0.0,0.0,0.0,0.0,0.0,0.0,0.0,0.0,0.0,0.0,0.0,0.0,0.0,0.0,0.0,0.0,0.0,-4.1855,-4.3019,-4.3545,-4.3447,-4.3452,-4.3788,-4.346,-4.3245,-4.3376,-4.3844,-4.4384,-4.4963,-4.5949,-4.6326,-4.5925,-4.655,-4.6552,-4.5718,-4.5808,-4.5737,-4.5438,-4.5635,-4.5671,-4.5568,-4.5605,-4.5532,-4.54,-4.5381,-4.5104,-4.4645,-4.4554,-4.3888,-4.2762,-4.2321,-4.1345,-3.9981,-3.8551,-3.8038,-3.8032,-3.7462,-3.7345,-3.7394,-3.7069,-3.6885,-3.6696,-3.6447,-3.5969,-3.5513,-3.5513,-3.5183,-3.4799,-3.4799,-3.4853,-3.5102,-3.5794,-3.615,-3.6488,-3.7131,-3.7488,-3.7703,-3.7703,-3.7721,-3.7828,-3.8034,-3.8942,-3.9445,-3.8697,-4.0596,-4.2001,-4.1338,-4.2611,0.0,-4.3959,-4.4007,-4.4158,-4.4421,-4.3849,-4.3765,-4.4549,-4.3002,-4.1536,-4.0486,-4.0085,-3.9032,-3.7124,-3.7772,-3.7312,-3.5551,-3.4796,-3.3458,0.0,0.0,0.0,0.0,0.0,0.0,0.0,0.0,0.0,0.0,0.0,0.0,0.0,0.0,0.0,0.0,0.0,0.0,0.0,0.0,0.0,0.0,-4.3244,-4.4465,-4.5366,-4.4992,-4.4663,-4.4696,-4.4482,-4.4233,-4.397,-4.4577,-4.5059,-4.519,-4.6085,-4.6597,-4.6455,-4.6989,-4.7126,-4.6746,-4.69,-4.6864,-4.655,-4.6433,-4.6275,-4.6103,-4.5847,-4.5622,-4.5438,-4.5419,-4.5301,-4.5125,-4.5038,-4.4586,-4.3823,-4.324,-4.236,0.0,0.0,0.0,0.0,0.0,-3.7471,-3.6948,-3.7228,-3.722,-3.7105,-3.7027,-3.6671,-3.6303,-3.6303,-3.6025,-3.5711,-3.5711,-3.5806,-3.6022,-3.6574,-3.6772,-3.6987,-3.747,-3.7613,-3.7649,-3.7649,-3.7649,-3.7721,-3.7967,-3.8834,0.0,-3.8973,-4.1134,-4.2724,-4.2131,-4.3297,-4.4274,-4.4274,-4.4285,-4.4314,-4.4354,-4.3895,-4.3709,-4.3989,-4.2415,0.0,0.0,0.0,-3.8365,-3.7062,-3.6919,0.0,0.0,0.0,0.0,0.0,0.0,0.0,0.0,-3.0318,-3.0201,0.0,0.0,0.0,0.0,0.0,0.0,0.0,0.0,0.0,0.0,0.0,0.0,0.0,0.0,0.0,0.0,-4.4471,-4.5343,-4.6184,-4.6179,-4.5787,-4.4948,-4.5331,-4.5104,-4.3717,-4.4858,-4.5422,-4.4699,-4.5525,-4.6338,-4.7029,-4.7299,0.0,0.0,0.0,-4.8416,-4.8276,-4.748,-4.7059,-4.7008,-4.6111,-4.562,-4.5513,-4.5438,-4.538,-4.5317,-4.5235,-4.508,-4.4764,-4.3844,-4.3275,-4.2667,-3.9724,-3.846,-3.8256,-3.7863,-3.7167,-3.6541,-3.7086,0.0,0.0,-3.7066,-3.7027,-3.6987,-3.7009,-3.7027,-3.6987,-3.7009,-3.7143,-3.7297,-3.7314,-3.7447,-3.7594,-3.7594,-3.7577,-3.7594,-3.7577,-3.7577,-3.7667,-3.7828,-3.8582,-3.9283,-3.9553,-4.1553,-4.3043,-4.2817,-4.3583,-4.4184,-4.4184,-4.4151,-4.4136,-4.4136,0.0,0.0,-4.3109,-4.1518,-4.0139,-3.9259,-3.8081,-3.723,-3.6787,-3.5687,-3.4836,-3.4216,-3.464,-3.4163,-3.2754,-3.3457,-3.3436,-3.2755,-3.1998,-3.1724,0.0,0.0,0.0,0.0,0.0,0.0,0.0,0.0,0.0,0.0,0.0,0.0,0.0,0.0,0.0,-4.4351,-4.5424,-4.6093,-4.6264,-4.6186,-4.5994,-4.5687,-4.5173,-4.4937,-4.5218,-4.5526,-4.5673,-4.5549,-4.6427,-4.6733,-4.6183,-4.7507,-4.792,-4.7187,-4.7976,-4.8333,-4.8152,-4.7442,-4.7086,-4.7075,0.0,0.0,-4.5586,-4.5513,-4.5438,-4.5378,-4.5317,-4.5192,-4.5014,-4.46,-4.3765,-4.2551,-4.043,-3.9081,-3.8274,-3.7969,-3.7667,-3.7435,-3.7413,-3.7261,-3.7147,-3.7108,-3.7048,-3.7009,-3.7069,-3.7048,0.0,-3.7069,-3.7108,-3.7147,-3.7259,-3.7354,-3.7429,-3.7429,-3.7503,-3.7577,-3.7466,-3.754,-3.7631,-3.7667,-3.8885,-3.9841,-3.9644,-4.1214,-4.2518,-4.2617,-4.3441,-4.4036,-4.4036,-4.3478,-4.313,-4.317,-4.2015,-4.1493,-4.2117,-4.0458,-3.9519,-3.9804,-3.8434,-3.768,-3.7817,-3.7345,-3.695,-3.6717,-3.6111,-3.5348,-3.4358,-3.3917,-3.3317,-3.2574,-3.2548,-3.2606,0.0,0.0,0.0,0.0,0.0,0.0,0.0,0.0,0.0,0.0,0.0,-4.0857,-4.2662,0.0,-4.4083,-4.5392,-4.5989,-4.6303,-4.6297,-4.6202,-4.6092,-4.592,-4.5491,-4.5316,-4.5665,-4.5735,-4.5939,-4.6418,-4.6917,-4.7171,-4.7105,-4.7992,-4.841,-4.8253,-4.8774,-4.9184,-4.9444,-4.8717,-4.8133,-4.7681,-4.6744,-4.6075,-4.564,-4.555,-4.5457,-4.54,-4.5359,-4.5256,-4.5125,-4.4846,-4.4044,-4.2843,-4.1748,-4.0354,-3.8855,-3.865,-3.8169,-3.7667,-3.754,-3.7392,-3.7223,-3.7129,-3.7069,-3.7048,-3.7108,-3.7031,-3.7009,-3.7069,-3.7147,-3.7203,-3.7297,-3.741,-3.7503,-3.7503,-3.754,-3.7577,-3.7503,-3.754,-3.7613,-3.7649,-3.8634,-3.9499,-3.9454,-4.0518,-4.169,-4.2556,-4.312,-4.3392,-4.3392,-4.2705,-4.2214,-4.2244,-4.1547,-4.112,-4.1203,-3.9825,-3.9069,-3.9338,-3.8419,-3.7898,-3.8002,-3.7685,-3.7362,-3.7023,-3.6305,-3.5417,-3.4288,-3.3829,-3.323,-3.2557,-3.2641,-3.274,0.0,0.0,0.0,0.0,0.0,0.0,0.0,-3.9126,-4.0352,-4.1397,-4.2119,-4.3063,-4.4703,-4.5009,-4.5294,-4.6163,-4.6297,-4.6295,-4.6293,-4.6238,-4.6131,-4.593,-4.5866,-4.5858,-4.5963,-4.5862,-4.6225,-4.7268,-4.725,-4.7439,-4.8037,-4.8324,-4.8745,-4.9382,-4.9582,-5.0055,-5.0844,-5.0014,-4.9241,-4.8533,-4.7615,-4.6733,-4.5943,-4.6009,-4.5898,-4.5669,-4.5629,-4.5451,-4.517,-4.4919,-4.429,-4.3437,-4.317,-4.1815,-3.9993,-3.9623,-3.8941,-3.8133,-3.7935,-3.7772,-3.7587,-3.7238,-3.7108,-3.7108,-3.7108,-3.7031,-3.7009,-3.7069,-3.7203,-3.7297,-3.7297,-3.7447,-3.7577,-3.7594,-3.7577,-3.7577,-3.7594,-3.754,-3.7577,-3.7631,-3.8275,-3.8868,-3.901,-3.9823,-4.101,-4.2464,-4.2588,-4.2551,-4.2748,-4.1962,-4.1367,-4.1367,-4.1287,-4.0914,-4.0225,-3.9327,-3.8773,-3.8688,-3.8267,-3.8002,-3.7985,-3.7685,-3.7255,-3.6755,-3.6199,-3.5345,-3.4199,-3.3759,-3.3266,-3.2769,-3.2594,-3.2641,-3.4054,-3.5227,-3.6714,-3.7639,-3.8163,-3.908,0.0,-4.1366,-4.1425,-4.3064,-4.3475,-4.3847,-4.4821,-4.5,-4.5291,-4.6152,-4.6308,-4.6303,-4.6306,-4.6234,-4.6156,-4.6017,-4.5944,-4.6164,-4.6877,-4.6244,-4.6457,-4.8041,-4.75,-4.7148,-4.7236,-4.7936,-4.8426,-4.8703,-4.9311,-5.0074,-5.1053,-5.0027,-4.9478,-4.9451,-4.8552,-4.7653,-4.6791,-4.7561,-4.745,-4.6628,-4.6451,-4.5903,-4.5103,-4.4943,-4.4662,-4.4318,-4.4069,-4.3156,-4.1886,-4.0866,-4.0257,-3.9821,-3.9048,-3.8611,-3.8315,-3.7527,-3.7203,-3.7108,-3.7108,-3.7031,-3.7009,-3.7069,-3.7203,-3.7297,-3.7297,-3.7447,-3.7577,-3.7466,-3.7503,-3.7594,-3.7466,-3.7429,-3.7411,-3.7411,-3.8089,-3.8485,-3.8043,-3.9337,-4.0853,-4.2139,-4.1807,-4.1717,-4.26,-4.1449,-4.0513,-4.0513,-3.9881,-3.9342,-3.9029,-3.8859,-3.8713,-3.8523,-3.8168,-3.8086,-3.8318,-3.802,-3.7667,-3.7305,-3.6684,-3.6095,-3.5586,-3.4305,-3.3583,-3.3371,-3.2841,-3.2639,-3.5388,-3.7014,-3.8548,-3.8951,-3.9881,-4.1144,-4.2772,-4.287,-4.3104,-4.4843,-4.5214,-4.5312,-4.5683,-4.5761,-4.5877,-4.6247,-4.6301,-4.6293,-4.6303,-4.6689,-4.6924,-4.6828,-4.6715,-4.659,-4.6427,-4.6457,-4.7005,-4.8214,-4.8218,-4.8047,-4.7816,-4.7908,-4.7902,-4.7792,-4.8551,-4.9374,-5.0225,-5.0281,-5.0038,-4.9541,-4.9139,-4.8505,-4.7677,-4.7988,-4.7932,-4.753,-4.6835,-4.6311,-4.5881,-4.5204,-4.4846,-4.464,-4.4421,-4.3923,-4.3139,-4.1896,-4.0944,-4.0256,-3.9804,-3.9279,-3.8701,-3.817,-3.763,-3.7203,-3.7108,-3.7031,-3.7009,-3.7164,-3.7259,-3.7297,-3.7372,-3.7429,-3.7503,-3.7503,-3.7466,-3.7447,-3.7503,-3.7429,-3.7354,-3.7392,-3.8031,-3.8315,-3.7684,-3.8542,-3.955,-4.031,-4.0463,-4.0658,-4.1181,-4.0306,-3.964,-3.964,-3.9333,-3.9073,-3.895,-3.8822,-3.867,-3.851,-3.8271,-3.8156,-3.8289,-3.8038,-3.7828,-3.7703,-3.7219,-3.6451,-3.5402,-3.4676,-3.3864,-3.2965,-3.2648,-3.2541,-3.6221,-3.816,-3.9764,-3.9628,-4.1168,-4.2863,-4.3551,-4.3882,-4.4545,-4.6308,-4.666,-4.664,-4.6621,-4.6659,-4.6561,-4.6305,-4.6468,-4.6632,-4.6638,-4.7128,-4.7567,-4.7712,-4.7395,-4.6939,-4.6351,-4.652,-4.7121,-4.8218,-4.8374,-4.8375,-4.8287,-4.7797,-4.754,-4.7572,-4.8139,-4.8846,-4.9618,-5.0455,-5.052,-4.9834,-4.9778,-4.9335,-4.8545,-4.8489,-4.8433,-4.8356,-4.7623,-4.7138,-4.6768,-4.5788,-4.5304,-4.5136,-4.47,-4.4335,-4.3943,-4.2901,-4.1956,-4.1125,-4.0726,-4.0201,-3.955,-3.9088,-3.8368,-3.7653,-3.7521,-3.7246,-3.7048,-3.7259,-3.7297,-3.7334,-3.7392,-3.7392,-3.7411,-3.7577,-3.7484,-3.7372,-3.754,-3.7447,-3.7297,-3.7354,-3.7777,-3.7952,-3.7461,-3.7833,-3.8338,-3.8708,-3.9192,-3.9669,-4.0025,-3.9489,-3.9073,-3.9101,-3.9073,-3.9017,-3.8921,-3.8732,-3.8546,-3.8433,-3.8256,-3.8192,-3.8192,-3.8056,-3.7934,-3.7864,-3.7649,-3.6951,-3.5723,-3.5137,-3.4306,-3.3191,-3.2667,-3.2457,-3.6458,-3.8627,-4.0571,-3.9786,-4.164,-4.3651,-4.3696,-4.4343,-4.5456,-4.7198,-4.7554,-4.7537,-4.7479,-4.7519,-4.7265,-4.6344,-4.6907,-4.7467,-4.7469,-4.7484,-4.7751,-4.8477,-4.7694,-4.714,-4.7248,-4.6396,-4.6515,-4.8176,-4.7581,-4.7488,-4.8263,-4.7538,-4.7516,-4.8432,-4.8424,-4.8817,-4.9693,-5.0436,-5.0756,-5.0663,-5.0663,-5.022,-4.9356,-4.9356,-4.9278,-4.9159,-4.912,-4.8597,-4.7685,-4.6748,-4.6288,-4.6045,-4.5006,-4.443,-4.4181,-4.3923,-4.3526,-4.2978,-4.1996,-4.1577,-4.1357,-4.0376,-3.9381,-3.8549,-3.8468,-3.7803,-3.7108,-3.7259,-3.7372,-3.7392,-3.7392,-3.7392,-3.7411,-3.7577,-3.7503,-3.7411,-3.7577,-3.7447,-3.7297,-3.7297,-3.722,-3.7182,-3.7297,-3.739,-3.7539,-3.79,-3.8176,-3.8696,-3.9589,-3.9282,-3.9036,-3.9101,-3.8979,-3.8851,-3.8738,-3.8528,-3.8336,-3.8225,-3.8192,-3.8192,-3.8192,-3.8192,-3.8038,-3.7703,-3.781,-3.7649,-3.7226,-3.5721,-3.4907,-3.4693,-3.3195,-3.2473,-3.7651,-3.9402,-4.0891,-4.1294,-4.2517,-4.3798,-4.4351,-4.4715,-4.5437,-4.7235,-4.7093,-4.6859,-4.7458,-4.7107,-4.6816,-4.7089,-4.7371,-4.7744,-4.8298,-4.8864,-4.9322,-4.9578,-4.9216,-4.899,-4.9089,-4.8295,-4.7722,-4.7589,-4.8316,-4.8613,-4.8318,-4.8369,-4.8458,-4.8502,-4.9046,-4.9453,-4.9708,-5.0465,-5.0825,-5.0775,-5.0721,-5.0548,-5.026,-5.026,-5.024,-5.0163,-4.9547,-4.9064,-4.8597,-4.7086,-4.6397,-4.6158,-4.5104,-4.4578,-4.4364,-4.4067,-4.3846,-4.3579,-4.2922,-4.225,-4.1577,-4.1119,-3.998,-3.8774,-3.8623,-3.7957,-3.7299,-3.7354,-3.7392,-3.7429,-3.7503,-3.7429,-3.7372,-3.7558,-3.7354,-3.7203,-3.754,-3.7724,-3.7743,-3.7365,-3.7549,-3.7646,-3.7253,-3.7164,-3.7299,-3.7774,-3.8186,-3.8619,-3.9172,-3.8951,-3.8785,-3.8892,-3.8725,-3.859,-3.8437,-3.8401,-3.8336,-3.8225,-3.8192,-3.8192,-3.8192,-3.8122,-3.7967,-3.7846,-3.7326,-3.6665,-3.5901,-3.4765,-3.3916,-3.3351,-3.272,-3.2422,-3.8439,-4.0315,-4.1881,-4.2259,-4.3453,-4.4624,-4.4881,-4.5156,-4.5787,-4.726,-4.7081,-4.6853,-4.7441,-4.7109,-4.6914,-4.7475,-4.7838,-4.8317,-4.9146,-4.9742,-5.021,-5.0485,-5.0157,-4.9925,-4.9983,-4.9351,-4.8587,-4.7759,-4.8337,-4.8776,-4.8836,-4.8877,-4.8913,-4.8961,-4.9518,-4.9776,-4.9736,-5.0378,-5.0643,-5.0547,-5.0664,-5.0702,-5.0682,-5.0702,-5.0702,-5.0644,-5.0008,-4.9698,-4.9522,-4.7685,-4.6862,-4.663,-4.53,-4.4685,-4.4524,-4.4248,-4.4067,-4.391,-4.3479,-4.2814,-4.2195,-4.2047,-4.0833,-3.9352,-3.9222,-3.8397,-3.7485,-3.7485,-3.7485,-3.7485,-3.754,-3.7605,-3.7671,-3.75,-3.7471,-3.7478,-3.75,-3.786,-3.7981,-3.7362,-3.7703,-3.7905,-3.7232,-3.7147,-3.7374,-3.7827,-3.8201,-3.8559,-3.891,-3.8725,-3.8603,-3.8713,-3.8603,-3.8478,-3.8368,-3.8433,-3.8451,-3.8289,-3.8256,-3.8241,-3.8192,-3.807,-3.7967,-3.7899,-3.7022,-3.629,-3.5632,-3.4391,-3.3543,-3.3013,-3.263,-3.2457,-3.8883,-4.1293,-4.3309,-4.263,-4.4335,-4.5969,-4.5221,-4.5668,-4.6445,-4.7323,-4.7467,-4.7454,-4.7497,-4.7493,-4.7512,-4.7551,-4.8306,-4.9165,-5.0035,-5.0161,-5.044,-5.1218,-5.0533,-5.0007,-5.0063,-4.9576,-4.9107,-4.8766,-4.7856,-4.8037,-4.9718,-4.9065,-4.9,-4.9853,-4.9867,-4.986,-4.9873,-5.0163,-5.0221,-5.014,-5.0504,-5.0643,-5.0603,-5.0663,-5.0682,-5.0603,-5.0542,-5.05,-5.0366,-4.8544,-4.7705,-4.7405,-4.5645,-4.4878,-4.4685,-4.4468,-4.4277,-4.403,-4.3649,-4.3375,-4.3196,-4.3141,-4.1831,-4.0291,-4.0218,-3.9031,-3.7721,-3.7757,-3.7775,-3.7703,-3.752,-3.7919,-3.8196,-3.7491,-3.7803,-3.8082,-3.7418,-3.7874,-3.8113,-3.7267,-3.7629,-3.787,-3.7246,-3.741,-3.7739,-3.8088,-3.8223,-3.8419,-3.8762,-3.8603,-3.851,-3.8585,-3.8523,-3.8478,-3.8478,-3.8609,-3.8609,-3.8415,-3.8415,-3.8336,-3.8225,-3.807,-3.7967,-3.7899,-3.6986,-3.6451,-3.6328,-3.4587,-3.3755,-3.3737,-3.2892,-3.2507,-3.9985,-4.0961,-4.1992,-4.3104,-4.3867,-4.4646,-4.5719,-4.6119,-4.6521,-4.7391,-4.7027,-4.6738,-4.7379,-4.7506,-4.7696,-4.8306,-4.9169,-5.0074,-5.0953,-5.1066,-5.1132,-5.1347,-5.1127,-5.0971,-5.1035,-5.0285,-5.0022,-5.0566,-4.9426,-4.9006,-4.9763,-5.0216,-5.0539,-5.0765,-5.0772,-5.0785,-5.0848,-5.0486,-5.0412,-5.0625,-5.0361,-5.0399,-5.0682,-5.0683,-5.0683,-5.0663,-5.0663,-5.0584,-5.0404,-4.9226,-4.8293,-4.7481,-4.6309,-4.5388,-4.4685,-4.4524,-4.4306,-4.4079,-4.3878,-4.3582,-4.325,-4.3214,-4.1942,-4.0456,-4.0384,-3.9175,-3.7936,-3.8456,-3.8543,-3.8487,-3.8338,-3.8404,-3.833,-3.7491,-3.7418,-3.7506,-3.735,-3.8298,-3.8765,-3.7373,-3.7206,-3.7391,-3.7782,-3.7765,-3.7936,-3.8654,-3.8601,-3.8528,-3.8689,-3.8433,-3.8252,-3.8336,-3.8252,-3.8201,-3.8201,-3.846,-3.8603,-3.8554,-3.8446,-3.8382,-3.8336,-3.7984,-3.7774,-3.7757,-3.6274,-3.5473,-3.542,-3.3821,-3.3057,-3.3042,-3.2712,-3.2573,-4.048,-4.1178,-4.2009,-4.3359,-4.3707,-4.4052,-4.5375,-4.5682,-4.5919,-4.677,-4.6523,-4.6534,-4.7764,-4.7721,-4.7897,-4.9079,-4.9732,-5.0398,-5.1279,-5.1402,-5.14,-5.1398,-5.1363,-5.1363,-5.1394,-5.0557,-5.0357,-5.1238,-5.0195,-4.978,-5.0394,-5.0855,-5.1108,-5.1139,-5.1089,-5.0976,-5.0809,-5.0673,-5.0566,-5.0529,-5.0406,-5.0485,-5.0702,-5.0702,-5.0702,-5.0702,-5.0643,-5.0563,-5.0423,-4.9472,-4.8728,-4.8033,-4.6708,-4.5824,-4.5195,-4.4701,-4.4383,-4.4158,-4.4005,-4.3697,-4.3426,-4.3232,-4.225,-4.1089,-4.1017,-3.9806,-3.8528,-3.8905,-3.8884,-3.8734,-3.8564,-3.8773,-3.8805,-3.7966,-3.7733,-3.7644,-3.7291,-3.836,-3.9142,-3.8244,-3.8046,-3.8063,-3.8214,-3.8173,-3.8329,-3.8905,-3.866,-3.8579,-3.8994,-3.8456,-3.8119,-3.8303,-3.8186,-3.8168,-3.83,-3.8585,-3.8755,-3.8725,-3.8541,-3.8415,-3.8382,-3.7915,-3.7667,-3.7703,-3.5972,-3.5049,-3.5031,-3.3436,-3.2674,-3.2674,-3.259,-3.2557,-4.0836,-4.1602,-4.2461,-4.3455,-4.3603,-4.3739,-4.4538,-4.482,-4.5093,-4.5792,-4.601,-4.6528,-4.7983,-4.7827,-4.7986,-4.9543,-4.9953,-5.0371,-5.1269,-5.1385,-5.1386,-5.1396,-5.1402,-5.1403,-5.1391,-5.065,-5.0498,-5.1232,-5.0539,-5.0401,-5.1162,-5.1136,-5.1139,-5.119,-5.1075,-5.0832,-5.0414,-5.0728,-5.0713,-5.0308,-5.0529,-5.0664,-5.0702,-5.0702,-5.0702,-5.0683,-5.0563,-5.0423,-5.027,-4.95,-4.9001,-4.8561,-4.6998,-4.6202,-4.59,-4.4871,-4.443,-4.4285,-4.4067,-4.3846,-4.3563,-4.3304,-4.2614,-4.1851,-4.1723,-4.0528,-3.9211,-3.9373,-3.9154,-3.8839,-3.8752,-3.9261,-3.9504,-3.8518,-3.8307,-3.8095,-3.7284,-3.8151,-3.9217,-3.9427,-3.9305,-3.9036,-3.862,-3.8587,-3.8668,-3.8996,-3.8629,-3.858,-3.9397,-3.8645,-3.8174,-3.8514,-3.8307,-3.8267,-3.8554,-3.8815,-3.895,-3.8892,-3.8634,-3.8478,-3.8415,-3.788,-3.7613,-3.7667,-3.5901,-3.4978,-3.4978,-3.3334,-3.2489,-3.2507,-3.2489,-3.2473,-4.1897,-4.1724,-4.1714,-4.3298,-4.3154,-4.2831,-4.3634,-4.4382,-4.4941,-4.5078,-4.5592,-4.6093,-4.6309,-4.6902,-4.764,-4.8604,-4.9419,-5.0263,-5.1183,-5.133,-5.1338,-5.1386,-5.1406,-5.1406,-5.1398,-5.121,-5.1128,-5.1291,-5.1111,-5.1035,-5.12,-5.1189,-5.1163,-5.1114,-5.1153,-5.1056,-5.0887,-5.0638,-5.0621,-5.0855,-5.0529,-5.0529,-5.0775,-5.0775,-5.0758,-5.0702,-5.0623,0.0,-4.9465,-4.9953,-4.9224,-4.7805,-4.7409,-4.6746,-4.59,-4.4871,-4.443,-4.4255,-4.3992,-4.3851,-4.3719,-4.3391,-4.2649,-4.1851,-4.1723,-4.0474,-3.9391,-4.065,-4.0313,-3.9718,-4.0258,-4.0483,-4.0176,-3.8543,-3.8272,-3.8157,-3.7224,-3.769,-3.8708,-4.0024,-3.9217,-3.8561,-3.9337,-3.8574,-3.8205,-3.9084,-3.8746,-3.8692,-3.948,-3.8813,-3.8528,-3.9216,-3.8784,-3.846,-3.8491,-3.8755,-3.8892,-3.891,-3.8621,-3.8415,-3.8382,-3.7774,-3.7449,-3.7449,-3.5739,-3.4835,-3.4835,-3.3299,-3.2539,-3.2507,-3.2557,-3.2506,-4.1445,-4.1333,-4.1406,-4.269,-4.2368,-4.2064,-4.3368,-4.3941,-4.4469,-4.535,-4.5753,-4.6197,-4.7047,-4.7559,-4.8145,-4.8988,-4.9946,-5.0568,-5.0575,-5.102,-5.1205,-5.0778,-5.1092,-5.1363,-5.1394,-5.1299,-5.1277,-5.1347,-5.1284,-5.1237,-5.119,-5.1197,-5.1183,-5.1089,-5.1178,-5.1146,-5.1053,-5.0867,-5.0835,-5.0956,-5.0717,-5.0663,-5.0757,-5.0757,-5.074,-5.0702,-5.0623,-5.0312,-4.9906,-5.0221,-4.9778,-4.8846,-4.8334,-4.7496,-4.6523,-4.5584,-4.4833,-4.4285,-4.4147,-4.3979,-4.3804,-4.3697,-4.3272,-4.2737,-4.2505,-4.1524,-4.0637,-4.1227,-4.0635,-3.9949,-4.063,-4.0182,-3.9434,-3.8936,-3.8272,-3.7796,-3.8134,-3.848,-3.9076,-4.0253,-4.0182,-3.9863,-3.9669,-3.9213,-3.8902,-3.9103,-3.8645,-3.8725,-3.9924,-3.9049,-3.8678,-3.9531,-3.8893,-3.8465,-3.8652,-3.8773,-3.8862,-3.891,-3.8559,-3.8303,-3.8252,-3.7613,-3.7223,-3.7203,-3.5518,-3.4616,-3.4596,-3.3108,-3.2353,-3.2284,-3.2301,-3.2266,-4.0803,-4.096,-4.1269,-4.1947,-4.1602,-4.1511,-4.304,-4.3495,-4.403,-4.5504,-4.6008,-4.65,-4.7622,-4.812,-4.8587,-4.929,-5.0237,-5.0711,-5.0235,-5.0842,-5.1105,-5.0445,-5.0925,-5.133,-5.1394,-5.1279,-5.1269,-5.1366,-5.1327,-5.1269,-5.1191,-5.1197,-5.1159,-5.1102,-5.1159,-5.1166,-5.1087,-5.1101,-5.1053,-5.0941,-5.0929,-5.088,-5.0738,-5.0738,-5.072,-5.0664,-5.0502,-5.0323,-5.021,-5.0183,-5.0043,-4.9784,-4.901,-4.8102,-4.7116,-4.6195,-4.52,-4.4285,-4.4255,-4.4042,-4.3837,-4.3961,-4.3828,-4.3563,-4.3304,-4.2577,-4.1778,-4.1737,-4.0781,-4.0002,-4.0861,-3.9881,-3.8779,-3.9158,-3.8272,-3.7664,-3.9006,-3.9445,-3.9796,-4.0569,-4.1078,-4.1006,-3.9805,-3.9593,-3.9414,-3.8852,-3.8561,-3.8864,-4.0111,-3.9306,-3.8893,-3.9597,-3.8893,-3.8483,-3.8732,-3.8762,-3.8792,-3.8851,-3.8483,-3.8204,-3.8034,-3.7413,-3.7069,-3.6948,-3.5346,-3.4446,-3.4387,-3.2911,-3.2144,-3.2073,-3.2073,-3.2037,-4.0842,-4.0994,-4.1112,-4.1203,-4.1153,-4.1322,-4.2226,-4.3047,-4.384,-4.4738,-4.6026,-4.6791,-4.6158,-4.7233,-4.826,-4.8419,-4.9229,-5.013,-5.0952,-5.1106,-5.1161,-5.1269,-5.1281,-5.1327,-5.1384,-5.1324,-5.1308,-5.1304,-5.1245,-5.122,-5.1211,-5.1197,-5.1166,-5.1101,-5.1166,-5.1134,-5.102,-5.1067,-5.1101,-5.1087,-5.1087,-5.1005,-5.0874,-5.0822,-5.0717,-5.0586,-5.0087,-4.9619,0.0,-4.9606,-4.9485,-4.9077,-4.8859,-4.8181,-4.7151,-4.6102,-4.5123,-4.4285,-4.4097,-4.3929,-4.3837,-4.3961,-4.3828,-4.3612,-4.3693,-4.2837,-4.1941,-4.2631,-4.1387,-4.0126,-4.1552,-4.0713,-3.931,-3.8571,-3.8209,-3.8251,-3.9111,-3.9866,-4.0604,-4.1358,-4.1007,-4.0433,-3.982,-3.9075,-3.8445,-3.8149,-3.8617,-3.9121,-3.9478,-3.942,-3.9434,-3.9506,-3.9026,-3.8627,-3.8541,-3.864,-3.8707,-3.8738,-3.8336,-3.8034,-3.7827,-3.7356,-3.6992,-3.6811,-3.5231,-3.4425,-3.4387,-3.2875,-3.202,-3.193,-3.2037,-3.2018,-3.9888,-3.977,-3.959,-3.9549,-3.9928,-4.0542,-4.1384,-4.2568,-4.3724,-4.4561,-4.5932,-4.6877,-4.6532,-4.74,-4.8224,-4.828,-4.8684,-4.9126,-4.9574,-4.9646,-4.9878,-5.0496,-5.0535,-5.075,-5.1344,-5.1338,-5.131,-5.1357,-5.1303,-5.1211,-5.1093,-5.1169,-5.1194,-5.1166,-5.119,-5.1159,-5.1056,-5.1081,-5.1087,-5.1053,-5.1053,-5.099,-5.0897,-5.0874,-5.0771,-5.0587,-5.0363,-5.0144,0.0,-5.0059,-4.9948,-4.9657,-4.9588,-4.8972,-4.7953,-4.6967,-4.597,-4.4998,-4.4375,-4.4023,-4.3915,-4.4207,-4.414,-4.3968,-4.3936,-4.3504,-4.3051,-4.321,-4.2196,-4.1283,-4.2264,-4.1149,-3.9461,-3.8443,-3.8151,-3.8462,-3.9743,-3.9884,-4.0147,-4.1358,-4.099,-4.0461,-4.0276,-3.9552,-3.8996,-3.891,-3.8956,-3.9156,-3.9697,-3.9624,-3.9472,-3.9456,-3.8879,-3.8496,-3.8446,-3.8496,-3.8546,-3.8559,-3.8252,-3.7897,-3.7632,-3.7243,-3.6641,-3.5803,-3.4748,-3.3969,-3.3425,-3.2337,-3.1802,-3.1856,-3.1763,-3.1726,-3.9522,-3.9461,-3.9293,-3.919,-3.9668,-4.0389,-4.1238,-4.2422,-4.3607,-4.4461,-4.5829,-4.6795,-4.6562,-4.7444,-4.8147,-4.7976,-4.8262,-4.8623,-4.8962,-4.9042,-4.9318,-4.9933,-5.0235,-5.0557,-5.0967,-5.1218,-5.134,-5.1406,-5.1301,-5.116,-5.0994,-5.1004,-5.103,-5.1089,-5.1089,-5.1102,-5.1095,-5.1095,-5.1067,-5.1029,-5.1034,-5.099,-5.0932,-5.0874,-5.0771,-5.0587,-5.0303,-5.0252,0.0,-5.0057,-5.0025,-5.0133,-5.0082,-4.9314,-4.8151,-4.7464,-4.6365,-4.5151,-4.4501,-4.4116,-4.3961,-4.4383,-4.4335,-4.414,-4.4199,-4.406,-4.3855,-4.3575,-4.2882,-4.2141,-4.1812,-4.0948,-3.9838,-3.876,-3.8638,-3.907,-4.0192,-4.0131,-4.0158,-4.1243,-4.1077,-4.0639,-4.0498,-3.9972,-3.9557,-3.9435,-3.9376,-3.9412,-3.9636,-3.9662,-3.9497,-3.9079,-3.8549,-3.8252,-3.8368,-3.8401,-3.8415,-3.8478,-3.8171,-3.781,-3.7469,-3.6879,-3.6115,-3.5125,-3.4129,-3.3355,-3.2745,-3.1974,-3.1596,-3.1726,-3.1555,-3.1538,-4.0138,-4.0674,-4.093,-4.0812,-4.0886,-4.1198,-4.2,-4.276,-4.3527,-4.435,-4.5722,-4.6567,-4.5759,-4.7026,-4.7959,-4.7221,-4.7893,-4.8857,-4.9851,-4.999,-4.9985,-5.0011,-5.0764,-5.0971,-5.0191,-5.0883,-5.1398,-5.1408,-5.1206,-5.1054,-5.0911,-5.07,-5.0678,-5.0803,-5.0803,-5.0902,-5.1095,-5.1095,-5.1095,-5.1095,-5.1095,-5.1053,-5.0986,-5.0855,-5.0735,-5.0547,-4.9616,-4.9645,0.0,-4.9314,-4.9405,-5.0188,-5.0038,-4.8927,-4.7416,-4.7238,-4.6036,-4.4401,-4.4314,-4.4116,-4.3961,-4.4468,-4.4277,-4.4005,-4.4613,-4.4458,-4.406,-4.3855,-4.3355,-4.2264,-3.9641,-3.9914,-4.0641,-3.9729,-3.9884,-4.0289,-4.0307,-4.076,-4.1174,-4.1192,-4.1192,-4.0965,-4.0252,-4.0085,-3.9878,-3.9315,-3.9884,-3.9982,-3.8953,-3.9493,-3.9533,-3.8321,-3.7916,-3.7845,-3.8274,-3.8368,-3.8382,-3.8382,-3.8088,-3.7739,-3.7413,-3.618,-3.5382,-3.5125,-3.3436,-3.2627,-3.261,-3.1876,-3.1517,-3.1517,-3.1517,-3.1517,-3.9179,-3.9003,-3.8683,-3.8741,-3.9712,-4.0595,-4.0399,-4.1859,-4.3327,-4.3627,-4.4442,-4.5374,-4.6313,-4.6565,-4.6728,-4.7062,-4.7464,-4.7871,-4.825,-4.8769,-4.934,-4.9995,-5.0844,-5.1274,-5.1011,-5.1247,-5.1405,-5.1406,-5.1216,-5.0987,-5.0786,-5.0524,-5.0449,-5.051,-5.0657,-5.0761,-5.0825,-5.1015,-5.1101,-5.1095,-5.1048,-5.1005,-5.0921,-5.089,-5.0789,-5.0644,-5.0303,-5.021,-5.0278,-4.9981,-4.9948,-5.0038,-5.0031,-4.9603,-4.8964,-4.8268,-4.7222,-4.6081,-4.5372,-4.4612,-4.4036,-4.4449,-4.443,-4.4308,-4.4726,-4.4495,-4.4079,-4.3892,-4.3682,-4.2953,-4.0438,-4.0502,-4.0814,-3.8982,-3.9413,-4.0307,-4.0307,-4.0393,-4.0617,-4.1105,-4.0809,-4.052,-4.0724,-4.0325,-4.0047,-4.0325,-4.0341,-4.0084,-3.9372,-3.9697,-3.9441,-3.8025,-3.7774,-3.7739,-3.7898,-3.7721,-3.765,-3.7756,-3.7631,-3.7466,-3.7206,-3.6745,-3.6098,-3.5125,-3.4586,-3.3733,-3.261,-3.231,-3.1896,-3.1325,-3.1329,-3.1351,-3.9442,-3.9104,-3.8657,-3.9061,-3.9831,-4.0397,-3.9987,-4.1369,-4.2718,-4.2757,-4.3376,-4.4306,-4.5706,-4.5407,-4.5328,-4.6448,-4.6814,-4.7177,-4.7866,-4.8683,-4.9571,-5.0487,-5.0783,-5.1045,-5.1367,-5.1406,-5.1406,-5.1402,-5.1186,-5.0967,-5.0705,-5.0375,-5.0164,-5.0145,-5.0308,-5.0491,-5.0692,-5.0835,-5.0971,-5.1101,-5.102,-5.0971,-5.0941,-5.0906,-5.0825,-5.0682,-5.0246,-5.0149,0.0,-4.9636,-4.9627,-4.9978,-4.9778,-4.9552,-4.9249,-4.8645,-4.7608,-4.643,-4.5728,-4.4867,-4.4147,-4.4524,-4.4621,-4.4553,-4.4218,-4.3952,-4.3647,-4.3218,-4.318,-4.2827,-4.0782,-4.0833,-4.093,-3.9012,-3.9423,-4.0219,-4.0219,-4.0311,-4.055,-4.1001,-4.0678,-4.0476,-4.096,-4.0538,-4.0272,-4.0754,-4.055,-4.0262,-3.9929,-3.9802,-3.9397,-3.8456,-3.7846,-3.7504,-3.7504,-3.7301,-3.7301,-3.7432,-3.7281,-3.7147,-3.7087,-3.6531,-3.5885,-3.5125,-3.4792,-3.4093,-3.3054,-3.2684,-3.2077,-3.1252,-3.1235,-3.1274,0.0,-4.049,-4.0326,-4.1113,-4.0931,-4.0573,-4.0588,-4.1273,0.0,-4.1903,-4.2502,-4.3318,-4.4317,-4.3912,-4.3967,-4.5704,-4.6216,-4.6897,-4.8394,-4.9474,-5.042,-5.1308,-5.0686,-5.0504,-5.1328,-5.1403,-5.1404,-5.1405,-5.1141,-5.0917,-5.0707,-5.0235,-4.9922,-4.9721,-4.9814,-5.0121,-5.0678,-5.0623,-5.075,-5.1053,-5.1005,-5.0971,-5.0937,-5.0906,-5.0825,0.0,-4.9599,-4.9568,-5.0125,-4.86,-4.8707,-4.9833,-4.937,-4.8987,-4.8617,-4.8523,-4.7401,-4.5866,-4.5653,-4.5021,-4.4319,-4.4597,-4.4783,-4.4649,-4.3222,-4.3034,-4.3091,-4.2062,-4.218,-4.2253,-4.0709,-4.0833,-4.102,-3.9506,-3.9617,-4.0068,-4.0016,-4.0504,-4.0888,-4.0888,-4.0793,-4.0745,-4.0823,-4.068,-4.0534,-4.0648,-4.0583,-4.0513,-4.0506,-3.9775,-3.9284,-3.9354,-3.806,-3.7188,-3.7188,-3.715,-3.7188,-3.7301,-3.6956,-3.6776,-3.6891,-3.5734,-3.5101,-3.5153,-3.4333,-3.3915,-3.3857,-3.2957,-3.2117,-3.1342,-3.1247,-3.119,-3.9746,0.0,-3.9632,-4.019,-4.0769,-4.1086,0.0,-4.1224,-4.1846,-4.1963,-4.1561,-4.2078,-4.4935,-4.4378,-4.422,-4.6455,-4.7553,-4.8048,-4.7807,-4.9113,-5.0422,-5.1307,-5.1222,-5.1164,-5.1377,-5.1403,-5.1406,-5.1406,-5.1154,-5.0917,-5.0707,-5.0235,-4.9922,-4.9721,-4.9634,-4.9841,-5.0387,-5.0529,-5.0529,-5.0414,-5.0752,-5.0717,-5.031,-5.0606,-5.0738,-5.0663,-4.9896,-4.9641,-4.97,-4.88,-4.8581,-4.8881,-4.9099,-4.9102,-4.9034,-4.9284,-4.8673,-4.7578,-4.6712,-4.5861,-4.5046,-4.4674,-4.4372,-4.3964,-4.2882,-4.334,-4.3962,-4.292,-4.3125,-4.3135,-4.0943,-4.0907,-4.0791,-3.8051,-3.8789,-3.9929,-3.9232,-4.0032,-4.0888,-4.0745,-4.0697,-4.0697,-4.0631,-4.0534,-4.0534,-4.0534,-4.0534,-4.0483,-4.0429,-3.9726,-3.9118,-3.8806,-3.7798,-3.7052,-3.6913,-3.6509,-3.6367,-3.6533,-3.619,-3.5994,-3.6071,-3.5942,-3.5771,-3.5615,-3.5086,-3.4727,-3.4626,-3.3236,-3.2349,-3.1904,-3.1404,-3.1151,-3.9257,-3.9427,-3.9556,-3.9983,-4.0501,-4.084,-4.065,-4.0945,-4.1379,-4.1893,-4.1609,-4.2066,-4.4788,-4.4305,-4.4189,-4.6251,-4.7125,-4.7683,-4.8053,-4.8909,-4.9834,-5.0693,-5.0791,-5.0969,-5.1364,-5.1405,-5.1406,-5.1405,-5.1216,-5.0977,-5.0714,-5.0296,-4.9955,-4.9721,-4.9582,-4.9741,-5.0252,-5.0214,-5.0287,-5.0509,-5.0625,-5.0606,-5.047,-5.0663,-5.072,-5.0663,-4.9959,-4.9633,-4.9523,-4.8561,-4.8311,-4.8531,-4.8779,-4.8967,-4.9137,-4.9537,-4.9106,-4.8152,-4.7049,-4.591,-4.4797,-4.4458,-4.4308,-4.409,-4.3142,-4.3655,-4.4213,-4.2389,-4.2396,-4.2514,-4.085,-4.0691,-4.0342,-3.7905,-3.8746,-3.9877,-3.9007,-3.9865,-4.0793,-4.0697,-4.06,-4.0502,-4.0485,-4.0387,-4.0337,-4.0387,-4.0387,-4.0243,-4.0075,-3.9555,-3.8977,-3.8561,-3.7742,-3.7129,-3.6891,-3.636,-3.6105,-3.6402,-3.5941,-3.5766,-3.5975,-3.572,-3.5531,-3.5531,-3.5197,-3.4861,-3.4435,-3.3434,-3.2523,-3.1685,-3.1257,-3.1032,-3.9093,-3.9471,-3.9679,-3.9929,-4.0057,-4.0164,-4.0395,-4.0436,-4.072,-4.1783,-4.1989,-4.2601,-4.4524,-4.4229,-4.4238,-4.593,-4.63,-4.7014,-4.8755,-4.9001,-4.9316,-5.0194,-5.0292,-5.0586,-5.1327,-5.1406,-5.1406,-5.1398,-5.1273,-5.1045,-5.0726,-5.0374,-5.0032,-4.9721,-4.9582,-4.9702,-5.0111,-4.9884,-5.0073,-5.0696,-5.0528,-5.0547,-5.0756,-5.0775,-5.0757,-5.0644,-4.9816,0.0,-4.9495,-4.8199,-4.7983,-4.8495,-4.8495,-4.8763,-4.9169,-4.9476,-4.9058,-4.8133,-4.6918,-4.5511,-4.4221,-4.4192,-4.4364,-4.4372,-4.354,-4.3886,-4.4007,-4.1447,-4.125,-4.1593,-4.0571,-4.0203,-3.9805,-3.839,-3.8981,-3.9755,-3.9084,-3.9859,-4.0697,-4.0648,-4.0453,-4.0337,-4.0387,-4.0238,-4.0138,-4.0188,-4.0188,-3.9999,-3.9692,-3.9303,-3.8901,-3.8408,-3.7762,-3.7261,-3.7009,-3.6385,-3.6148,-3.6461,-3.5888,-3.5667,-3.6079,-3.5275,-3.4907,-3.5156,-3.4936,-3.4494,-3.3859,-3.3478,-3.2601,-3.132,-3.1043,-3.0952,-3.9513,-3.9731,-3.9566,-3.9127,-3.9166,-3.9369,-3.9677,-3.9719,-4.0111,-4.1673,-4.1996,-4.2769,-4.5254,-4.5104,-4.5149,-4.6824,-4.7203,-4.7907,-4.9661,-4.9893,-5.0228,-5.1102,-5.1196,-5.1247,-5.1387,-5.1404,-5.14,-5.1398,-5.1222,-5.0995,-5.0707,-5.0315,-4.9981,-4.9721,-4.9582,-4.9604,-4.9776,-4.9943,-4.9974,-4.9796,-5.0366,-5.0448,-5.0064,-5.0526,-5.0702,-5.0625,0.0,-4.9077,-4.9495,-4.8105,-4.7926,-4.8495,-4.8495,-4.8779,-4.9182,-4.9123,-4.879,-4.8145,-4.6312,-4.5073,-4.4279,-4.4221,-4.4006,-4.3729,-4.3448,-4.3567,-4.3366,-4.1431,-4.1788,-4.2329,-4.0341,-3.9613,-3.9247,-3.8373,-3.8653,-3.9172,-3.9513,-4.0156,-4.0648,-4.0534,-4.0404,-4.0238,-4.0054,-4.0037,-4.0087,-4.0003,-4.0155,-4.0097,-3.9581,-3.9205,-3.8744,-3.8186,-3.7488,-3.7048,-3.7009,-3.6451,-3.6131,-3.6251,-3.5577,-3.5258,-3.5515,-3.479,-3.4575,-3.4924,-3.4309,-3.3874,-3.3632,-3.3008,-3.2445,-3.1965,-3.1301,-3.0935,-3.8733,-3.9317,-3.9477,-3.8764,-3.8833,-3.9201,-3.9568,-3.9597,-4.0044,-4.177,-4.2108,-4.2634,-4.4296,-4.4712,-4.5214,-4.6488,-4.7182,-4.7831,-4.8632,-4.914,-4.9765,-5.0601,-5.0702,-5.0879,-5.1348,-5.1403,-5.14,-5.1402,-5.1176,-5.0975,-5.0817,-5.0315,-4.9981,-4.9816,-4.9593,-4.9471,-4.9427,-4.9655,-4.9765,-4.9709,-5.0049,-5.0121,-5.003,-5.0442,-5.0442,-5.0016,0.0,-4.899,-4.895,-4.8237,-4.8159,-4.8531,-4.8779,-4.9001,-4.9094,-4.8746,-4.8213,-4.7437,-4.6001,-4.489,-4.4151,-4.421,-4.4036,-4.3857,-4.4082,-4.3787,-4.3152,-4.1976,-4.2032,-4.1987,-4.0246,-3.9564,-3.912,-3.8454,-3.8923,-3.9467,-3.9083,-3.9856,-4.0534,-4.0436,-4.0255,-4.0054,-3.9901,-3.9884,-3.9918,-3.9986,-4.0087,-3.9814,-3.8879,-3.8874,-3.8485,-3.7259,-3.7141,-3.7105,-3.7027,-3.6492,-3.6131,-3.5888,-3.5532,-3.5273,-3.5047,-3.4303,-3.3982,-3.4066,-3.3427,-3.2995,-3.2797,-3.2483,-3.207,-3.1503,-3.1143,-3.0992,-3.7722,-3.8517,-3.8946,-3.8134,-3.8495,-3.9153,-3.949,-3.9596,-4.0099,-4.181,-4.2363,-4.2777,-4.3639,-4.453,-4.5449,-4.6378,-4.7126,-4.7714,-4.8139,-4.8758,-4.95,-5.0308,-5.0406,-5.066,-5.1307,-5.1382,-5.14,-5.1404,-5.1171,-5.0966,-5.086,-5.0334,-4.986,-4.9568,-4.948,-4.9283,-4.8917,-4.9209,-4.9502,-4.9808,-4.9846,-5.0012,-5.0249,-5.0481,-5.021,-4.9513,-4.9243,-4.8847,-4.8436,-4.8292,-4.8421,-4.8674,-4.9067,-4.915,-4.9011,-4.8506,-4.7757,-4.6832,-4.587,-4.4848,-4.4036,-4.4121,-4.4091,-4.4109,-4.4541,-4.4011,-4.3085,-4.2459,-4.1977,-4.137,-4.0059,-3.9433,-3.9057,-3.8667,-3.9271,-3.973,-3.8939,-3.9551,-4.0214,-4.0254,-3.9902,-3.9699,-3.9764,-3.9746,-3.9781,-3.9935,-4.0087,-3.9645,-3.8201,-3.856,-3.832,-3.6558,-3.6891,-3.7143,-3.6891,-3.655,-3.6156,-3.5622,-3.5622,-3.5345,-3.4703,-3.3939,-3.3405,-3.316,-3.2507,-3.2093,-3.1898,-3.1898,-3.1611,-3.1055,-3.0935,-3.0992,-3.6994,-3.7465,-3.7542,-3.6736,-3.7742,-3.8975,-3.9177,-3.9409,-4.0081,-4.1759,-4.2801,-4.3683,-4.4553,-4.5475,-4.6411,-4.7344,-4.75,-4.8066,-4.9686,-4.9971,-5.0334,-5.1196,-5.1302,-5.1302,-5.1304,-5.1352,-5.14,-5.1404,-5.1219,-5.0975,-5.0739,-5.0315,-4.9619,-4.8551,-4.902,-4.892,-4.8095,-4.8673,-4.9233,-4.9784,-4.9993,-5.0272,-5.0663,-5.0623,-5.0233,-4.9549,-4.8805,-4.8416,-4.8292,-4.8181,-4.8439,-4.8978,-4.9132,-4.9118,-4.8945,-4.8547,-4.7757,-4.678,-4.59,-4.4909,-4.4005,-4.3986,-4.4048,-4.4121,-4.4279,-4.3839,-4.3145,-4.2502,-4.1655,-4.0703,-3.9535,-3.8958,-3.8729,-3.9061,-3.9305,-3.9533,-3.9834,-3.9669,-3.9617,-4.0052,-3.9446,-3.9009,-3.9437,-3.9642,-3.9677,-3.9537,-3.9952,-3.9695,-3.8024,-3.847,-3.8312,-3.6658,-3.6829,-3.6908,-3.6568,-3.6574,-3.6308,-3.5667,-3.5622,-3.5284,-3.4523,-3.3795,-3.3085,-3.2415,-3.1647,-3.1275,-3.1258,-3.1258,-3.1241,-3.119,-3.1055,-3.1015,-3.6208,-3.7115,-3.7775,-3.7045,-3.7833,-3.8786,-3.8569,-3.9112,-3.9999,-4.1166,-4.2162,-4.3251,-4.4665,-4.5203,-4.5929,-4.7361,-4.8027,-4.8789,-4.9937,-5.0578,-5.1025,-5.1357,-5.1398,-5.1381,-5.1359,-5.1398,-5.14,-5.1404,-5.1216,-5.103,-5.0829,-5.0524,-4.9794,-4.8575,-4.9221,-4.9089,-4.8021,-4.8587,-4.909,-4.9412,-4.9375,-4.9532,-4.9819,-4.9542,-4.9205,-4.8739,-4.8014,-4.7876,-4.8125,-4.7711,-4.8347,-4.955,-4.9558,-4.9577,-4.9464,-4.8625,-4.8106,-4.7596,-4.6068,-4.5263,-4.4774,-4.4159,-4.3878,-4.3873,-4.4289,-4.3436,-4.2329,-4.2446,-4.1358,-4.0032,-3.9469,-3.899,-3.8652,-3.8594,-3.8933,-3.9256,-3.9207,-3.9517,-3.9849,-3.9935,-3.9563,-3.9272,-3.9451,-3.9484,-3.9484,-3.959,-3.9935,-3.9596,-3.7961,-3.8368,-3.8183,-3.6456,-3.6895,-3.7203,-3.6713,-3.6661,-3.6399,-3.5837,-3.5622,-3.5166,-3.4435,-3.365,-3.2925,-3.2118,-3.1523,-3.1151,-3.1032,-3.1151,-3.119,-3.119,-3.1151,-3.1134,-3.5465,-3.6371,-3.7239,-3.6647,-3.7352,-3.8171,-3.8129,-3.8935,-3.9864,-4.0446,-4.1529,-4.292,-4.4683,-4.4991,-4.5565,-4.7321,-4.8319,-4.916,-5.0015,-5.0852,-5.1396,-5.1394,-5.1394,-5.1398,-5.1402,-5.1396,-5.1396,-5.1404,-5.124,-5.107,-5.0853,-5.059,-4.9863,-4.8575,-4.9278,-4.8999,-4.761,-4.8438,-4.868,-4.8255,-4.8296,-4.8654,-4.9276,-4.9027,-4.8624,-4.8107,-4.7715,-4.7629,-4.7751,-4.7542,-4.8329,-4.9627,-4.9788,-4.9816,-4.974,-4.9003,-4.8568,-4.8106,-4.6499,-4.5723,-4.5277,-4.4302,-4.391,-4.3849,-4.4055,-4.3058,-4.1912,-4.2117,-4.0991,-3.9665,-3.9477,-3.9146,-3.873,-3.8473,-3.878,-3.91,-3.8825,-3.9233,-3.9661,-3.9749,-3.9458,-3.9218,-3.9504,-3.9432,-3.9432,-3.9556,-3.9867,-3.9446,-3.7767,-3.8138,-3.7964,-3.6311,-3.6917,-3.7243,-3.6776,-3.686,-3.6539,-3.5583,-3.5372,-3.4874,-3.3967,-3.3463,-3.2698,-3.1658,-3.1301,-3.1032,-3.0952,-3.1072,-3.1151,-3.119,-3.119,-3.1213,-3.4753,-3.5092,-3.5538,-3.5273,-3.6064,-3.7114,-3.7916,-3.8908,-3.9687,-3.963,-4.1103,-4.2936,-4.4689,-4.5004,-4.5577,-4.7324,-4.8261,-4.9121,-5.0057,-5.0874,-5.1394,-5.1398,-5.1385,-5.1408,-5.1408,-5.1402,-5.1405,-5.1404,-5.1338,-5.1122,-5.0719,-5.0503,-4.979,-4.8456,-4.9055,-4.8515,-4.6732,-4.8141,-4.797,-4.6205,-4.6728,-4.7807,-4.9292,-4.9332,-4.8739,-4.77,-4.7952,-4.767,-4.7062,-4.7747,-4.8384,-4.9043,-4.9655,-4.9816,-4.9692,-4.9692,-4.9077,-4.8101,-4.7203,-4.6289,-4.5387,-4.4475,-4.4248,-4.4168,-4.3517,-4.2781,-4.2059,-4.1494,-4.053,-3.9665,-3.9532,-3.9298,-3.9045,-3.8833,-3.8951,-3.9066,-3.9036,-3.8756,-3.8687,-3.941,-3.8902,-3.867,-3.9543,-3.959,-3.9484,-3.9435,-3.9661,-3.9244,-3.7436,-3.766,-3.7553,-3.6414,-3.6741,-3.6882,-3.6615,-3.7073,-3.6622,-3.4832,-3.4678,-3.4227,-3.3115,-3.3098,-3.2395,-3.0945,-3.0912,-3.0935,-3.1015,-3.1015,-3.1072,-3.119,-3.119,-3.119,-3.5058,-3.5439,-3.5888,-3.5399,-3.6474,-3.7598,-3.7315,-3.8524,-4.007,-4.1309,-4.249,-4.3665,-4.4787,-4.5495,-4.6282,-4.7421,-4.7792,-4.8262,-4.9159,-4.9973,-5.0493,-5.0487,-5.1023,-5.1406,-5.1396,-5.1406,-5.1394,-5.1398,-5.1248,-5.105,-5.0775,-5.0623,-4.9906,-4.8521,-4.8701,-4.8154,-4.6713,-4.7648,-4.7482,-4.6205,-4.7032,-4.7504,-4.7575,-4.7095,-4.6937,-4.7056,-4.6739,-4.6981,-4.7629,-4.8742,-4.9099,-4.8996,-4.9588,-4.9816,-4.9843,-4.9807,-4.9551,-4.9039,-4.7511,-4.6656,-4.6053,-4.4661,-4.4023,-4.3881,-4.4202,-4.3182,-4.1989,-4.2221,-4.1076,-3.9735,-3.9551,-3.9324,-3.9101,-3.8862,-3.8867,-3.9084,-3.9469,-3.9234,-3.9129,-3.9851,-3.9373,-3.8884,-3.9152,-3.9094,-3.9094,-3.9309,-3.9642,-3.9496,-3.8355,-3.7597,-3.6945,-3.626,-3.6741,-3.6939,-3.6409,-3.6799,-3.6694,-3.5889,-3.495,-3.3758,-3.2233,-3.2183,-3.1775,-3.0929,-3.0912,-3.0912,-3.0952,-3.0952,-3.0975,-3.1055,-3.1055,-3.1112,-3.5168,-3.5508,-3.5956,-3.557,-3.6299,-3.7113,-3.706,-3.8403,-4.0072,-4.1535,-4.228,-4.304,-4.4259,-4.4911,-4.5678,-4.6893,-4.7362,-4.7773,-4.83,-4.9099,-4.9738,-5.0066,-5.0565,-5.1019,-5.1366,-5.1401,-5.139,-5.1406,-5.1288,-5.1104,-5.0817,-5.0676,-4.9951,-4.8529,-4.851,-4.7768,-4.6246,-4.6967,-4.6657,-4.5263,-4.6104,-4.6197,-4.5674,-4.5927,-4.6158,-4.639,-4.6641,-4.7114,-4.7813,-4.9099,-4.9346,-4.8915,-4.9518,-4.9759,-4.9816,-4.9778,-4.9721,-4.9445,-4.7961,-4.7086,-4.6408,-4.4997,-4.4233,-4.3924,-4.4097,-4.3139,-4.2027,-4.2153,-4.1043,-3.9739,-3.9551,-3.935,-3.9129,-3.8892,-3.8761,-3.8887,-3.9593,-3.9093,-3.8755,-3.9508,-3.914,-3.8649,-3.8755,-3.8842,-3.8969,-3.9148,-3.8811,-3.8455,-3.8257,-3.6924,-3.6004,-3.5905,-3.6416,-3.6678,-3.6385,-3.6696,-3.6676,-3.6017,-3.4846,-3.3533,-3.201,-3.1807,-3.1416,-3.0749,-3.0733,-3.079,-3.0831,-3.0831,-3.0871,-3.0935,-3.0975,-3.1015,-3.5397,-3.554,-3.5801,-3.582,-3.5875,-3.618,-3.7159,-3.8478,-3.9738,-4.0701,-4.1067,-4.1722,-4.34,-4.3757,-4.4368,-4.6032,-4.695,-4.7479,-4.748,-4.8301,-4.916,-4.9896,-5.0127,-5.0529,-5.1323,-5.1406,-5.139,-5.1394,-5.1381,-5.121,-5.0817,-5.066,-4.9971,-4.8556,-4.839,-4.74,-4.5548,-4.6228,-4.5661,-4.3822,-4.4494,-4.442,-4.38,-4.5404,-4.6031,-4.5864,-4.7143,-4.7696,-4.7773,-4.8959,-4.9246,-4.8934,-4.9382,-4.9617,-4.9692,-4.9692,-4.9663,-4.9461,-4.8389,-4.7423,-4.6495,-4.5273,-4.4619,-4.4139,-4.3521,-4.2824,-4.2166,-4.1661,-4.0701,-3.9758,-3.9575,-3.935,-3.9156,-3.895,-3.8652,-3.8634,-3.9493,-3.8637,-3.7906,-3.869,-3.8472,-3.8146,-3.8334,-3.8722,-3.8969,-3.8969,-3.7588,-3.6828,-3.7599,-3.6006,-3.5013,-3.5532,-3.5854,-3.6156,-3.636,-3.669,-3.6496,-3.5605,-3.4587,-3.3551,-3.2425,-3.1842,-3.1205,-3.0526,-3.0526,-3.0568,-3.0692,-3.0692,-3.0733,-3.0871,-3.0935,-3.0952,-3.725,-3.661,-3.5885,-3.6621,-3.6765,-3.6968,-3.7805,-3.8291,-3.8863,-3.9848,-4.1159,-4.2437,-4.3498,-4.4263,-4.507,-4.6131,-4.6454,-4.6576,-4.6578,-4.7871,-4.8885,-4.9059,-5.0285,-5.1196,-5.138,-5.14,-5.1411,-5.1401,-5.1248,-5.107,-5.0897,-5.0645,-4.9982,-4.8764,-4.7969,-4.6901,-4.5589,-4.5698,-4.5103,-4.3822,-4.4494,-4.4301,-4.3358,-4.3924,-4.4785,-4.5757,-4.6463,-4.7344,-4.8237,-4.8426,-4.8882,-4.9358,-4.8821,-4.905,-4.9692,-4.9692,-4.9663,-4.9367,-4.7851,-4.7046,-4.6321,-4.4109,-4.3633,-4.3856,-4.354,-4.2762,-4.2059,-4.2385,-4.1239,-3.9826,-3.9623,-3.9376,-3.9156,-3.9007,-3.8664,-3.8573,-3.9245,-3.8426,-3.7733,-3.8442,-3.8286,-3.7969,-3.7883,-3.8346,-3.8766,-3.8969,-3.8159,-3.7543,-3.7616,-3.6487,-3.5642,-3.5388,-3.565,-3.5739,-3.5441,-3.5837,-3.6071,-3.5891,-3.4959,-3.4167,-3.3694,-3.2036,-3.0924,-3.0526,-3.0526,-3.051,-3.0526,-3.0526,-3.0609,-3.0733,-3.0773,-3.0814,-3.669,-3.6336,-3.5942,-3.6405,-3.6797,-3.707,-3.7138,-3.7769,-3.8515,-3.9056,-4.0235,-4.1683,-4.3396,-4.4064,-4.4793,-4.6092,-4.6293,-4.63,-4.6301,-4.74,-4.8203,-4.8182,-4.9722,-5.061,-5.0196,-5.0906,-5.1047,-5.0223,-5.082,-5.0962,-5.0305,-5.0487,-4.9836,-4.8201,-4.7598,-4.6552,-4.498,-4.495,-4.4544,-4.3851,-4.4159,-4.3813,-4.2936,-4.3319,-4.4155,-4.5368,-4.6199,-4.7158,-4.8067,-4.8604,-4.9107,-4.9495,-4.9044,-4.9198,-4.9634,-4.9634,-4.9359,-4.8897,-4.8337,-4.726,-4.5935,-4.4822,-4.4161,-4.3823,-4.3984,-4.3032,-4.202,-4.2614,-4.1433,-3.987,-3.9647,-3.9427,-3.921,-3.9007,-3.8664,-3.8569,-3.9168,-3.8135,-3.7213,-3.7757,-3.7393,-3.6995,-3.7045,-3.7497,-3.7984,-3.8226,-3.7166,-3.644,-3.6572,-3.563,-3.4857,-3.4707,-3.4911,-3.4988,-3.4991,-3.5266,-3.5644,-3.6148,-3.5086,-3.4465,-3.4384,-3.2831,-3.1558,-3.0749,-3.0551,-3.0526,-3.0526,-3.0526,-3.0526,-3.0609,-3.0551,-3.0593,-3.5687,-3.5899,-3.612,-3.5932,-3.6376,-3.6714,-3.6096,-3.6994,-3.8057,-3.8417,-3.9178,-4.0533,-4.301,-4.3599,-4.4211,-4.5799,-4.6189,-4.6293,-4.6297,-4.7039,-4.7571,-4.7519,-4.8904,-4.959,-4.8873,-5.009,-5.0346,-4.8909,-5.0134,-5.051,-4.9469,-5.0105,-4.95,-4.7343,-4.7302,-4.6345,-4.4391,-4.4314,-4.4165,-4.3929,-4.3786,-4.3304,-4.2627,-4.2989,-4.3855,-4.5052,-4.6042,-4.7031,-4.7988,-4.8907,-4.9358,-4.949,-4.934,-4.942,-4.9593,-4.9593,-4.9047,-4.8378,-4.8921,-4.7442,-4.5338,-4.5602,-4.4735,-4.3656,-4.4052,-4.3126,-4.202,-4.2552,-4.1393,-3.9954,-3.9712,-3.9477,-3.9245,-3.8979,-3.8664,-3.8532,-3.8971,-3.7727,-3.6631,-3.6895,-3.6306,-3.5874,-3.632,-3.6783,-3.7109,-3.7221,-3.5894,-3.4984,-3.531,-3.4352,-3.3678,-3.3901,-3.402,-3.4202,-3.4592,-3.4752,-3.5128,-3.5924,-3.5074,-3.457,-3.4652,-3.3681,-3.2596,-3.1379,-3.1016,-3.0782,-3.0667,-3.0667,-3.06,-3.0526,-3.041,-3.0368,-3.6512,-3.6785,-3.6696,-3.5989,-3.5895,-3.5944,-3.5854,-3.5987,-3.6586,-3.8166,-3.914,-4.0299,-4.2229,-4.3197,-4.3992,-4.4948,-4.5777,-4.6292,-4.6303,-4.7006,-4.7539,-4.7586,-4.8418,-4.8939,-4.8819,-4.9012,-4.9048,-4.8811,-4.9021,-4.902,-4.8755,-4.9329,-4.8745,-4.6761,-4.7162,-4.6479,-4.457,-4.4401,-4.4177,-4.3974,-4.3563,-4.3105,-4.2609,-4.2376,-4.3404,-4.5412,-4.5472,-4.6911,-4.9188,-4.8602,-4.8814,-4.9415,-4.8664,-4.8833,-4.9521,-4.9521,-4.8976,-4.8243,-4.8326,-4.666,-4.4381,-4.3917,-4.3278,-4.2668,-4.2548,-4.2246,-4.1969,-4.2271,-4.1228,-3.9975,-3.9804,-3.9551,-3.9245,-3.9045,-3.8737,-3.8401,-3.8146,-3.7108,-3.6232,-3.6114,-3.5623,-3.5568,-3.6352,-3.6744,-3.6765,-3.6271,-3.5593,-3.511,-3.4936,-3.3831,-3.3282,-3.3678,-3.3594,-3.3594,-3.3832,-3.3984,-3.4218,-3.4609,-3.4671,-3.4575,-3.4462,-3.3946,-3.3439,-3.2908,-3.2469,-3.1907,-3.1298,-3.1384,-3.1097,-3.0526,-3.0468,-3.0384,-3.5495,-3.5955,-3.6366,-3.654,-3.6224,-3.5981,-3.6472,-3.6181,-3.6312,-3.814,-3.8756,-3.9667,-4.1984,-4.2717,-4.3414,-4.4742,-4.5301,-4.575,-4.6222,-4.7022,-4.7396,-4.6931,-4.8004,-4.8437,-4.7497,-4.8242,-4.8398,-4.7422,-4.8245,-4.8538,-4.7898,-4.8483,-4.8128,-4.659,-4.6667,-4.6025,-4.4542,-4.4373,-4.4165,-4.3865,-4.3444,-4.3013,-4.2609,-4.2187,-4.3096,-4.507,-4.5231,-4.6709,-4.8986,-4.8946,-4.9152,-4.9471,-4.9077,-4.9152,-4.9509,-4.9509,-4.8945,-4.8269,-4.8659,-4.7124,-4.4942,-4.4761,-4.3856,-4.2782,-4.255,-4.2039,-4.1601,-4.1833,-4.1034,-4.0077,-3.9848,-3.9599,-3.9238,-3.8498,-3.8424,-3.8255,-3.7372,-3.6945,-3.6422,-3.5493,-3.5316,-3.5405,-3.5538,-3.5594,-3.5543,-3.5262,-3.4446,-3.3826,-3.359,-3.2952,-3.2602,-3.2742,-3.2672,-3.2711,-3.3033,-3.314,-3.3371,-3.3903,-3.3935,-3.3989,-3.4067,-3.3973,-3.3858,-3.3719,-3.3003,-3.2243,-3.149,-3.1576,-3.1196,-3.0526,-3.0401,-3.0359,-3.4467,-3.5036,-3.5717,-3.6635,-3.6384,-3.6063,-3.6713,-3.6303,-3.6307,-3.8127,-3.8448,-3.9146,-4.162,-4.2244,-4.2825,-4.413,-4.4533,-4.4898,-4.5558,-4.6199,-4.6448,-4.6023,-4.7074,-4.741,-4.6381,-4.7415,-4.7614,-4.6295,-4.7412,-4.7835,-4.7067,-4.7621,-4.743,-4.6282,-4.6191,-4.5658,-4.4542,-4.4373,-4.4135,-4.3804,-4.3428,-4.3013,-4.257,-4.2086,-4.2779,-4.4408,-4.5022,-4.6654,-4.89,-4.9327,-4.949,-4.9521,-4.9509,-4.9509,-4.9509,-4.9509,-4.8945,-4.8258,-4.8815,-4.7317,-4.5185,-4.5217,-4.414,-4.2781,-4.2757,-4.2066,-4.138,-4.1743,-4.1055,-4.0157,-3.9914,-3.9693,-3.9283,-3.8366,-3.8361,-3.82,-3.6879,-3.6763,-3.6457,-3.5035,-3.4972,-3.5065,-3.4599,-3.4478,-3.4435,-3.426,-3.3513,-3.285,-3.2578,-3.2302,-3.2094,-3.1996,-3.194,-3.2094,-3.2453,-3.2492,-3.2749,-3.3235,-3.3266,-3.3371,-3.3649,-3.3799,-3.3882,-3.3933,-3.3368,-3.2743,-3.2139,-3.194,-3.1477,-3.0749,-3.0441,-3.0316,-3.418,-3.4629,-3.4862,-3.5745,-3.5925,-3.5911,-3.5966,-3.5873,-3.6314,-3.8135,-3.8458,-3.8965,-4.0821,-4.1835,-4.2438,-4.2527,-4.3227,-4.3791,-4.3824,-4.3864,-4.4182,-4.4977,-4.5141,-4.5458,-4.6147,-4.6344,-4.6366,-4.6217,-4.6345,-4.6374,-4.6264,-4.6704,-4.6549,-4.5568,-4.5913,-4.5632,-4.4605,-4.4401,-4.4135,-4.3804,-4.3479,-4.3069,-4.257,-4.1984,-4.2331,-4.3537,-4.4747,-4.6925,-4.9544,-4.9521,-4.9551,-4.9593,-4.9521,-4.9509,-4.9509,-4.9509,-4.8902,-4.8109,-4.8147,-4.6445,-4.425,-4.4064,-4.308,-4.2095,-4.2712,-4.2138,-4.1455,-4.2252,-4.1378,-4.0158,-4.0038,-3.9804,-3.9502,-3.9127,-3.8873,-3.83,-3.6988,-3.6522,-3.6011,-3.4864,-3.4497,-3.4249,-3.3809,-3.3985,-3.3975,-3.3451,-3.3262,-3.3023,-3.2475,-3.2038,-3.1841,-3.1996,-3.1898,-3.1898,-3.2053,-3.215,-3.2302,-3.2437,-3.2695,-3.2949,-3.323,-3.323,-3.3298,-3.3439,-3.3802,-3.3876,-3.3488,-3.278,-3.2133,-3.151,-3.0799,-3.0401,-3.2927,-3.3339,-3.3976,-3.4851,-3.5073,-3.5197,-3.572,-3.5816,-3.6307,-3.8127,-3.8478,-3.8994,-4.0769,-4.1364,-4.1757,-4.2304,-4.2667,-4.3066,-4.3619,-4.3704,-4.3807,-4.4075,-4.4139,-4.4264,-4.4508,-4.5106,-4.5209,-4.4571,-4.5601,-4.5982,-4.5401,-4.5797,-4.5896,-4.5507,-4.5341,-4.4987,-4.443,-4.4248,-4.3986,-4.3682,-4.3286,-4.2902,-4.2454,-4.2061,-4.2452,-4.3465,-4.43,-4.5697,-4.7388,-4.7777,-4.8254,-4.8705,-4.8705,-4.8705,-4.872,-4.9202,-4.8865,-4.8152,-4.8078,-4.7062,-4.5581,-4.4315,-4.3557,-4.3035,-4.2593,-4.2518,-4.251,-4.2155,-4.1586,-4.0939,-4.0191,-3.9826,-3.9551,-3.9017,-3.8218,-3.7504,-3.7324,-3.6816,-3.6216,-3.5448,-3.4864,-3.435,-3.385,-3.3572,-3.3309,-3.2773,-3.2573,-3.2296,-3.1981,-3.1582,-3.1424,-3.1524,-3.1424,-3.1424,-3.1524,-3.1567,-3.1682,-3.1796,-3.2023,-3.2206,-3.2318,-3.2563,-3.2873,-3.3282,-3.3282,-3.2867,-3.2096,-3.2154,-3.1531,-3.0259,-2.9983,-2.9826,-3.2089,-3.2441,-3.3099,-3.3955,-3.4159,-3.4378,-3.5206,-3.5393,-3.5903,-3.7698,-3.8061,-3.8505,-3.9994,-4.0231,-4.0525,-4.1425,-4.154,-4.1726,-4.2318,-4.265,-4.2905,-4.3148,-4.3205,-4.3326,-4.359,-4.4172,-4.4298,-4.3655,-4.4958,-4.5523,-4.4929,-4.5412,-4.5602,-4.5337,-4.4919,-4.4578,-4.4344,-4.4218,-4.3986,-4.3612,-4.325,-4.2882,-4.2436,-4.2097,-4.242,-4.3248,-4.3971,-4.4984,-4.6175,-4.6829,-4.74,-4.7859,-4.8171,-4.8085,-4.7932,-4.8977,-4.8834,-4.8084,-4.771,-4.7148,-4.6364,-4.4645,-4.3954,-4.3713,-4.3347,-4.3279,-4.3157,-4.2448,-4.1937,-4.1395,-4.0328,-3.9826,-3.9452,-3.8921,-3.8013,-3.73,-3.7488,-3.7069,-3.6468,-3.5847,-3.5266,-3.4625,-3.3901,-3.3366,-3.2904,-3.2398,-3.2023,-3.1697,-3.1567,-3.1292,-3.1132,-3.1117,-3.1058,-3.1014,-3.1043,-3.1117,-3.1176,-3.1234,-3.1482,-3.1655,-3.1712,-3.1966,-3.2327,-3.2873,-3.2711,-3.2135,-3.1256,-3.182,-3.1598,-3.0665,-3.0092,-2.9694,0.0,0.0,0.0,-3.3035,-3.3233,-3.349,-3.4329,-3.4546,-3.5057,-3.6804,-3.7159,-3.7463,-3.8416,-3.8515,-3.8769,-3.9667,-3.9785,-3.9762,-3.9758,-4.0508,-4.1348,-4.2122,-4.2245,-4.2578,-4.3436,-4.3607,-4.3626,-4.3525,-4.4412,-4.4933,-4.4878,-4.5483,-4.5573,-4.5001,-4.4643,-4.4449,-4.4383,-4.4325,-4.406,-4.3642,-4.332,-4.2939,-4.2534,-4.2019,-4.2176,-4.2843,-4.3761,-4.4928,-4.6224,-4.681,-4.7071,-4.7165,-4.7956,-4.7747,-4.7218,-4.8852,-4.8802,-4.7815,-4.6975,-4.66,-4.6225,-4.4843,-4.4137,-4.4018,-4.4959,-4.4388,-4.3331,-4.3153,-4.2447,-4.1505,-4.0463,-3.9739,-3.9219,-3.8892,-3.8382,-3.7915,-3.7504,-3.7185,-3.6753,-3.5873,-3.5526,-3.5038,-3.3899,-3.3282,-3.2788,-3.2247,-3.1682,-3.1278,-3.1292,-3.119,-3.1014,-3.0821,-3.0762,-3.0702,-3.0568,-3.0702,-3.0821,-3.0821,-3.1102,-3.1336,-3.1495,-3.148,-3.1724,-3.2191,-3.2191,-3.187,-3.1267,-3.1888,-3.2421,-3.287,-3.1182,-3.0034,-3.1077,0.0,0.0,0.0,0.0,0.0,-3.2603,-3.3161,-3.4155,-3.59,-3.6261,-3.671,-3.8173,-3.796,-3.7631,-3.7845,-3.8434,-3.886,-3.8853,-3.9613,-4.0227,-4.04,-4.0974,-4.1448,-4.1626,-4.2278,-4.2417,0.0,-4.313,-4.3974,-4.3961,-4.4362,-4.465,-4.477,-4.403,-4.3886,-4.4383,-4.3708,-4.3155,-4.2765,-4.2425,-4.2068,-4.1683,-4.1914,-4.229,-4.2808,-4.3317,-4.4308,-4.5608,-4.6113,-4.6591,-4.7041,-4.7325,-4.7229,-4.7054,-4.8041,-4.7486,-4.6197,-4.6341,-4.6085,-4.5481,-4.4561,-4.4405,-4.4588,-4.4478,-4.4785,-4.4899,-4.3496,-4.2922,-4.2307,-4.0519,-3.9735,-3.9298,-3.9073,-3.8603,-3.8104,-3.7703,-3.7299,-3.6851,-3.6241,-3.5571,-3.4816,-3.3871,-3.3235,-3.2516,-3.148,-3.1204,-3.1043,-3.094,-3.0821,-3.0702,-3.0642,-3.0507,-3.0447,-3.0387,-3.0568,-3.0702,-3.0762,-3.1102,-3.1292,-3.1234,-3.1509,-3.1894,-3.2342,-3.2247,-3.2376,-3.2745,-3.2055,-3.1239,-3.0208,-2.9401,-2.895,-3.081,-3.0768,-3.075,-3.0742,0.0,0.0,-3.1916,-3.2414,-3.318,-3.4535,-3.4837,-3.5156,-3.6121,-3.6189,-3.6059,-3.6025,-3.6462,-3.7052,-3.7859,-3.8688,-3.9337,-3.9668,-3.9809,-4.012,-4.079,-4.1042,-4.111,-4.0976,-4.2264,-4.3171,-4.346,-4.3562,-4.3655,-4.3782,-4.3139,-4.2975,-4.339,-4.2753,-4.2259,-4.1949,-4.1915,-4.1705,-4.136,-4.1889,-4.242,-4.297,-4.3557,-4.4382,-4.5459,-4.6177,-4.6478,-4.6505,-4.692,-4.658,-4.5993,-4.7043,-4.662,-4.5513,-4.5788,-4.537,-4.4679,-4.4526,-4.4433,-4.445,-4.4762,-4.5329,-4.5589,-4.409,-4.3099,-4.2101,-4.048,-3.9758,-3.9282,-3.8728,-3.8486,-3.8114,-3.7362,-3.7124,-3.6873,-3.6385,-3.5766,-3.5105,-3.4343,-3.3446,-3.2539,-3.1678,-3.1087,-3.0687,-3.0536,-3.0522,-3.0447,-3.0251,-3.0266,-3.0144,-3.0021,-3.0144,-3.0312,-3.0387,-3.0984,-3.1176,-3.0881,-3.1278,-3.1739,-3.2247,-3.1966,-3.2247,-3.3011,-3.2214,-3.1067,-2.9592,-2.9085,-2.8819,-3.0799,-3.0866,-3.0927,-3.0829,-3.0864,0.0,-3.1796,-3.1955,-3.2194,-3.3007,-3.3201,-3.3287,-3.3356,-3.3905,-3.4353,-3.4345,-3.4292,-3.4911,-3.6776,-3.765,-3.8416,-3.9302,-3.8742,-3.8918,-4.0497,-4.0024,-3.9956,-4.082,-4.176,-4.2548,-4.3106,-4.2908,-4.2672,-4.2504,-4.2148,-4.2013,-4.2149,-4.1679,-4.1419,-4.1292,-4.1497,-4.1433,-4.1151,-4.1734,-4.2363,-4.3005,-4.396,-4.4821,-4.557,-4.6618,-4.6572,-4.5923,-4.6711,-4.5977,-4.4701,-4.6053,-4.5998,-4.5252,-4.5249,-4.4665,-4.3976,-4.4589,-4.4298,-4.398,-4.5336,-4.5803,-4.5628,-4.4626,-4.3011,-4.1379,-4.0366,-3.9826,-3.9271,-3.8186,-3.8122,-3.7958,-3.6752,-3.6753,-3.6847,-3.635,-3.5958,-3.5518,-3.4931,-3.3704,-3.2671,-3.2213,-3.1112,-3.0266,-3.0111,-3.0205,-3.0129,-2.9808,-2.996,-2.9927,-2.9602,-2.9713,-2.9808,-2.9808,-3.0732,-3.1043,-3.0568,-3.1102,-3.1567,-3.194,-3.1564,-3.1687,-3.2423,-3.2057,-3.1296,-3.0225,-2.9541,-2.9079,-3.0781,-3.1301,-3.1682,-3.0977,-3.1331,0.0,-3.1168,-3.1058,-3.1292,-3.2167,-3.2344,-3.2531,-3.3126,-3.3362,-3.3444,-3.3382,-3.3316,-3.3905,-3.5735,-3.6123,-3.6541,-3.7424,-3.7977,-3.8674,-3.9666,-3.9654,-3.9937,-4.077,-4.1694,-4.2199,-4.217,-4.202,-4.2119,-4.2498,-4.1614,-4.175,-4.3031,-4.1409,-4.0807,-4.1286,-4.0312,-3.9733,-3.9607,-4.0778,-4.1588,-4.219,-4.3305,-4.4432,-4.5534,-4.5891,-4.6346,-4.6768,-4.6847,-4.6244,-4.5324,-4.5569,-4.5065,-4.4339,-4.4864,-4.4502,-4.3933,-4.447,-4.4323,-4.4054,-4.4663,-4.5082,-4.5049,-4.3728,-4.2533,-4.1379,-4.0425,-3.9914,-3.9392,-3.8315,-3.7803,-3.7405,-3.6726,-3.6345,-3.6103,-3.6002,-3.5616,-3.5008,-3.403,-3.3033,-3.2104,-3.122,-3.064,-3.0266,-3.0111,-3.0111,-3.0036,-2.9808,-2.9822,-2.9775,-2.9602,-2.9602,-2.9713,-2.9808,-3.0569,-3.0822,-3.0387,-3.1437,-3.1966,-3.1739,-3.1601,-3.1427,-3.113,-3.0396,-3.0152,-3.0351,-2.8915,-2.8339,-3.0798,-3.1132,-3.1498,-3.1452,-3.1472,0.0,0.0,-3.0849,-3.0955,-3.1339,-3.1431,-3.1549,-3.1851,-3.2189,-3.2397,-3.2364,-3.2281,-3.2667,-3.4071,-3.4698,-3.5505,-3.6852,-3.6977,-3.7448,-3.8721,-3.8891,-3.9417,-4.071,-4.1296,-4.151,-4.1313,-4.1171,-4.1157,-4.13,-4.0636,-4.0647,-4.1346,-4.0179,-3.9716,-3.9933,-3.9467,-3.9193,-3.9157,-4.0474,-4.1184,-4.141,-4.2537,-4.3707,-4.4912,-4.5217,-4.5709,-4.6296,-4.6195,-4.5569,-4.4743,-4.4668,-4.4313,-4.3939,-4.4195,-4.3775,-4.3207,-4.3813,-4.3912,-4.3888,-4.4454,-4.5012,-4.5153,-4.3586,-4.2739,-4.197,-4.0578,-3.9977,-3.9368,-3.7866,-3.7506,-3.7204,-3.6067,-3.5811,-3.5776,-3.5788,-3.527,-3.4725,-3.4214,-3.3099,-3.2109,-3.1456,-3.071,-3.0097,-2.9851,-2.9913,-2.9898,-2.9713,-2.9761,-2.9761,-2.9602,-2.954,-2.954,-2.9713,-3.0569,-3.0925,-3.0447,-3.1108,-3.1243,-3.08,-3.0846,-3.0928,-3.1092,-2.9873,-2.9462,-2.9756,-2.8728,-2.8268,-3.0548,-3.0837,-3.1288,-3.1914,-3.1601,-3.1132,0.0,0.0,0.0,-3.0746,-3.0751,-3.0765,-3.0664,-3.1062,0.0,-3.1419,0.0,0.0,0.0,-3.3292,0.0,-3.6047,-3.5588,-3.5728,-3.7298,-3.7773,-3.864,-4.0227,-4.0586,-4.0655,-4.0455,-4.0472,-4.0367,-4.0101,-3.9829,-3.9669,-3.9638,-3.9138,-3.8877,-3.8854,-3.8946,-3.8941,-3.8924,-4.0241,-4.0758,-4.0648,-4.1895,-4.3061,-4.4108,-4.4528,-4.4941,-4.5365,-4.5581,-4.4991,-4.4042,-4.4114,-4.4105,-4.4007,-4.3704,-4.3251,-4.2886,-4.3246,-4.3423,-4.365,-4.4326,-4.5016,-4.5278,-4.3854,-4.323,-4.2616,-4.0883,-4.0133,-3.9381,-3.7596,-3.7236,-3.6923,-3.5462,-3.5295,-3.5431,-3.5321,-3.4908,-3.4578,-3.4498,-3.3216,-3.2072,-3.1841,-3.078,-2.9927,-2.9665,-2.9713,-2.9699,-2.9602,-2.9713,-2.9699,-2.9602,-2.9477,-2.9477,-2.9602,-3.051,-3.0852,-3.0379,-3.055,-3.0337,-2.9713,-2.9992,-3.0448,-3.0942,-2.9692,-2.9193,-2.9316,-2.8755,-2.8494,-2.9652,-3.0778,-3.1971,-3.1994,-3.1995,-3.1949,-3.188,0.0,-3.0874,-3.0808,0.0,-3.0801,0.0,0.0,0.0,0.0,0.0,0.0,-3.1763,-3.1965,-3.2378,-3.3409,-3.3437,-3.3746,-3.4646,-3.6241,-3.7633,-3.8594,-3.9393,-3.9749,-3.9549,-4.0092,-4.0279,-4.0022,-3.9743,-3.9877,-4.0464,-3.9349,-3.9142,-3.9748,-3.8637,-3.8111,-3.8097,-3.9419,-3.9939,-3.9828,-4.1758,-4.2828,-4.3251,-4.3734,-4.411,-4.4595,-4.6003,-4.5587,-4.4228,-4.4777,-4.4971,-4.4827,-4.3907,-4.397,-4.4288,-4.3487,-4.3237,-4.3369,-4.4102,-4.4518,-4.4666,-4.4423,-4.3705,-4.275,-4.1628,-4.063,-3.9577,-3.8357,-3.718,-3.6161,-3.5418,-3.4907,-3.4493,-3.4307,-3.4526,-3.4578,-3.3893,-3.2687,-3.1595,-3.1176,-3.0401,-2.9775,-2.9602,-2.9602,-2.9602,-2.9602,-2.9602,-2.9602,-2.9602,-2.9477,-2.9477,-2.9602,-3.0101,-3.0203,-2.9653,-3.0184,-3.0018,-2.9031,-2.994,-3.0068,-2.9358,-2.9217,-2.9391,-2.989,-2.8948,-2.8527,0.0,0.0,0.0,0.0,0.0,0.0,-3.1246,0.0,-3.0888,0.0,0.0,0.0,0.0,0.0,0.0,0.0,-3.0406,0.0,0.0,0.0,-3.1491,-3.2977,0.0,0.0,-3.4152,-3.5049,-3.6157,-3.7533,-3.7972,-3.858,-3.9481,-3.9598,-3.9813,-4.0156,-3.9724,-3.9589,-3.9805,-3.9039,-3.8817,-3.9022,-3.835,-3.7967,-3.7935,-3.8847,-3.9405,-3.9669,-4.079,-4.177,-4.26,-4.2996,-4.3419,-4.392,-4.5382,-4.5438,-4.4753,-4.4957,-4.5038,-4.4989,-4.5049,-4.456,-4.3921,-4.3597,-4.3687,-4.4042,-4.4566,-4.5012,-4.5228,-4.465,-4.3794,-4.2819,-4.1818,-4.0767,-3.9618,-3.829,-3.7062,-3.5974,-3.5114,-3.4231,-3.3658,-3.3929,-3.3975,-3.3892,-3.363,-3.2819,-3.1921,-3.1131,-3.0553,-3.0083,-2.954,-2.954,-2.954,-2.9477,-2.954,-2.9602,-2.9602,-2.9477,-2.9477,-2.9602,-2.9906,-2.9856,-2.9271,-2.9869,-2.963,-2.8484,-2.9427,-2.9715,-2.9321,-2.9106,-2.9248,-2.9812,-2.8983,-2.8559,-2.997,0.0,0.0,0.0,0.0,0.0,0.0,0.0,0.0,0.0,0.0,0.0,0.0,0.0,-3.0453,-3.0492,0.0,-3.0367,0.0,-3.0436,0.0,0.0,0.0,0.0,0.0,-3.3731,-3.4435,-3.5954,-3.6287,-3.7031,-3.8423,-3.8666,-3.9119,-3.9846,-3.9343,-3.91,-3.9156,-3.8545,-3.818,-3.8041,-3.8062,-3.7859,-3.7611,-3.84,-3.9085,-3.9628,-4.0087,-4.1107,-4.2444,-4.2662,-4.3122,-4.3749,-4.4674,-4.5077,-4.5189,-4.5263,-4.5139,-4.4959,-4.5513,-4.469,-4.3358,-4.3431,-4.3772,-4.4218,-4.4652,-4.5141,-4.5486,-4.5021,-4.4013,-4.2922,-4.2141,-4.0978,-3.9719,-3.8495,-3.7147,-3.5884,-3.4994,-3.4014,-3.3328,-3.3617,-3.373,-3.3762,-3.3563,-3.2996,-3.2201,-3.119,-3.0732,-3.0266,-2.9477,-2.954,-2.954,-2.9477,-2.954,-2.9602,-2.9602,-2.9477,-2.9477,-2.9602,-2.9721,-2.9564,-2.9083,-2.9377,-2.9139,-2.8132,-2.9022,-2.941,-2.9259,-2.8998,-2.9155,-2.9653,-2.909,-2.8748,0.0,0.0,0.0,-3.1394,0.0,0.0,0.0,0.0,-3.0484,0.0,0.0,0.0,0.0,-3.0477,-3.0346,-3.0472,-3.0492,0.0,0.0,0.0,0.0,0.0,0.0,0.0,0.0,-3.2046,-3.2444,0.0,-3.4202,-3.499,-3.5688,-3.7128,-3.8185,-3.8728,-3.8407,-3.8495,-3.8998,-3.7893,-3.7265,-3.7144,-3.7878,-3.7675,-3.6802,-3.8114,-3.9011,-3.9628,-4.0087,-4.1362,-4.3051,-4.2941,-4.3437,-4.4255,-4.4104,-4.4562,-4.5366,-4.5856,-4.553,-4.4796,-4.4762,-4.4053,-4.316,-4.2918,-4.3019,-4.3345,-4.4027,-4.4461,-4.4885,-4.5635,-4.452,-4.3057,-4.2831,-4.1398,-3.987,-3.9364,-3.7572,-3.583,-3.5218,-3.4526,-3.3768,-3.3134,-3.401,-3.4626,-3.3848,-3.2996,-3.2104,-3.116,-3.0598,-3.0068,-2.9477,-2.954,-2.9602,-2.9602,-2.9602,-2.9602,-2.9602,-2.9602,-2.9602,-2.9602,-2.9437,-2.9199,-2.8902,-2.8857,-2.8609,-2.811,-2.8955,-2.9152,-2.8732,-2.8832,-2.9079,-2.9518,-2.9243,-2.909,0.0,0.0,-3.0018,-3.0424,0.0,0.0,0.0,0.0,0.0,0.0,0.0,0.0,0.0,-2.9632,-2.9213,-2.9351,-2.8941,-2.8583,0.0,0.0,0.0,0.0,0.0,0.0,0.0,0.0,-3.1518,-3.2439,-3.2786,0.0,-3.4808,-3.5785,-3.6845,-3.7997,-3.7612,-3.7679,-3.8275,-3.7095,-3.6456,-3.6383,-3.7108,-3.7199,-3.6748,-3.7632,-3.8322,-3.8903,-3.9333,-4.0112,-4.1221,-4.2312,-4.2886,-4.3159,-4.3777,-4.4159,-4.4466,-4.5065,-4.5142,-4.4844,-4.4103,-4.3889,-4.3814,-4.3041,-4.2693,-4.2638,-4.3225,-4.329,-4.3472,-4.4804,-4.3778,-4.2395,-4.2769,-4.136,-3.9728,-3.9163,-3.7776,-3.6421,-3.5883,-3.4434,-3.3282,-3.3263,-3.2977,-3.2698,-3.2579,-3.2485,-3.2251,-3.1675,-3.1131,-3.0553,-2.9946,-2.9713,-2.954,-2.9477,-2.954,-2.9602,-2.9602,-2.9602,-2.9602,-2.9602,-2.9468,-2.9244,-2.893,-2.9349,-2.9254,-2.8554,-2.9099,-2.9394,-2.9308,-2.875,-2.8935,-2.9742,-2.9044,-2.8811,-2.9701,-2.9736,0.0,-2.9836,-2.9725,0.0,-2.9703,0.0,-2.9437,0.0,0.0,0.0,0.0,-2.93,-2.8905,-2.8708,-2.8351,-2.8013,0.0,-2.8307,0.0,0.0,0.0,-2.9307,0.0,-2.9868,-3.065,-3.1562,-3.1626,-3.2336,0.0,-3.4662,-3.583,-3.7635,-3.7198,-3.7373,-3.8275,-3.682,-3.62,-3.6401,-3.6867,-3.6961,-3.673,-3.7433,-3.806,-3.8557,-3.8731,-3.9421,-4.0539,-4.1821,-4.254,-4.2904,-4.3693,-4.3942,-4.3976,-4.4607,-4.4867,-4.4739,-4.3739,-4.3616,-4.3796,-4.3043,-4.291,-4.3069,-4.338,-4.334,-4.3453,-4.4594,-4.3459,-4.2029,-4.2431,-4.1199,-3.9668,-3.9082,-3.7936,-3.6765,-3.5936,-3.4526,-3.3386,-3.3172,-3.2563,-3.2188,-3.2443,-3.2289,-3.2025,-3.1616,-3.1315,-3.0837,-3.0176,-2.9775,-2.9477,-2.9477,-2.9415,-2.9415,-2.9415,-2.954,-2.9602,-2.954,-2.9562,-2.9454,-2.9134,-2.955,-2.9522,-2.9042,-2.9241,-2.9426,-2.9552,-2.8889,-2.8998,-2.983,-2.9044,-2.8811]},{"header":{"parameterUnit":"m.s-1","parameterCategory":1,"la1":30.6,"la2":29.2853,"lo1":-89.7004,"lo2":-87.6739,"dy":0.0162,"dx":0.0183,"nx":112,"ny":82,"refTime":"2026-05-23T00:00:00:Z","depth":0,"parameterNumber":3,"parameterNumberName":"V-component_of_WINDS"},"data":[0.0,0.0,0.0,0.0,0.0,0.0,0.0,0.0,0.0,0.0,0.0,0.0,0.0,0.0,0.0,0.0,0.0,0.0,0.0,0.0,0.0,0.0,0.0,0.0,0.0,0.0,0.0,0.0,0.0,0.0,0.0,0.0,0.0,0.0,0.0,0.0,0.0,0.0,0.0,0.0,0.0,0.0,0.0,0.0,0.0,0.0,0.0,0.0,0.0,0.0,0.0,0.0,0.0,0.0,0.0,0.0,0.0,0.0,0.0,0.0,0.0,0.0,0.0,0.0,0.0,0.0,0.0,0.0,0.0,0.0,0.0,0.0,0.0,0.0,0.0,0.0,0.0,0.0,0.0,0.0,0.0,0.0,0.0,0.0,0.0,0.0,0.0,0.0,0.0,0.0,0.7522,0.7576,0.787,0.8036,0.8239,0.7867,0.7232,0.6362,0.0,0.0,0.0,0.0,0.0,0.0,0.0,0.0,0.0,0.0,0.0,0.0,0.0,0.0,0.0,0.0,0.0,0.0,0.0,0.0,0.0,0.0,0.0,0.0,0.0,0.0,0.0,0.0,0.0,0.0,0.0,0.0,0.0,0.0,0.0,0.0,0.0,0.0,0.0,0.0,0.0,0.0,0.0,0.0,0.0,0.0,0.0,0.0,0.0,0.0,0.0,0.0,0.0,0.0,0.0,0.0,0.0,0.0,0.0,0.0,0.0,0.0,0.0,0.0,0.0,0.0,0.0,0.0,0.0,0.0,0.0,0.0,0.0,0.0,0.0,0.0,0.0,0.0,0.0,0.0,0.0,0.0,0.0,0.0,0.0,0.0,0.0,0.0,0.0,0.0,0.0,0.0,0.0,0.0,0.0,0.0,0.0,0.0,0.0,0.0,0.0,0.0,0.0,0.0,0.7911,0.8532,0.8488,0.8524,0.8411,0.8197,0.731,0.5347,0.0,0.0,0.0,0.0,0.0,0.0,0.0,0.0,0.0,0.0,0.0,0.0,0.0,0.0,0.0,0.0,0.0,0.0,0.0,0.0,0.0,0.0,0.0,0.0,0.0,0.0,0.0,0.0,0.0,0.0,0.0,0.0,0.0,0.0,0.0,0.0,0.0,0.0,0.0,0.0,0.0,0.0,0.0,0.0,0.0,0.0,0.0,0.0,0.0,0.0,0.0,0.0,0.0,0.0,0.0,0.0,0.0,0.0,0.0,0.0,0.0,0.0,0.0,0.0,0.0,0.0,0.0,0.0,0.0,0.0,0.0,0.0,0.0,0.0,0.0,0.0,0.0,0.0,0.0,0.0,0.0,0.0,0.0,0.0,0.0,0.0,0.0,0.0,0.0,0.0,0.0,0.0,0.0,0.0,0.0,0.0,0.0,0.0,0.0,0.0,0.0,0.0,0.0,0.7934,0.8539,0.9012,0.9017,0.8979,0.8894,0.8565,0.7769,0.6159,0.4958,0.0,0.0,0.0,0.0,0.0,0.0,0.0,0.0,0.0,0.0,0.0,0.0,0.0,0.0,0.0,0.0,0.0,0.0,0.0,0.0,0.0,0.0,0.0,0.0,0.0,0.0,0.0,0.0,0.0,0.0,0.0,0.0,0.0,0.0,0.0,0.0,0.0,0.0,0.0,0.0,0.0,0.0,0.0,0.0,0.0,0.0,0.0,0.0,0.0,0.0,0.0,0.0,0.0,0.0,0.0,0.0,0.0,0.0,0.0,0.0,0.0,0.0,0.0,0.0,0.0,0.0,0.0,0.0,0.0,0.0,0.0,0.0,0.0,0.0,0.0,0.0,0.0,0.0,0.0,0.0,0.0,0.0,0.0,0.0,0.0,0.0,0.0,0.0,0.0,0.0,0.0,0.0,0.0,0.0,0.0,0.0,0.0,0.0,0.0,0.0,0.0,0.0,0.8436,0.9065,0.9212,0.9371,0.9336,0.9255,0.884,0.8127,0.6922,0.5439,0.0,0.0,0.0,0.0,0.0,0.0,0.0,0.0,0.0,0.0,0.0,0.0,0.0,0.0,0.0,0.0,0.0,0.0,0.0,0.0,0.0,0.0,0.0,0.0,0.0,0.0,0.0,0.0,0.0,0.0,0.0,0.0,0.0,0.0,0.0,0.0,0.0,0.0,0.0,0.0,0.0,0.0,0.0,0.0,0.0,0.0,0.0,0.0,0.0,0.0,0.0,0.0,0.0,0.0,0.0,0.0,0.0,0.0,0.0,0.0,0.0,0.0,0.0,0.0,0.0,0.0,0.0,0.0,0.0,0.0,0.0,0.0,0.0,0.0,0.0,0.0,0.0,0.0,0.0,0.0,0.0,0.0,0.0,0.0,0.0,0.0,0.0,0.0,0.0,0.0,0.0,0.0,0.0,0.0,0.0,0.0,0.0,0.0,0.0,0.0,0.0,0.0,0.8511,0.9154,0.94,0.9549,0.9513,0.9448,0.8867,0.7975,0.6595,0.5287,0.0,0.0,0.0,0.0,0.0,0.0,0.0,0.0,0.0,0.0,0.0,0.0,0.0,0.0,0.0,0.0,0.0,0.0,0.0,0.0,0.0,0.0,0.0,0.0,0.0,0.0,0.0,0.0,0.0,0.0,0.0,0.0,0.0,0.0,0.0,0.0,0.0,0.0,0.0,0.0,0.0,0.0,0.0,0.0,0.0,0.0,0.0,0.0,0.0,0.0,0.0,0.0,0.0,0.0,0.0,0.0,0.0,0.0,0.0,0.0,0.0,0.0,0.0,0.0,0.0,0.0,0.0,0.0,0.0,0.0,0.0,0.0,0.0,0.0,0.0,0.0,0.0,0.0,0.0,0.0,0.0,0.0,0.0,0.0,0.0,0.0,0.0,0.0,0.0,0.0,0.0,0.0,0.0,0.0,0.0,0.0,0.0,0.0,0.0,0.0,0.0,0.0,0.9215,0.9688,0.9966,0.999,1.0036,0.9989,0.9753,0.8839,0.6968,0.0,0.0,0.0,0.0,0.0,0.0,0.0,0.0,0.0,0.0,0.0,0.0,0.0,0.0,0.0,0.0,0.0,0.0,0.0,0.0,0.0,0.0,0.0,0.0,0.0,0.0,0.0,0.0,0.0,0.0,0.0,0.0,0.0,0.0,0.0,0.0,0.0,0.0,0.0,0.0,0.0,0.0,0.0,0.0,0.0,0.0,0.0,0.0,0.0,0.0,0.0,0.0,0.0,0.0,0.0,0.0,0.0,0.0,0.0,0.0,0.0,0.0,0.0,0.0,0.0,0.0,0.0,0.0,0.0,0.0,0.0,0.0,0.0,0.0,0.0,0.0,0.0,0.0,0.0,0.0,0.0,0.0,0.0,0.0,0.0,0.0,0.0,0.0,0.0,0.0,0.0,0.0,0.0,0.0,0.0,0.0,0.0,0.0,0.0,0.0,0.0,0.0,0.8996,0.9652,1.0095,1.0065,1.0124,1.0183,1.007,1.0,0.9202,0.7435,0.0,0.0,0.0,0.0,0.0,0.0,0.0,0.0,0.0,0.0,0.0,0.0,0.0,0.0,0.0,0.0,0.0,0.0,0.0,0.0,0.0,0.0,0.0,0.0,0.0,0.0,0.0,0.0,0.0,0.0,0.0,0.0,0.0,0.0,0.0,0.0,0.0,0.0,0.0,0.0,0.0,0.0,0.0,0.0,0.0,0.0,0.0,0.0,0.0,0.0,0.0,0.0,0.0,0.0,0.0,0.0,0.0,0.0,0.0,0.0,0.0,0.0,0.0,0.0,0.0,0.0,0.0,0.0,0.0,0.0,0.0,0.0,0.0,0.0,0.0,0.0,0.0,0.0,0.0,0.0,0.0,0.0,0.0,0.0,0.0,0.0,0.0,0.0,0.0,0.0,0.0,0.0,0.0,0.0,0.0,0.0,0.0,0.0,0.0,0.0,0.0,0.0,0.883,0.9642,1.012,0.9689,0.9864,0.9864,0.9602,0.9331,0.8769,0.0,0.0,0.0,0.0,0.0,0.0,0.0,0.0,0.0,0.0,0.0,0.0,0.0,0.0,0.0,0.0,0.0,0.0,0.0,0.0,0.0,0.0,0.0,0.0,0.0,0.0,0.0,0.0,0.0,0.0,0.0,0.0,0.0,0.0,0.0,0.0,0.0,0.0,0.0,0.0,0.0,0.0,0.0,0.0,0.0,0.0,0.0,0.0,0.0,0.0,0.0,0.0,0.0,0.0,0.0,0.0,0.0,0.0,0.0,0.0,0.0,0.0,0.0,0.0,0.0,0.0,0.0,0.0,0.0,0.0,0.0,0.0,0.0,0.0,0.0,0.0,0.0,0.0,0.0,0.0,0.0,0.0,0.0,0.0,0.0,0.0,0.0,0.0,0.0,0.0,0.0,0.0,0.0,0.0,0.0,0.0,0.0,0.0,0.0,0.0,0.0,0.0,0.0,0.9757,1.0159,1.0386,1.0569,1.0386,1.0294,1.0381,0.9924,0.9251,0.8286,0.0,0.0,0.0,0.0,0.0,0.0,0.0,0.0,0.0,0.0,0.0,0.0,0.0,0.0,0.0,0.0,0.0,0.0,0.0,0.0,0.0,0.0,0.0,0.0,0.0,0.0,0.0,0.0,0.0,0.0,0.0,0.0,0.0,0.0,0.0,0.0,0.0,0.0,0.0,0.0,0.0,0.0,0.0,0.0,0.0,0.0,0.0,0.0,0.0,0.0,0.0,0.0,0.0,0.0,0.0,0.0,0.0,0.0,0.0,0.0,0.0,0.0,0.0,0.0,0.0,0.0,0.0,0.0,0.0,0.0,0.0,0.0,0.0,0.0,0.0,0.0,0.0,0.0,0.0,0.0,0.0,0.0,0.0,0.0,0.0,0.0,0.0,0.0,0.0,0.0,0.0,0.0,0.0,0.0,0.0,0.0,0.0,0.0,0.0,0.0,0.0,0.0,0.9892,1.0312,1.0646,1.0738,1.0472,1.0294,1.0294,1.012,0.9596,0.8539,0.0,0.0,0.0,0.0,0.0,0.0,0.0,0.0,0.0,0.0,0.0,0.0,0.0,0.0,0.0,0.0,0.0,0.0,0.0,0.0,0.0,0.0,0.0,0.0,0.0,0.0,0.0,0.0,0.0,0.0,0.0,0.0,0.0,0.0,0.0,0.0,0.0,0.0,0.0,0.0,0.0,0.0,0.0,0.0,0.0,0.0,0.0,0.0,0.0,0.0,0.0,0.0,0.0,0.0,0.0,0.0,0.0,0.0,0.0,0.0,0.0,0.0,0.0,0.0,0.0,0.0,0.0,0.0,0.0,0.0,0.0,0.0,0.0,0.0,0.0,0.0,0.0,0.0,0.0,0.0,0.0,0.0,0.0,0.0,0.0,0.0,0.0,0.0,0.0,0.0,0.0,0.0,0.0,0.0,0.0,0.0,0.0,0.0,0.0,0.0,0.0,0.0,0.9546,1.0398,1.0895,1.0467,1.0381,1.012,0.9777,0.9946,0.9705,0.8595,0.0,0.0,0.0,0.0,0.0,0.0,0.0,0.0,0.0,0.0,0.0,0.0,0.0,0.0,0.0,0.0,0.0,0.0,0.0,0.0,0.0,0.0,0.0,0.0,0.0,0.0,0.0,0.0,0.0,0.0,0.0,0.0,0.0,0.0,0.0,0.0,0.0,0.0,0.0,0.0,0.0,0.0,0.0,0.0,0.0,0.0,0.0,0.0,0.0,0.0,0.0,0.0,0.0,0.0,0.0,0.0,0.0,0.0,0.0,0.0,0.7768,0.7851,0.0,0.0,0.0,0.0,0.0,0.0,0.0,0.0,0.0,0.0,0.0,0.0,0.0,0.0,0.0,0.0,0.0,0.0,0.0,0.0,0.0,0.0,0.0,0.0,0.0,0.0,0.0,0.0,0.0,0.0,0.0,0.0,0.0,0.0,0.0,0.0,0.0,0.0,0.0,0.0,0.9938,1.0891,1.1505,1.1435,1.0733,1.0381,1.0467,0.9689,0.9135,0.9143,0.8563,0.0,0.0,0.0,0.0,0.0,0.0,0.0,0.0,0.0,0.0,0.0,0.0,0.0,0.0,0.0,0.0,0.0,0.0,0.0,0.0,0.0,0.0,0.0,0.0,0.0,0.0,0.0,0.0,0.0,0.0,0.0,0.0,0.0,0.0,0.0,0.0,0.0,0.0,0.0,0.0,0.0,0.0,0.0,0.0,0.0,0.0,0.0,0.0,0.0,0.0,0.0,0.0,0.0,0.0,0.0,0.0,0.0,0.0,0.0,0.8732,0.8646,0.0,0.0,0.0,0.0,0.0,0.0,0.0,0.0,0.0,0.0,0.0,0.0,0.0,0.0,0.0,0.0,0.0,0.0,0.0,0.0,0.0,0.0,0.0,0.0,0.0,0.0,0.0,0.0,0.0,0.0,0.0,0.0,0.0,0.0,0.0,0.0,0.0,0.0,0.0,0.0,1.0182,1.084,1.1417,1.1603,1.0899,1.0423,1.0428,0.9897,0.9575,0.9482,0.9035,0.0,0.0,0.0,0.0,0.0,0.0,0.0,0.0,0.0,0.0,0.0,0.0,0.0,0.0,0.0,0.0,0.0,0.0,0.0,0.0,0.0,0.0,0.0,0.0,0.0,0.0,0.0,0.0,0.0,0.0,0.0,0.0,0.0,0.0,0.0,0.0,0.0,0.0,0.0,0.0,0.0,0.0,0.0,0.0,0.0,0.0,0.0,0.0,0.0,0.0,0.0,0.0,0.0,0.7735,0.7887,0.8434,0.8243,0.9055,1.0584,0.9719,0.9694,1.0118,1.0066,0.0,0.0,0.0,0.0,0.0,0.0,0.0,0.0,0.0,0.0,0.0,0.0,0.0,0.0,0.0,0.0,0.0,0.0,0.0,0.0,0.0,0.0,0.0,0.0,1.2494,1.2462,1.148,0.0,0.0,0.0,0.0,0.0,0.0,0.0,0.0,0.0,0.0,0.0,1.0373,1.0842,1.1263,1.1568,1.1014,1.0473,1.0292,1.0299,1.0092,0.9723,0.9451,0.9284,0.0,0.0,0.0,0.0,0.0,0.0,0.0,0.0,0.0,0.0,0.0,0.0,0.0,0.0,0.0,0.0,0.0,0.0,0.0,0.0,0.0,0.0,0.0,0.0,0.0,0.0,0.0,0.0,0.0,0.0,0.0,0.0,1.2643,1.2666,0.0,0.0,0.0,0.0,0.0,0.0,0.0,0.0,0.0,0.0,0.0,0.0,0.0,0.9087,0.9598,0.9418,0.9051,0.8434,0.8974,0.9067,0.8645,0.9507,1.01,1.0252,1.0783,0.0,1.1282,1.1267,0.0,0.0,0.0,0.0,0.0,0.0,0.0,0.0,0.0,0.0,0.0,0.0,0.0,0.0,0.0,0.0,0.0,0.0,0.0,0.0,0.0,0.0,1.2837,1.2837,1.2945,1.3025,0.0,1.2337,1.2038,1.185,1.1505,0.0,0.0,0.0,0.0,0.0,0.0,0.0,1.0599,1.147,1.1947,1.1608,1.1196,1.0847,1.0847,1.0295,1.0007,1.0182,0.9804,0.9579,0.9525,0.9521,0.0,0.0,0.0,0.0,0.0,0.0,0.0,0.0,0.0,0.0,0.0,0.0,0.0,0.0,0.0,0.0,0.0,0.0,0.0,0.0,0.0,0.0,0.0,0.0,0.0,0.0,0.0,0.0,0.0,1.259,1.3142,1.2981,1.3754,1.3829,0.0,0.0,0.0,0.0,0.0,0.0,0.0,0.0,0.0,0.8484,0.8579,0.8893,0.9522,0.9793,0.9511,0.8866,0.9334,0.9387,0.903,0.9486,1.0181,1.1202,1.1519,1.1933,1.2357,1.2082,1.2177,1.2423,0.0,0.0,0.0,0.0,1.263,1.2848,1.3165,1.3427,1.3668,1.3803,0.0,0.0,0.0,0.0,0.0,0.0,0.0,1.3194,0.0,0.0,1.3273,1.3273,1.355,1.3748,1.3539,1.345,1.3051,0.0,1.1384,1.0971,1.1045,0.0,0.0,0.0,0.0,1.0876,1.0816,1.1097,1.1339,1.1563,1.1133,1.0824,1.0824,1.0646,1.0477,1.0452,1.0159,0.9902,0.9868,0.9838,1.0151,0.0,0.0,0.0,0.0,0.0,0.0,0.0,0.0,0.0,0.0,0.0,0.0,0.0,0.0,0.0,0.0,0.0,0.0,0.0,0.0,0.0,0.0,0.0,0.0,0.0,0.0,0.0,0.0,1.3271,1.3192,1.2756,1.3312,1.2965,0.0,0.0,0.0,0.0,0.0,0.0,0.742,0.7629,0.7876,0.8143,0.8404,0.8781,0.9345,0.9956,0.9857,0.9145,0.9626,0.9605,0.9279,0.9452,1.0356,1.1693,1.1949,1.24,1.3067,1.2868,1.2897,1.307,1.2996,1.307,1.3289,1.3444,1.3654,1.3902,1.4285,1.4561,1.4704,1.4993,1.4864,1.4721,1.4864,0.0,0.0,0.0,0.0,1.3547,1.3643,1.3704,1.3763,1.3763,1.4074,1.4388,1.4251,1.4135,1.3769,0.0,1.1772,1.1315,1.1402,0.0,0.0,0.0,1.0719,1.0936,1.1059,1.0959,1.1042,1.1507,1.1201,1.1002,1.09,1.0913,1.0896,1.0769,1.0476,1.0356,1.0304,1.0313,1.0705,1.1595,0.0,0.0,0.0,0.0,0.0,0.0,0.0,0.0,0.0,0.0,0.0,0.0,0.0,0.0,0.0,0.0,0.0,0.0,0.0,0.0,0.0,0.0,0.0,0.0,0.0,0.0,0.0,0.0,0.0,1.2058,1.2188,0.0,0.0,0.0,0.0,0.8747,0.7876,0.7129,0.6523,0.7289,0.7761,0.7567,0.8486,0.9056,0.934,0.9998,0.9994,0.9336,1.0296,1.0108,0.9092,1.0292,1.0822,1.098,1.1693,1.2511,1.3438,1.381,1.3835,1.3796,1.4024,1.4384,1.4734,1.4734,1.4973,1.5296,1.5311,1.5411,1.5429,1.5429,1.5203,1.4864,1.4872,1.4633,0.0,0.0,1.425,1.4034,1.4049,1.4301,1.4538,1.4538,1.4645,1.4809,1.4732,1.4279,1.3902,0.0,1.3474,1.3095,1.2797,0.0,1.1793,1.1456,1.1478,1.1562,1.1596,1.1791,1.1848,1.1623,1.158,1.1492,1.1194,1.1009,1.099,1.1231,1.0653,1.0617,1.1251,1.1058,1.1538,1.2788,1.3022,0.0,0.0,0.0,0.0,0.0,0.0,0.0,0.0,0.0,0.0,0.0,0.0,0.0,0.0,0.0,0.0,0.0,0.0,0.0,0.0,0.0,0.0,0.0,0.0,0.0,0.0,0.0,0.0,1.0438,1.0753,0.0,0.8581,0.8775,0.8497,0.7386,0.6938,0.6593,0.6172,0.6539,0.6777,0.6777,0.7583,0.8441,0.9225,0.9485,0.9587,0.9531,0.9726,0.9498,0.915,0.982,1.0663,1.1677,1.2042,1.2733,1.3652,1.4156,1.4248,1.4118,1.4205,1.4554,1.4995,1.4995,1.5219,1.5613,1.5766,1.5915,1.6045,1.6338,1.6161,1.5867,1.5721,1.5339,1.4919,1.4792,1.4497,1.4328,1.4553,1.47,1.4855,1.5072,1.5312,1.5479,1.5321,1.5328,1.5161,1.4494,1.3605,1.2864,1.2757,1.2367,1.1933,1.1671,1.169,1.1695,1.1651,1.1765,1.1836,1.1848,1.1883,1.178,1.1487,1.1516,1.1457,1.1041,1.1247,1.1232,1.0868,1.1246,1.1889,1.2788,1.3004,1.3571,0.0,0.0,0.0,0.0,0.0,0.0,0.0,0.0,0.0,0.0,0.0,0.0,0.0,0.0,0.0,0.0,0.0,0.0,0.0,0.0,0.0,0.0,0.0,0.0,0.0,0.8907,0.8924,0.8901,0.9264,0.882,0.6915,0.7545,0.7656,0.6543,0.6211,0.6064,0.5911,0.5987,0.6031,0.6031,0.6895,0.7633,0.8425,0.8722,0.8924,0.8931,0.9133,0.9133,0.9031,0.943,1.0303,1.1637,1.1821,1.2537,1.3591,1.3856,1.4111,1.4414,1.4451,1.4867,1.5298,1.5312,1.5607,1.6094,1.6215,1.6329,1.6544,1.6809,1.6747,1.6542,1.6402,1.6068,1.564,1.5511,1.5219,1.498,1.5209,1.5284,1.5425,1.5584,1.5905,1.5994,1.5905,1.6009,1.5914,1.5159,1.4483,1.3721,1.2964,1.2886,1.2761,1.2065,1.1898,1.195,1.2099,1.1941,1.2029,1.215,1.2175,1.2078,1.178,1.1844,1.1723,1.1279,1.1668,1.1778,1.1381,1.183,1.2504,1.3528,1.3978,1.4431,1.4689,0.0,0.0,0.0,0.0,0.0,0.0,0.0,0.0,0.0,0.0,0.0,0.0,0.0,0.0,0.0,0.0,0.0,0.0,0.0,0.0,0.0,0.0,0.0,0.6763,0.7444,0.7663,0.7535,0.7663,0.7184,0.5847,0.6415,0.6658,0.6467,0.582,0.5539,0.5629,0.5639,0.5639,0.5634,0.6339,0.6845,0.6842,0.7836,0.8137,0.7646,0.8638,0.9031,0.8825,0.9327,1.0019,1.0805,1.1091,1.1906,1.3041,1.307,1.3567,1.4462,1.4792,1.522,1.5659,1.5662,1.6071,1.6683,1.6812,1.6847,1.6868,1.6911,1.6944,1.6935,1.6935,1.6767,1.6598,1.6598,1.6294,1.5996,1.6013,1.6108,1.6206,1.6222,1.6314,1.6394,1.6394,1.6245,1.6004,1.5741,1.6171,1.5867,1.343,1.4112,1.4404,1.2721,1.2457,0.0,1.2775,1.2614,1.2416,1.2441,1.2462,1.2262,1.2078,1.1764,1.1775,1.1976,1.1989,1.2218,1.2836,1.2813,1.3534,1.4894,1.5921,1.604,1.51,0.0,0.0,0.0,0.0,0.0,0.0,0.0,0.0,0.0,0.0,0.0,0.0,0.0,0.0,0.0,0.0,0.0,0.0,0.0,0.0,0.0,0.256,0.2725,0.3331,0.3801,0.4375,0.5086,0.5818,0.6367,0.6676,0.6846,0.693,0.7021,0.6356,0.5893,0.5639,0.551,0.5819,0.6731,0.6234,0.6734,0.8524,0.7637,0.754,0.8137,0.8041,0.8336,0.8825,0.8924,0.969,1.0821,1.1109,1.1657,1.2565,1.3344,1.3634,1.3767,1.451,1.5079,1.5462,1.5613,1.6238,1.7041,1.7187,1.7396,1.77,1.7678,1.7543,1.7321,1.7321,1.697,1.6598,1.6598,1.6438,1.6275,1.6312,1.6379,1.6437,1.6532,1.6495,1.6394,1.6394,1.6402,1.6154,1.556,1.653,1.6743,1.4565,1.4376,1.4258,1.3531,1.3333,0.0,1.3335,1.3245,1.308,1.2948,1.2885,1.2756,1.2355,1.2229,1.2304,1.2668,1.3025,1.3345,1.3696,1.4028,1.4416,1.4817,1.5675,1.5869,0.0,0.0,0.0,0.0,0.0,0.0,0.0,0.0,0.0,0.0,0.0,0.0,0.0,0.0,0.0,0.0,0.0,0.0,0.0,0.0,0.0,0.0,0.1794,0.1553,0.1485,0.2063,0.3025,0.4304,0.5363,0.6217,0.6669,0.6961,0.7036,0.6955,0.6374,0.5928,0.5807,0.5458,0.5786,0.6986,0.6174,0.6586,0.8418,0.7354,0.7226,0.8026,0.7672,0.7942,0.8627,0.8726,0.932,1.0314,1.0605,1.122,1.205,1.2808,1.3153,0.0,0.0,0.0,0.0,0.0,1.639,1.6936,1.7261,1.7554,1.7797,1.7959,1.7886,1.7706,1.7706,1.7473,1.7225,1.7225,1.6983,1.6797,1.6861,1.6758,1.6565,1.6683,1.6648,1.6566,1.6566,1.6566,1.6402,1.5824,1.6584,0.0,1.5156,1.5073,1.492,1.3995,1.3755,1.3642,1.3642,1.3539,1.3443,1.3244,1.3211,1.2947,1.2614,1.2363,0.0,0.0,0.0,1.4058,1.4786,1.5292,0.0,0.0,0.0,0.0,0.0,0.0,0.0,0.0,1.4057,1.3843,0.0,0.0,0.0,0.0,0.0,0.0,0.0,0.0,0.0,0.0,0.0,0.0,0.0,0.0,0.0,0.0,0.1359,0.089,0.0806,0.1713,0.2901,0.4526,0.5666,0.6339,0.6241,0.6804,0.6991,0.668,0.5993,0.5792,0.6087,0.5494,0.0,0.0,0.0,0.6482,0.7323,0.7096,0.7138,0.734,0.751,0.7839,0.8333,0.8627,0.9027,0.9529,0.9821,1.0511,1.1473,1.1748,1.2409,1.3351,1.4262,1.486,1.5166,1.6072,1.6451,1.6557,1.7195,0.0,0.0,1.7878,1.7959,1.804,1.7951,1.7959,1.804,1.7951,1.7716,1.7392,1.74,1.7066,1.6738,1.6738,1.673,1.6738,1.673,1.673,1.6574,1.6252,1.6477,1.6372,1.5282,1.5847,1.5879,1.4222,1.3951,1.3931,1.3931,1.3709,1.3494,1.3494,0.0,0.0,1.277,1.2298,1.2272,1.2851,1.3579,1.4572,1.5805,1.6358,1.6337,1.5864,1.6523,1.6478,1.5623,1.569,1.5503,1.4927,1.4751,1.4458,0.0,0.0,0.0,0.0,0.0,0.0,0.0,0.0,0.0,0.0,0.0,0.0,0.0,0.0,0.0,0.1452,0.0694,0.0302,0.0707,0.1512,0.2712,0.46,0.5347,0.6116,0.7162,0.7211,0.703,0.6807,0.6318,0.5945,0.5773,0.5728,0.6203,0.6947,0.6529,0.6793,0.7734,0.709,0.6827,0.7035,0.0,0.0,0.8038,0.8333,0.873,0.9335,0.9529,1.0019,1.0703,1.1638,1.2756,1.4031,1.4317,1.4709,1.5173,1.5922,1.6281,1.6472,1.6952,1.7375,1.7619,1.77,1.787,1.7951,1.7781,1.787,0.0,1.7781,1.77,1.7619,1.7473,1.7221,1.7057,1.7057,1.6894,1.673,1.6976,1.6812,1.6656,1.6574,1.6908,1.6809,1.5317,1.5307,1.5266,1.457,1.4325,1.4202,1.4202,1.4022,1.3702,1.3508,1.3146,1.2785,1.2476,1.2562,1.2936,1.3803,1.514,1.5801,1.5471,1.6238,1.6742,1.683,1.6839,1.6671,1.6388,1.6178,1.5802,1.5363,1.5005,1.4688,0.0,0.0,0.0,0.0,0.0,0.0,0.0,0.0,0.0,0.0,0.0,0.2231,0.1676,0.0,0.1828,0.1288,0.0803,0.0707,0.101,0.1613,0.2718,0.4624,0.5485,0.6369,0.7335,0.7141,0.6968,0.6937,0.6489,0.621,0.6411,0.6105,0.6373,0.7211,0.6746,0.6912,0.7942,0.7281,0.7086,0.7339,0.7508,0.7607,0.7842,0.8237,0.863,0.9031,0.9331,0.9723,1.0314,1.1389,1.2422,1.3508,1.3969,1.4588,1.5403,1.5911,1.63,1.6476,1.6812,1.7139,1.7456,1.761,1.7781,1.787,1.77,1.7861,1.7951,1.7781,1.7619,1.7546,1.7392,1.7147,1.6894,1.6894,1.6812,1.673,1.6894,1.6812,1.6648,1.6566,1.6899,1.6766,1.5641,1.5655,1.5484,1.4446,1.4115,1.4099,1.4099,1.3876,1.3614,1.3522,1.32,1.2866,1.2597,1.294,1.3357,1.3834,1.5231,1.5989,1.5741,1.6484,1.6732,1.6484,1.6929,1.6798,1.6171,1.6226,1.5939,1.5355,1.5221,1.5007,0.0,0.0,0.0,0.0,0.0,0.0,0.0,0.2051,0.1762,0.1536,0.1563,0.141,0.0585,0.0982,0.1285,0.0907,0.101,0.1111,0.1212,0.1716,0.272,0.4524,0.5632,0.6445,0.7074,0.6956,0.6908,0.7064,0.6641,0.6562,0.7072,0.6577,0.6526,0.705,0.6748,0.7035,0.7712,0.7586,0.7469,0.7578,0.7755,0.782,0.7688,0.8113,0.8507,0.8774,0.918,0.9557,1.0117,1.1096,1.1971,1.2764,1.3508,1.45,1.5552,1.6009,1.6329,1.6581,1.6692,1.6916,1.7229,1.7563,1.77,1.77,1.77,1.7861,1.7951,1.7781,1.7546,1.7392,1.7392,1.7066,1.673,1.6738,1.673,1.673,1.6738,1.6812,1.673,1.6558,1.6841,1.68,1.5959,1.6191,1.5845,1.4415,1.4043,1.4031,1.3993,1.3634,1.3441,1.3441,1.3117,1.2998,1.2973,1.3446,1.373,1.3795,1.4977,1.5741,1.5831,1.6484,1.6684,1.6173,1.688,1.6859,1.6038,1.6193,1.6046,1.5455,1.5459,1.5221,0.3354,0.2155,0.0561,0.115,0.0333,-0.0426,0.0,0.0271,0.0271,0.047,0.0379,0.0096,-0.0489,0.0,0.0395,-0.0101,0.0202,0.0707,0.1415,0.1817,0.2621,0.4228,0.5133,0.6078,0.6901,0.6911,0.6943,0.718,0.7099,0.6941,0.6744,0.695,0.6698,0.5764,0.6711,0.7037,0.6495,0.7365,0.7726,0.739,0.7581,0.7761,0.783,0.7959,0.826,0.8747,0.945,0.9967,1.0413,1.0998,1.1863,1.2813,1.3578,1.444,1.5349,1.5892,1.647,1.7006,1.6877,1.7191,1.7562,1.7499,1.7546,1.77,1.77,1.7861,1.7951,1.7781,1.7546,1.7392,1.7392,1.7066,1.673,1.6976,1.6894,1.6738,1.6976,1.7057,1.7049,1.7049,1.7258,1.7235,1.6246,1.6395,1.6299,1.5337,1.4702,1.4364,1.4254,1.3568,1.3163,1.3163,1.2766,1.2783,1.3534,1.3665,1.3899,1.4307,1.5228,1.5484,1.4901,1.5748,1.6476,1.7001,1.6525,1.664,1.726,1.6454,1.6108,1.6276,1.5576,1.5133,0.458,0.3157,0.143,0.1615,0.0348,-0.0808,-0.028,-0.0281,-0.0282,0.0293,0.0197,0.0,-0.01,0.02,0.04,0.0504,0.0808,0.1212,0.1516,0.2141,0.287,0.3685,0.491,0.5824,0.6318,0.6943,0.7235,0.7206,0.8177,0.8364,0.736,0.8017,0.7694,0.5974,0.65,0.6829,0.6947,0.7515,0.7813,0.7957,0.8113,0.8117,0.7978,0.8246,0.8452,0.8809,0.9422,0.9738,1.0067,1.0748,1.1389,1.217,1.2948,1.3849,1.4854,1.5769,1.6439,1.6881,1.6998,1.7079,1.7231,1.7597,1.7647,1.7546,1.77,1.7861,1.7951,1.7627,1.7473,1.7392,1.7229,1.7057,1.6894,1.6894,1.6976,1.7066,1.6894,1.7057,1.7221,1.7139,1.7432,1.7562,1.6778,1.7059,1.7094,1.6184,1.5028,1.4199,1.3879,1.3291,1.288,1.288,1.2685,1.279,1.3222,1.3652,1.4075,1.4398,1.5075,1.5416,1.5082,1.5756,1.6252,1.6492,1.6668,1.6708,1.6602,1.6447,1.6153,1.5724,1.5572,1.5434,0.5656,0.4095,0.2519,0.2164,0.0539,-0.0842,-0.057,-0.067,-0.068,-0.0101,0.0,-0.0102,0.0102,0.0305,0.0406,0.0606,0.1217,0.1628,0.1425,0.2367,0.3222,0.365,0.4981,0.5867,0.5691,0.6642,0.7253,0.7314,0.8421,0.8748,0.7756,0.832,0.7849,0.6157,0.6338,0.6648,0.7194,0.7541,0.7889,0.8339,0.8553,0.8477,0.8233,0.8441,0.8758,0.9071,0.9365,0.9697,0.9941,1.0571,1.1086,1.1673,1.2396,1.3238,1.4172,1.5297,1.6106,1.672,1.6973,1.6961,1.7094,1.7608,1.7587,1.7458,1.7696,1.7865,1.787,1.7473,1.7392,1.731,1.7139,1.7139,1.7049,1.673,1.6984,1.7229,1.6812,1.7066,1.7392,1.7221,1.7516,1.7697,1.727,1.7441,1.7371,1.653,1.5241,1.4243,1.3879,1.3213,1.279,1.2705,1.279,1.296,1.3307,1.3906,1.4412,1.4657,1.5166,1.5431,1.5431,1.5763,1.6004,1.617,1.6566,1.6645,1.6374,1.6478,1.618,1.5566,1.5669,1.5655,0.6265,0.4316,0.2748,0.1737,0.0091,-0.1334,-0.1144,-0.1064,-0.1091,-0.0927,-0.0623,-0.0415,-0.0414,0.0,0.0103,-0.0607,0.0819,0.1761,0.1036,0.2281,0.3653,0.4561,0.5645,0.5997,0.507,0.6108,0.6952,0.72,0.7217,0.7309,0.7536,0.7105,0.6572,0.6054,0.6268,0.6427,0.6653,0.7538,0.8152,0.8478,0.8478,0.8517,0.8703,0.8703,0.9022,0.9444,0.9548,0.9777,1.0136,1.0578,1.1006,1.1587,1.2165,1.2845,1.3613,1.4484,1.552,1.6605,1.6755,1.701,1.7236,1.7347,1.7431,1.7568,1.7836,1.7829,1.77,1.7473,1.7229,1.7139,1.7139,1.7139,1.7049,1.673,1.6894,1.7049,1.673,1.7066,1.7392,1.7392,1.7554,1.7635,1.7392,1.7237,1.691,1.6185,1.5521,1.4951,1.4802,1.3814,1.2966,1.2705,1.3137,1.3568,1.4004,1.4405,1.4908,1.5347,1.5431,1.5431,1.5431,1.5431,1.5756,1.6394,1.6245,1.6566,1.7359,1.6657,1.637,1.6548,1.5833,1.5576,0.7233,0.4751,0.2322,0.1081,-0.0464,-0.1625,-0.1452,-0.1659,-0.1686,-0.1031,-0.1233,-0.1227,-0.0518,-0.0411,-0.0204,0.0205,0.1034,0.1667,0.2003,0.2454,0.3017,0.3576,0.4631,0.4933,0.4079,0.7326,0.863,0.6477,0.9173,0.989,0.7437,0.7986,0.7675,0.6278,0.6022,0.6072,0.6544,0.7205,0.7709,0.8156,0.8602,0.8799,0.8862,0.8862,0.8972,0.9071,0.9183,0.9426,0.9777,1.0223,1.0712,1.1295,1.1875,1.2467,1.3141,1.4106,1.4777,1.5432,1.6369,1.6749,1.701,1.7348,1.728,1.7162,1.75,1.7499,1.7294,1.7221,1.7139,1.7057,1.6894,1.7057,1.7229,1.682,1.7221,1.7546,1.6812,1.7491,1.8002,1.7523,1.791,1.8158,1.7669,1.7627,1.7294,1.6229,1.5235,1.4439,1.3775,1.3698,1.3639,1.3392,1.3808,1.4237,1.4755,1.4741,1.4908,1.5347,1.5431,1.5431,1.5431,1.5499,1.5824,1.6162,1.6036,1.6038,1.6266,1.6027,1.5815,1.564,1.5694,1.5726,0.6951,0.4682,0.2103,0.0738,-0.0569,-0.1461,-0.1371,-0.1873,-0.2199,-0.1547,-0.1644,-0.1431,-0.0207,-0.0103,0.0,0.0725,0.1148,0.1476,0.1824,0.2063,0.2522,0.3198,0.3947,0.4148,0.3386,0.7265,0.8676,0.5758,0.8632,0.9371,0.6864,0.7523,0.7419,0.6229,0.5861,0.6002,0.6327,0.7529,0.8475,0.914,0.8933,0.894,0.9051,0.894,0.894,0.9044,0.9268,0.9435,0.9626,1.0136,1.0604,1.1087,1.1505,1.2078,1.2662,1.3528,1.4106,1.4586,1.5825,1.6542,1.6834,1.7202,1.7122,1.7009,1.7258,1.7096,1.6886,1.6886,1.6886,1.6886,1.6812,1.7237,1.7466,1.709,1.7573,1.7876,1.709,1.7755,1.832,1.7621,1.8085,1.8385,1.7759,1.7619,1.7131,1.6057,1.5144,1.4321,1.3398,1.3808,1.4146,1.3899,1.4146,1.4482,1.4824,1.4657,1.4664,1.5082,1.5166,1.5257,1.5431,1.5575,1.5824,1.6087,1.6002,1.5873,1.5864,1.5764,1.5552,1.5394,1.5564,1.5655,0.5551,0.3976,0.208,0.0744,-0.0193,-0.0802,-0.1085,-0.1794,-0.2332,-0.2377,-0.1761,-0.0828,0.0518,0.0829,0.0829,0.083,0.1159,0.118,0.0655,0.1204,0.2202,0.3357,0.3644,0.3606,0.3062,0.5868,0.6902,0.5018,0.577,0.6218,0.5995,0.6024,0.5908,0.568,0.5902,0.6122,0.6013,0.8507,1.0218,1.0887,0.9588,0.9158,0.9379,0.9047,0.9051,0.9379,0.9596,0.9816,0.979,1.0318,1.0685,1.0944,1.1169,1.1502,1.2078,1.2856,1.3431,1.4094,1.535,1.6109,1.6581,1.6885,1.7007,1.6999,1.7072,1.6769,1.6402,1.6417,1.6425,1.659,1.7,1.7581,1.7913,1.7482,1.7829,1.8062,1.7548,1.7863,1.8179,1.7775,1.815,1.8368,1.7865,1.7147,1.6409,1.5582,1.5249,1.4748,1.3822,1.4146,1.4398,1.4139,1.4307,1.4482,1.4482,1.4243,1.4243,1.465,1.465,1.4908,1.5347,1.5575,1.5824,1.6087,1.5986,1.6039,1.6174,1.5853,1.5651,1.5643,1.5513,1.5505,0.4467,0.3044,0.1283,0.0282,-0.0191,-0.0487,-0.0598,-0.1107,-0.1421,-0.1034,-0.0616,-0.0102,0.062,0.114,0.1353,0.1159,0.1717,0.2077,0.1557,0.1672,0.2009,0.2466,0.2568,0.256,0.2451,0.4068,0.4817,0.398,0.6288,0.7324,0.611,0.5943,0.587,0.5784,0.5897,0.5786,0.5569,0.8109,0.923,0.8813,1.0017,1.0025,0.9051,0.8937,0.8937,0.9047,0.9047,0.9375,0.9798,1.0015,1.0375,1.0962,1.1332,1.1633,1.2078,1.2662,1.3335,1.4004,1.4682,1.554,1.6386,1.6588,1.6627,1.6551,1.6727,1.6528,1.6299,1.6622,1.6959,1.7135,1.7371,1.7603,1.767,1.7482,1.7548,1.7589,1.7416,1.8062,1.849,1.7826,1.7946,1.8237,1.8326,1.731,1.6397,1.6308,1.5303,1.4405,1.4082,1.4657,1.5068,1.4908,1.5068,1.5144,1.5144,1.4475,1.4146,1.4223,1.4566,1.4734,1.4908,1.5733,1.6229,1.6319,1.6055,1.5979,1.6049,1.5413,1.5065,1.5145,1.5254,1.5275,0.3186,0.2068,0.0458,0.0,-0.0572,-0.0961,-0.1188,-0.1396,-0.1303,-0.0816,0.0101,0.0914,0.1668,0.1771,0.1777,0.1499,0.1194,0.11,0.1007,0.0673,0.0785,0.1683,0.1569,0.1569,0.1795,0.2981,0.3632,0.3358,0.5608,0.6443,0.5408,0.5682,0.571,0.5601,0.6047,0.6485,0.7141,0.7799,0.8462,0.9023,0.9684,0.9585,0.894,0.894,0.894,0.894,0.9158,0.9485,0.9801,1.0178,1.058,1.1089,1.1429,1.1744,1.2216,1.2607,1.3147,1.3817,1.4298,1.5153,1.5913,1.6487,1.6536,1.6497,1.6676,1.6488,1.6255,1.6615,1.7008,1.7347,1.7676,1.7875,1.7992,1.7805,1.7796,1.7754,1.7588,1.8297,1.888,1.8447,1.8454,1.8462,1.833,1.7497,1.6766,1.6615,1.5522,1.4713,1.4774,1.5245,1.5401,1.4992,1.5235,1.5228,1.4894,1.4139,1.3724,1.3808,1.4314,1.465,1.4734,1.5899,1.6476,1.6394,1.6204,1.6158,1.6149,1.5503,1.515,1.515,1.5284,1.5355,0.1872,0.1271,0.0093,-0.0379,-0.0951,-0.1623,-0.2139,-0.1957,-0.1476,-0.0899,0.0703,0.2235,0.3145,0.2821,0.241,0.2163,0.0872,0.0,0.0224,-0.0448,-0.0336,0.1009,0.0673,0.0561,0.1234,0.2322,0.2978,0.3134,0.4311,0.4964,0.4589,0.5262,0.5601,0.5493,0.6158,0.7257,0.8889,0.7695,0.7919,0.9779,0.9023,0.8706,0.8826,0.8826,0.8826,0.8937,0.9485,0.9801,0.9771,1.0521,1.0975,1.1323,1.1392,1.1841,1.2299,1.2655,1.3055,1.3539,1.4106,1.4777,1.5534,1.6298,1.6572,1.6591,1.6857,1.6581,1.6342,1.6612,1.7025,1.7496,1.7968,1.8308,1.8526,1.8372,1.8271,1.8171,1.7784,1.8505,1.9127,1.923,1.917,1.8829,1.8112,1.7484,1.7014,1.6553,1.5705,1.5197,1.5519,1.5613,1.5423,1.4881,1.509,1.4977,1.4223,1.3555,1.3222,1.3392,1.4062,1.4482,1.465,1.5982,1.6648,1.6476,1.6361,1.631,1.631,1.5721,1.5497,1.5505,1.5497,1.5576,0.1189,0.1093,0.0637,-0.0472,-0.0942,-0.1309,-0.181,-0.1065,-0.0196,0.0197,0.219,0.4033,0.4459,0.4619,0.4692,0.4466,0.4106,0.3294,0.1676,0.1344,0.1008,0.0336,-0.0112,0.0112,0.0897,0.2012,0.2903,0.3137,0.4023,0.4689,0.4817,0.4929,0.5377,0.6163,0.5828,0.6156,0.7152,0.802,0.8131,0.7374,0.8796,0.9023,0.8156,0.8156,0.838,0.894,0.9268,0.0,0.9615,1.0163,1.0688,1.1037,1.1272,1.1763,1.2299,1.2655,1.3055,1.3636,1.44,1.4885,1.5267,1.6008,1.6371,1.6591,1.6857,1.6765,1.6619,1.7255,1.7738,1.8205,1.8666,1.8877,1.8841,1.8591,1.8255,1.7996,1.7955,1.8382,1.8879,1.9521,1.9127,1.86,1.8239,1.7275,1.6414,1.6189,1.536,1.4853,1.5254,1.5191,1.5274,1.5447,1.4888,1.4475,1.4391,1.3724,1.3392,1.3398,1.4153,1.465,1.4734,1.6229,1.6968,1.6968,1.6665,1.6522,1.6522,1.5705,1.5346,1.5505,1.5355,1.5417,0.181,0.1082,0.0181,-0.0652,-0.1109,-0.1469,-0.1609,-0.0575,0.0582,0.1386,0.34,0.5161,0.5464,0.5629,0.5485,0.5149,0.437,0.3425,0.1766,0.1225,0.0782,0.0554,0.0446,0.0672,0.1121,0.224,0.2687,0.2017,0.2912,0.392,0.4704,0.5043,0.538,0.6047,0.5605,0.5714,0.6495,0.7149,0.7371,0.6935,0.8146,0.8478,0.8266,0.8266,0.8491,0.894,0.9268,0.9552,0.9701,1.0218,1.0808,1.1389,1.1604,1.2062,1.2466,1.2642,1.3068,1.3539,1.3919,1.4502,1.5083,1.5153,1.5536,1.6085,1.6743,1.6777,1.6625,1.7394,1.788,1.8311,1.8838,1.8737,1.8493,1.8676,1.8255,1.8028,1.8496,1.8768,1.9059,1.9632,1.9598,1.9228,1.8498,1.7664,1.7016,1.6397,1.5613,1.5254,1.5727,1.5284,1.4944,1.5175,1.493,1.4573,1.4068,1.373,1.3476,1.3398,1.4321,1.4992,1.5068,1.655,1.7456,1.7546,1.7132,1.6977,1.7061,1.6148,1.578,1.5921,1.5842,1.5912,0.2496,0.1162,-0.027,-0.0732,-0.1271,-0.1631,-0.1503,-0.0285,0.1057,0.2385,0.4329,0.5916,0.6375,0.6335,0.6073,0.5616,0.4616,0.3324,0.1974,0.1331,0.0892,0.066,0.1111,0.1344,0.1121,0.2239,0.2463,0.1457,0.2465,0.3473,0.4479,0.5043,0.5603,0.5935,0.5603,0.5717,0.6386,0.6274,0.6495,0.7046,0.7271,0.7604,0.8263,0.8263,0.8488,0.8933,0.9702,1.001,0.9874,1.0781,1.1324,1.1494,1.188,1.2216,1.2515,1.2703,1.3068,1.3539,1.3636,1.431,1.4987,1.4496,1.4771,1.5534,1.6298,1.645,1.6562,1.7288,1.7838,1.8335,1.8945,1.8597,1.8186,1.8573,1.8255,1.8167,1.9025,1.9239,1.941,1.9787,2.0035,1.9779,1.8667,1.8148,1.7548,1.6592,1.5973,1.5801,1.6206,1.5483,1.493,1.5002,1.493,1.458,1.3906,1.3822,1.3737,1.3568,1.458,1.5242,1.556,1.6952,1.7781,1.8121,1.7527,1.7362,1.7521,1.6589,1.6202,1.6342,1.6342,1.6412,0.2498,0.1342,0.0359,-0.0809,-0.1257,-0.1443,-0.129,0.0,0.1531,0.2442,0.4736,0.668,0.6693,0.7164,0.7428,0.702,0.659,0.549,0.3228,0.3574,0.3017,0.0112,0.0895,0.1456,0.0561,0.1568,0.2464,0.2913,0.3808,0.4369,0.448,0.5043,0.5717,0.6274,0.5717,0.5826,0.6604,0.6383,0.6274,0.6386,0.6386,0.6715,0.7376,0.7595,0.8146,0.9034,1.1219,1.1341,0.0,1.1909,1.1995,1.0992,1.1505,1.1901,1.2304,1.2894,1.3259,1.3539,1.401,1.4592,1.4987,1.4496,1.4771,1.5337,1.5045,1.5591,1.6521,1.6901,1.7568,1.8392,1.9266,1.8985,1.8435,1.8398,1.843,1.8656,1.9076,1.9444,1.9804,2.0172,2.0001,1.9394,1.8357,1.8014,1.7419,1.5997,1.6193,1.6405,1.595,1.5727,1.5533,1.5562,1.4689,1.425,1.4314,1.4159,1.4088,1.4004,1.4908,1.556,1.6057,1.7123,1.7942,1.8353,1.7758,1.7446,1.7521,1.666,1.6403,1.6533,1.6412,1.6491,0.428,0.2084,0.0,-0.0345,-0.1046,-0.1416,-0.0451,0.0929,0.2387,0.3605,0.5741,0.7425,0.7474,0.7613,0.753,0.6893,0.6085,0.4947,0.3358,0.3145,0.2505,0.1102,0.1765,0.1772,0.056,0.1008,0.1344,0.1009,0.2128,0.3469,0.4695,0.4927,0.5268,0.5717,0.5493,0.5603,0.6156,0.6272,0.6386,0.6495,0.6495,0.6826,0.7493,0.7376,0.7928,0.892,0.9904,1.0202,0.0,1.0983,1.1302,1.135,1.1562,1.187,1.2402,1.2695,1.3073,1.3543,1.3779,1.4304,1.4694,1.3727,1.3811,1.4286,1.4382,1.4874,1.5457,1.6048,1.6621,1.7311,1.8049,1.8213,1.8296,1.8439,1.8505,1.8759,1.9384,1.9453,1.9581,2.0172,1.9992,1.9516,1.8996,1.8654,1.8184,1.7528,1.704,1.6823,1.685,1.611,1.5648,1.5741,1.5021,1.4489,1.4566,1.4489,1.4412,1.4321,1.5068,1.5891,1.646,1.7367,1.8169,1.8737,1.8185,1.7777,1.7679,1.7104,1.6821,1.676,1.6978,1.7047,0.5907,0.3192,0.0514,0.0855,0.0087,-0.0352,0.099,0.2223,0.3528,0.4869,0.6645,0.8041,0.7896,0.7833,0.7518,0.6529,0.5499,0.4468,0.3424,0.2785,0.2369,0.218,0.2413,0.2207,0.1001,0.1118,0.0896,0.0112,0.1679,0.3353,0.491,0.5586,0.604,0.6047,0.6047,0.5935,0.5822,0.6161,0.6383,0.6379,0.6492,0.6826,0.7385,0.7376,0.7928,0.892,1.0006,1.0453,0.0,1.1442,1.1664,1.1459,1.1678,1.1953,1.2341,1.2496,1.2967,1.3374,1.3499,1.4016,1.4496,1.3147,1.3238,1.3811,1.3619,1.3998,1.4567,1.5324,1.6033,1.6706,1.7106,1.7699,1.8365,1.8591,1.8845,1.9161,1.9712,1.9791,1.9913,2.0451,2.0257,2.0041,1.9752,1.9495,1.9187,1.881,1.8153,1.765,1.7337,1.6632,1.6058,1.5789,1.538,1.5068,1.4824,1.4741,1.465,1.4482,1.5325,1.6147,1.678,1.759,1.8303,1.8972,1.8434,1.8016,1.7872,1.7451,1.7245,1.7047,1.7401,1.7392,0.6987,0.4634,0.2324,0.2943,0.2411,0.2069,0.3029,0.4023,0.4959,0.5937,0.7344,0.8211,0.8069,0.808,0.7703,0.6426,0.5457,0.4489,0.3595,0.3277,0.3057,0.2949,0.2772,0.256,0.2082,0.1888,0.1683,0.1346,0.3244,0.4691,0.5351,0.7351,0.814,0.7593,0.7593,0.7041,0.5822,0.6161,0.6161,0.5822,0.6161,0.6495,0.6712,0.7374,0.8036,0.914,1.2601,1.2724,0.0,1.4024,1.3701,1.1126,1.1782,1.1972,1.1822,1.2437,1.2767,1.3152,1.3443,1.4016,1.4496,1.2856,1.3431,1.4298,1.2268,1.2748,1.3998,1.4567,1.5994,1.7291,1.7031,1.7771,1.8628,1.8737,1.9453,2.0088,2.0096,2.0544,2.0979,2.0988,2.0988,2.0873,2.0509,2.0535,2.021,1.9282,1.9453,1.907,1.7241,1.7274,1.6985,1.558,1.5997,1.6064,1.5173,1.4824,1.4734,1.4734,1.5582,1.6409,1.6952,1.7646,1.8321,1.8972,1.8439,1.8086,1.8076,1.7669,1.747,1.747,1.747,1.747,0.806,0.6439,0.4835,0.4843,0.4086,0.3462,0.389,0.4584,0.532,0.5744,0.694,0.8001,0.7958,0.7271,0.6567,0.5987,0.4884,0.3873,0.2951,0.2769,0.2694,0.2511,0.1887,0.1231,0.0668,0.0559,0.0336,-0.0112,0.2348,0.4349,0.5226,0.8115,0.935,0.8793,0.8023,0.7473,0.703,0.649,0.6274,0.6161,0.6381,0.6715,0.7043,0.7265,0.7817,0.8702,1.0006,1.0558,1.0802,1.1769,1.1991,1.1782,1.1896,1.2252,1.2549,1.282,1.3096,1.3323,1.3656,1.4066,1.4202,1.2851,1.2845,1.3125,1.1775,1.2549,1.4004,1.458,1.5255,1.5953,1.675,1.7401,1.7958,1.8489,1.9436,2.0096,2.0096,2.036,2.0696,2.0944,2.0793,2.0757,2.1087,2.088,2.0736,2.088,2.0334,1.9442,1.8255,1.7778,1.7149,1.6141,1.6229,1.6312,1.5989,1.6304,1.637,1.6124,1.6558,1.6976,1.7448,1.7823,1.8294,1.8972,1.8779,1.8507,1.8076,1.8094,1.7954,1.7813,1.7725,1.7647,0.9651,0.8134,0.6729,0.68,0.5953,0.5139,0.5264,0.5538,0.5909,0.5914,0.6676,0.7414,0.7444,0.6281,0.5365,0.5703,0.4302,0.3196,0.3137,0.2551,0.1948,0.1432,0.133,0.1002,0.0112,0.0224,0.0,-0.0673,0.2123,0.4347,0.5441,0.8769,1.0777,1.0773,0.9779,0.8789,0.7802,0.7371,0.6824,0.6274,0.6604,0.6824,0.7046,0.7154,0.7709,0.8595,0.9995,1.066,0.0,1.2837,1.295,1.2114,1.2758,1.293,1.2851,1.2921,1.3091,1.3313,1.3762,1.4039,1.3919,1.2662,1.2165,1.2042,1.2159,1.2811,1.3553,1.3938,1.4553,1.5271,1.6477,1.7122,1.7691,1.8608,1.9548,2.0272,2.0272,2.0651,2.0997,2.123,2.1175,2.1183,2.1436,2.1441,2.1526,2.1784,2.1335,2.0404,1.9045,1.8349,1.754,1.6324,1.6554,1.6796,1.6796,1.7196,1.7196,1.6862,1.7286,1.7619,1.7789,1.8214,1.8581,1.8972,1.8891,1.8704,1.8322,1.8304,1.8148,1.7862,1.7852,1.7784,0.0,0.9721,0.8204,0.8739,0.7864,0.6881,0.6792,0.6722,0.0,0.6356,0.6447,0.6667,0.6722,0.5197,0.433,0.5511,0.3739,0.2663,0.3702,0.2376,0.099,0.0224,0.1327,0.1543,0.0224,0.0561,0.0449,-0.0336,0.268,0.4903,0.5777,0.9537,1.21,1.3207,1.2536,1.0882,0.814,0.8358,0.7811,0.6495,0.6715,0.6824,0.6932,0.7154,0.7709,0.0,1.2022,1.2474,1.1227,1.6143,1.5943,1.254,1.404,1.3816,1.28,1.3002,1.3034,1.3152,1.374,1.3872,1.3761,1.2473,1.1477,1.1132,1.3008,1.3157,1.2764,1.3061,1.3909,1.4963,1.6344,1.7122,1.773,1.8843,1.986,2.0526,2.0499,2.1085,2.1741,2.1741,2.1919,2.2008,2.182,2.2087,2.2353,2.2185,2.2264,2.1655,1.9647,1.9185,1.8214,1.6201,1.6846,1.744,1.744,1.7521,1.744,1.7196,1.7925,1.8336,1.8193,1.8701,1.9058,1.9086,1.8836,1.8703,1.8767,1.8457,1.8078,1.7823,1.7949,1.8008,1.1397,0.0,1.0712,0.9463,0.8666,0.7986,0.0,0.6898,0.6721,0.6084,0.6397,0.6759,0.6816,0.5252,0.455,0.6116,0.4579,0.3044,0.2819,0.2144,0.1651,0.1456,0.1677,0.1675,0.1009,0.0561,0.0112,-0.0112,0.2793,0.4903,0.5777,0.9537,1.21,1.3207,1.3532,1.2427,0.968,0.891,0.8682,0.8889,0.7925,0.8146,0.9665,0.8696,0.8263,0.8592,1.1176,1.2262,1.2507,1.5269,1.6137,1.553,1.4894,1.4545,1.4292,1.3552,1.327,1.3418,1.3948,1.413,1.3987,1.2705,1.1269,1.0049,1.0791,1.1816,1.2918,1.3327,1.3908,1.4747,1.6231,1.6944,1.742,1.8354,1.9551,2.0455,2.0314,2.1062,2.1741,2.2008,2.2097,2.2097,2.2176,2.2353,2.2353,2.2353,2.2353,2.1752,1.9937,1.9376,1.8658,1.7379,1.7425,1.7772,1.8103,1.8904,1.9134,1.8816,1.9344,1.9747,1.9687,1.9515,1.9625,1.9946,1.9249,1.9052,1.9193,1.8518,1.8302,1.8606,1.8223,1.8076,1.1815,1.1585,1.1063,0.9231,0.8609,0.8124,0.6894,0.6668,0.6554,0.5888,0.594,0.6193,0.6195,0.4852,0.406,0.5372,0.4123,0.2603,0.1783,0.1281,0.0979,0.0995,0.0997,0.089,0.056,0.0336,0.0,-0.0336,0.2348,0.4684,0.589,0.9322,1.1878,1.3207,1.3867,1.298,1.0453,1.0445,0.9889,0.8566,0.8585,0.8809,0.924,0.8592,0.8374,0.8592,1.1076,1.2375,1.3038,1.6013,1.6989,1.6592,1.5849,1.5322,1.4905,1.3738,1.3388,1.3467,1.4048,1.4036,1.3803,1.3169,1.1976,1.0789,1.0957,1.1697,1.2469,1.2859,1.3367,1.4328,1.5988,1.6647,1.7228,1.8385,1.9636,2.0428,2.0198,2.1085,2.1919,2.2097,2.2274,2.2451,2.2441,2.2618,2.2706,2.2618,2.2618,2.2193,2.064,1.9722,1.8905,1.7777,1.7499,1.761,1.8193,1.9231,1.9706,1.9152,1.9923,2.0235,1.9942,1.9596,1.9493,1.9493,1.921,1.8928,1.8892,1.8724,1.8589,1.8478,1.832,1.8279,1.1952,1.1505,1.0539,0.8578,0.8059,0.7716,0.6398,0.6133,0.6086,0.5686,0.5621,0.5609,0.5664,0.4259,0.3482,0.4321,0.3136,0.1847,0.117,0.0535,0.0215,0.0329,0.0219,0.0,-0.0336,0.0,-0.0112,-0.0897,0.1903,0.4354,0.6116,0.9109,1.1551,1.3207,1.3867,1.3202,1.1109,1.2091,1.1101,0.8029,0.9137,0.914,0.8152,0.8156,0.8266,0.8702,1.1615,0.0,1.3146,1.7187,1.806,1.6698,1.6698,1.5962,1.4798,1.3954,1.349,1.3462,1.4009,1.3805,1.3414,1.3511,1.2721,1.1889,1.1972,1.1965,1.1895,1.1983,1.271,1.3816,1.5574,1.6345,1.6896,1.8414,1.9648,2.0366,2.0346,2.1305,2.2097,2.2185,2.2539,2.2706,2.2618,2.2882,2.3057,2.2969,2.2969,2.263,2.1327,2.0134,1.8973,1.8012,1.7409,1.7375,1.7951,1.9143,1.9627,1.9082,2.0098,2.0489,1.9794,1.9553,1.925,1.8791,1.887,1.8826,1.848,1.8845,1.8728,1.8174,1.8377,1.8414,1.0403,1.0646,1.0509,0.8406,0.7525,0.6853,0.5224,0.5053,0.537,0.5764,0.5996,0.6106,0.5958,0.4343,0.3355,0.4406,0.2784,0.1464,0.1626,0.098,0.0767,0.1785,0.1229,0.0559,0.0,-0.0449,-0.0785,-0.0897,0.1677,0.4013,0.6114,0.9325,1.1769,1.3207,1.3867,1.364,1.2526,1.176,1.1538,1.1955,0.979,0.9464,1.087,0.9364,0.8826,0.904,0.0,1.4073,1.3146,1.739,1.8157,1.6698,1.6698,1.5849,1.4685,1.5018,1.4221,1.3126,1.3718,1.3565,1.3221,1.3414,1.2411,1.1106,1.1642,1.1572,1.1417,1.1393,1.2279,1.3448,1.4683,1.5504,1.6357,1.7995,1.9167,2.0175,2.0789,2.1577,2.2185,2.2353,2.2627,2.2882,2.3242,2.3232,2.3144,2.3329,2.3067,2.2456,2.1491,2.0409,1.9423,1.8522,1.8082,1.787,1.7951,1.8975,1.9618,1.9478,2.0644,2.1185,2.0712,2.0289,1.9761,1.9259,1.892,1.8777,1.8931,1.8485,1.845,1.8735,1.8438,1.8405,1.0742,1.0904,1.0763,0.9128,0.7901,0.656,0.4508,0.4249,0.4474,0.4851,0.4984,0.4858,0.4753,0.3912,0.3261,0.3251,0.1545,0.0313,0.0318,-0.0107,-0.0109,0.0662,0.0332,0.0,0.0,-0.0561,-0.0785,-0.0673,0.1899,0.4012,0.5678,0.9325,1.1769,1.2767,1.3753,1.4186,1.4056,1.3073,1.2408,1.2394,1.121,1.0882,1.1206,0.9805,0.9805,1.1088,0.0,1.4511,1.4849,1.7081,1.7528,1.6592,1.5849,1.5215,1.4776,1.4439,1.3825,1.3267,1.3735,1.3831,1.3709,1.3516,1.3149,1.2576,1.1915,1.1733,1.1764,1.1247,1.1854,1.3037,1.4252,1.5088,1.6104,1.7728,1.9195,2.0327,2.0891,2.164,2.2353,2.253,2.2891,2.3242,2.3503,2.3493,2.3396,2.3319,2.3144,2.264,2.1551,2.0452,1.9503,1.8984,1.8215,1.7797,1.7959,1.8895,1.9618,2.0098,2.0722,2.0777,2.0234,1.9805,1.9422,1.9274,1.8816,1.8668,1.8936,1.866,1.8516,1.8557,1.8436,1.8347,1.1084,1.0863,1.0254,0.9243,0.8182,0.6728,0.4674,0.4074,0.3949,0.4302,0.4079,0.3837,0.3626,0.3505,0.2979,0.162,0.0514,-0.0312,-0.0735,-0.1064,-0.108,-0.0659,-0.066,-0.0663,-0.0448,-0.0673,-0.0785,-0.0449,0.2011,0.4123,0.5458,0.9329,1.1855,1.2474,1.3722,1.4482,1.4955,1.446,1.3496,1.2073,1.2082,1.1546,1.0566,0.9812,1.0558,1.269,1.3772,1.5051,1.6324,1.6983,1.6791,1.6168,1.5001,1.4793,1.4984,1.3794,1.3357,1.3539,1.3696,1.4033,1.4202,1.3806,1.3902,1.3908,1.2457,1.2102,1.2151,1.1179,1.1543,1.2451,1.3598,1.4548,1.5582,1.7115,1.8836,2.0243,2.0704,2.1586,2.2406,2.2775,2.3153,2.3384,2.3657,2.3764,2.3667,2.3406,2.3144,2.2659,2.1723,2.0503,1.9525,1.9234,1.8193,1.7716,1.8193,1.8825,1.9529,2.0566,2.0566,2.0304,1.9734,1.93,1.9093,1.9049,1.8579,1.8436,1.8695,1.8695,1.8528,1.8202,1.8405,1.8347,1.0433,0.9428,0.8065,0.7725,0.7679,0.7488,0.6468,0.5013,0.4124,0.4943,0.4593,0.4014,0.3702,0.318,0.2229,0.0103,0.0104,0.021,-0.0325,-0.0981,-0.1318,-0.1229,-0.0784,-0.0784,-0.1567,-0.1233,-0.0785,-0.0449,0.1789,0.4012,0.6005,0.9325,1.1684,1.2896,1.4056,1.4607,1.4704,1.5347,1.4583,1.2413,1.1542,1.0457,0.9047,0.9268,1.0449,1.2469,1.4921,1.62,1.6628,1.718,1.6561,1.5091,1.4787,1.49,1.5198,1.3577,1.3357,1.3857,1.3596,1.3837,1.4298,1.4292,1.41,1.3806,1.3221,1.2571,1.1864,1.1091,1.1162,1.1671,1.2371,1.3319,1.448,1.5782,1.7602,1.9281,2.0297,2.1204,2.2073,2.2892,2.3004,2.3208,2.4049,2.3937,2.3841,2.411,2.3416,2.2573,2.1953,2.0671,1.9626,1.9083,1.8362,1.8201,1.8834,1.8736,1.9204,2.0489,2.0566,2.0371,1.9932,1.9512,1.9102,1.8621,1.8271,1.8057,1.8047,1.8047,1.8037,1.8008,1.8202,1.8269,1.0554,1.0293,0.9945,0.9494,0.8734,0.7539,0.5936,0.437,0.3324,0.3873,0.3226,0.2456,0.2341,0.1677,0.0902,0.0413,0.021,0.0,-0.0654,-0.0883,-0.1002,-0.1009,-0.0897,-0.0785,-0.0896,-0.0897,-0.0785,-0.0449,0.1229,0.3233,0.5567,0.8115,1.0357,1.2336,1.3189,1.396,1.4681,1.5553,1.5125,1.3819,1.3809,1.3156,1.2191,1.2812,1.3762,1.5134,1.7357,1.79,1.7279,1.8554,1.6765,1.3393,1.3511,1.3516,1.3485,1.3371,1.3341,1.3424,1.3646,1.3946,1.4332,1.4455,1.4682,1.4573,1.3119,1.2558,1.2238,1.0681,1.06,1.1102,1.1785,1.2857,1.4068,1.5106,1.7334,1.9359,2.0193,2.1568,2.2776,2.329,2.3537,2.3831,2.4176,2.4196,2.4196,2.4024,2.3406,2.2746,2.2138,2.0941,1.9877,1.9384,1.8095,1.7546,1.8505,1.8479,1.8948,2.007,2.0566,2.0611,2.0082,1.9723,1.9298,1.9014,1.8291,1.8076,1.8279,1.8076,1.8008,1.8008,1.8076,1.8066,1.0169,0.9831,0.9285,0.9392,0.811,0.6559,0.5444,0.4006,0.305,0.3361,0.2449,0.1593,0.1463,0.0884,0.0398,0.0516,0.0316,-0.0107,-0.0655,-0.0888,-0.1009,-0.1121,-0.1121,-0.0897,-0.0673,-0.1009,-0.1009,-0.0449,0.1006,0.29,0.5345,0.7561,0.9918,1.2336,1.2974,1.3704,1.4556,1.5505,1.5583,1.4983,1.5692,1.5341,1.4014,1.4522,1.5565,1.7154,1.8435,1.8762,1.845,1.9088,1.6877,1.3181,1.2876,1.2767,1.2748,1.3245,1.3355,1.3341,1.3774,1.3979,1.4167,1.4395,1.4586,1.4459,1.2737,1.2245,1.1919,1.0306,1.022,1.0814,1.1413,1.2437,1.362,1.4384,1.6561,1.865,1.9782,2.1191,2.2553,2.3531,2.3826,2.4033,2.409,2.4282,2.4282,2.4003,2.3484,2.3004,2.2469,2.1358,2.0292,1.9613,1.8006,1.7367,1.8336,1.8078,1.8417,1.9724,2.0217,2.0338,2.0108,1.981,1.9453,1.9022,1.8438,1.8279,1.8414,1.8212,1.8076,1.8008,1.8008,1.793,0.915,0.7379,0.5074,0.6458,0.539,0.4311,0.5413,0.4433,0.3298,0.3729,0.2694,0.1687,0.1268,0.1178,0.0895,0.0103,0.0211,0.0214,-0.0328,-0.0666,-0.1121,-0.1683,-0.1458,-0.1346,-0.1346,-0.157,-0.1458,-0.0449,0.1008,0.3015,0.5667,0.7999,1.047,1.2871,1.3719,1.4256,1.4287,1.541,1.5934,1.591,1.7007,1.6112,1.367,1.3449,1.5134,1.831,1.7809,1.8658,2.0341,1.8568,1.6778,1.4877,1.3073,1.2767,1.3315,1.3315,1.3495,1.3793,1.387,1.3931,1.3876,1.3916,1.3528,1.2978,1.2273,1.1563,1.0779,1.0058,1.0293,1.0814,1.1149,1.2015,1.2875,1.3561,1.505,1.6885,1.8829,1.996,2.1334,2.368,2.3839,2.3581,2.376,2.4024,2.4196,2.4166,2.3831,2.3348,2.2941,2.2073,2.0923,1.9463,1.8318,1.7989,1.8656,1.7683,1.7763,1.9507,1.962,1.9662,1.9897,1.9887,1.9465,1.8502,1.8482,1.8405,1.8269,1.8269,1.8212,1.8008,1.8008,1.8008,0.8417,0.7533,0.657,0.6083,0.5288,0.47,0.4913,0.3794,0.2626,0.2527,0.2041,0.1525,0.1271,0.1092,0.0808,0.031,0.0209,0.0,-0.0322,-0.0872,-0.1212,-0.1432,-0.1782,-0.202,-0.2244,-0.202,-0.1795,-0.1683,0.0447,0.2899,0.5337,0.734,0.9701,1.2548,1.2708,1.3241,1.4282,1.5024,1.5542,1.591,1.5965,1.5092,1.3642,1.6793,1.79,1.736,2.0202,2.0428,1.8762,1.5837,1.4894,1.5097,1.3403,1.2767,1.2659,1.2881,1.3161,1.3485,1.3511,1.3931,1.43,1.3975,1.4304,1.4364,1.2362,1.1874,1.1645,1.0039,0.9956,1.0554,1.1154,1.1929,1.2705,1.3476,1.5212,1.6893,1.8091,2.0098,2.2026,2.3008,2.3892,2.4534,2.4584,2.4786,2.4786,2.4444,2.3937,2.2918,2.137,2.1163,2.069,1.9585,1.8318,1.7917,1.9054,1.8247,1.8195,1.9284,1.9774,1.9885,1.9656,1.9626,1.9282,1.8492,1.8482,1.8482,1.8414,1.8414,1.8337,1.8202,1.8202,1.8144,0.7395,0.6581,0.5454,0.4841,0.4216,0.3574,0.3079,0.2938,0.289,0.2359,0.1938,0.1503,0.1256,0.098,0.0698,0.0409,0.031,0.0104,-0.0211,-0.0536,-0.0868,-0.1092,-0.1435,-0.1893,-0.2467,-0.2132,-0.1907,-0.202,-0.0224,0.2231,0.5117,0.6672,0.9033,1.2438,1.2433,1.3023,1.4139,1.4584,1.5047,1.5585,1.5538,1.501,1.4073,1.786,1.9119,1.839,2.028,2.012,1.8234,1.4894,1.4266,1.5423,1.3732,1.2985,1.2767,1.2989,1.3207,1.348,1.364,1.4059,1.441,1.4404,1.4479,1.4166,1.2229,1.166,1.1359,0.9732,0.9759,1.0463,1.1154,1.1843,1.2619,1.3392,1.4782,1.6307,1.7628,1.9598,2.1372,2.2466,2.3634,2.4503,2.4335,2.4745,2.4946,2.47,2.4134,2.3106,2.1425,2.1318,2.0997,2.0108,1.8957,1.8487,1.9143,1.8496,1.8186,1.8749,1.9117,1.9263,1.9233,1.9492,1.9346,1.8751,1.8741,1.8684,1.8617,1.8617,1.8549,1.8405,1.8337,1.8269,0.6321,0.4916,0.2896,0.3134,0.243,0.1501,0.0811,0.2101,0.3389,0.2846,0.2332,0.173,0.1231,0.105,0.0774,0.0502,0.0512,0.0311,0.0104,0.0,-0.0215,-0.0762,-0.0984,-0.1323,-0.2129,-0.202,-0.1907,-0.1795,-0.0785,0.1453,0.5117,0.6333,0.8587,1.2332,1.274,1.3257,1.3817,1.4133,1.4506,1.5089,1.5538,1.5512,1.4975,1.7315,1.9067,2.03,1.8927,1.8428,1.8338,1.5085,1.4471,1.5429,1.3927,1.3295,1.3315,1.3315,1.3423,1.3717,1.399,1.416,1.4326,1.4819,1.4175,1.3075,1.1967,1.1175,1.0513,0.9427,0.9678,1.0467,1.1068,1.1843,1.2534,1.3222,1.4068,1.5218,1.7274,1.8532,1.9943,2.189,2.3116,2.3836,2.3606,2.4314,2.4946,2.4946,2.4527,2.3689,2.2369,2.2172,2.1772,2.0722,2.0079,1.9529,1.9231,1.8594,1.8196,1.8142,1.8197,1.8311,1.8721,1.9322,1.9499,1.9075,1.9075,1.9008,1.8808,1.8808,1.8741,1.8549,1.8405,1.8414,0.615,0.4576,0.2824,0.2079,0.0963,0.0565,0.2229,0.1923,0.1357,0.1653,0.2067,0.2317,0.1804,0.1739,0.1574,0.1409,0.1014,0.0711,0.061,0.0,-0.0427,-0.0535,-0.1646,-0.2347,-0.258,-0.2581,-0.2357,-0.2132,0.0447,0.29,0.4901,0.7456,0.9716,1.182,1.2183,1.2787,1.3612,1.3862,1.4329,1.5089,1.5538,1.5906,1.6211,1.8082,1.9357,2.0253,1.889,1.7819,1.6963,1.469,1.3901,1.4153,1.3539,1.3372,1.3315,1.3315,1.3423,1.3691,1.3383,1.3713,1.4162,1.3908,1.4177,1.425,1.1972,1.1558,1.1466,0.9591,0.9521,1.0207,1.0895,1.1757,1.2534,1.3052,1.3977,1.5,1.6056,1.802,1.9852,2.0764,2.2665,2.4189,2.4251,2.4902,2.5295,2.4946,2.4545,2.3803,2.2379,2.2359,2.2056,2.1158,2.0479,2.0323,2.0876,2.007,1.9483,1.9487,1.9478,1.9134,1.8294,1.8496,1.8765,1.9075,1.9075,1.9065,1.9075,1.9075,1.8942,1.8741,1.8674,1.8607,0.5565,0.3499,0.102,0.0238,0.0,0.0162,0.0891,0.0577,0.0252,0.0682,0.1229,0.1729,0.1895,0.1828,0.1662,0.1408,0.1212,0.0909,0.0808,0.0414,0.0,-0.0315,-0.0651,-0.1215,-0.1972,-0.1778,-0.1671,-0.1754,0.0111,0.2336,0.4733,0.6759,0.9012,1.1572,1.1978,1.2583,1.3537,1.3635,1.4152,1.4885,1.5313,1.6163,1.7347,1.8612,2.0007,2.1156,1.9018,1.7867,1.7495,1.4976,1.3965,1.3959,1.3832,1.3644,1.3532,1.3532,1.3573,1.356,1.3746,1.3887,1.4153,1.4564,1.4883,1.4663,1.2198,1.1833,1.1752,0.9643,0.9375,1.0033,1.0809,1.1585,1.2363,1.3052,1.3977,1.4902,1.5726,1.758,1.9372,2.0182,2.2026,2.3682,2.4288,2.5055,2.538,2.4943,2.46,2.3891,2.2742,2.2808,2.2745,2.2111,2.1603,2.1441,2.1548,2.0981,2.0372,1.9627,1.9851,1.9599,1.8864,1.8955,1.8962,1.8751,1.8998,1.9075,1.9075,1.9075,1.9075,1.8942,1.8998,1.8931,0.4857,0.2353,-0.0946,-0.1333,-0.0873,-0.0561,-0.1103,-0.113,-0.083,-0.0251,0.0342,0.1061,0.1784,0.1713,0.1544,0.1399,0.1411,0.1212,0.101,0.1026,0.083,0.0207,0.0427,0.0108,-0.1173,-0.0874,-0.0769,-0.1281,-0.0547,0.1323,0.4437,0.5709,0.784,1.1039,1.1794,1.2526,1.3255,1.3443,1.3925,1.4592,1.5077,1.6298,1.8094,1.9028,2.0101,2.1368,1.8836,1.7818,1.7823,1.5186,1.4153,1.4191,1.4148,1.3938,1.3753,1.3753,1.3602,1.353,1.4259,1.4166,1.3969,1.4817,1.5077,1.4607,1.232,1.1859,1.1752,0.9824,0.9461,0.9777,1.0641,1.1413,1.2186,1.3137,1.3977,1.4888,1.5745,1.7392,1.8967,1.9928,2.16,2.3186,2.4039,2.4927,2.5385,2.487,2.467,2.4269,2.3371,2.35,2.3582,2.3191,2.2947,2.2638,2.2038,2.1821,2.1211,1.9913,2.0148,2.0161,1.9705,1.9939,1.9585,1.8576,1.91,1.9328,1.9256,1.9256,1.9214,1.9075,1.9187,1.9253,0.4241,0.1928,-0.048,-0.0707,-0.2117,-0.3066,-0.133,-0.2201,-0.2879,-0.1166,0.0085,0.1055,0.1751,0.198,0.2113,0.2159,0.1999,0.1819,0.1516,0.1539,0.1349,0.1038,0.0,-0.0747,-0.0959,-0.1069,-0.1177,-0.1278,0.0428,0.2033,0.3302,0.562,0.7611,0.9089,1.078,1.202,1.257,1.3152,1.3823,1.4394,1.5534,1.6763,1.8087,1.8867,1.876,1.7888,1.7683,1.6612,1.4804,1.4166,1.3997,1.4169,1.3954,1.4003,1.4083,1.4083,1.3928,1.372,1.3857,1.3711,1.3357,1.2076,1.3025,1.4173,1.1301,1.1221,1.1935,1.0736,0.9993,0.9689,1.0294,1.1154,1.2186,1.2875,1.3717,1.4741,1.5801,1.77,1.9265,1.9813,2.1937,2.3654,2.4061,2.5018,2.5505,2.4812,2.5271,2.5276,2.4236,2.4243,2.407,2.3582,2.3632,2.3632,2.3361,2.3139,2.2756,2.2048,2.1876,2.1292,1.9997,2.0599,2.0492,1.9481,2.0093,2.0327,1.9939,1.9802,1.9526,1.9075,1.9131,1.9264,0.2249,0.1256,0.0317,-0.0478,-0.1819,-0.2595,-0.1513,-0.253,-0.3337,-0.1832,-0.1015,-0.026,0.0824,0.1212,0.1421,0.1465,0.1681,0.1698,0.1614,0.1642,0.1552,0.1434,0.0628,0.0211,0.0518,0.0,-0.0211,0.0103,0.1263,0.2331,0.3244,0.5631,0.7515,0.8845,1.0667,1.1903,1.2667,1.3249,1.3925,1.4783,1.592,1.7052,1.8087,1.9004,1.9075,1.8324,1.7817,1.677,1.5328,1.4382,1.4094,1.4186,1.4073,1.4094,1.4196,1.4196,1.4035,1.3841,1.4183,1.4071,1.3526,1.2098,1.2369,1.2774,0.9921,0.9705,1.0276,0.9466,0.9191,0.9345,1.012,1.0982,1.1809,1.2602,1.3607,1.4685,1.5576,1.713,1.8859,2.0595,2.2283,2.3545,2.4084,2.4692,2.5003,2.4691,2.5027,2.5145,2.4742,2.4944,2.5016,2.4897,2.4957,2.4874,2.4443,2.4299,2.3913,2.3084,2.3106,2.2711,2.1808,2.2062,2.1988,2.1481,2.0823,2.0344,1.9965,1.9827,1.9588,1.9075,1.9274,1.9341,0.0602,0.0459,0.0623,-0.0639,-0.1271,-0.1496,-0.1362,-0.2459,-0.3176,-0.2082,-0.1931,-0.1624,-0.0272,0.0369,0.0748,0.0963,0.1263,0.147,0.1591,0.1714,0.1825,0.1708,0.1233,0.1035,0.1518,0.0828,0.0519,0.1111,0.1656,0.2298,0.3085,0.5426,0.73,0.8578,1.0558,1.1914,1.2667,1.3249,1.4022,1.5083,1.6021,1.7052,1.8179,1.918,1.9495,1.9194,1.8076,1.6866,1.5535,1.4611,1.4191,1.4083,1.4196,1.4196,1.4196,1.4196,1.4035,1.3952,1.4344,1.4241,1.3599,1.1905,1.1621,1.1563,0.8699,0.8368,0.889,0.8588,0.8633,0.8995,0.9859,1.0636,1.145,1.2374,1.349,1.4664,1.6036,1.7241,1.8877,2.1364,2.2495,2.3209,2.4002,2.448,2.4676,2.455,2.4912,2.5206,2.5111,2.5465,2.5758,2.591,2.598,2.5758,2.5241,2.5158,2.4791,2.4036,2.4059,2.3913,2.3452,2.3338,2.3287,2.3213,2.1773,2.0759,2.018,2.0056,1.9765,1.9308,1.9393,1.9407,0.0075,-0.0076,-0.0228,-0.1092,-0.0941,-0.0705,-0.0863,-0.1802,-0.2301,-0.1498,-0.21,-0.2469,-0.1247,-0.0274,0.0556,0.1021,0.1132,0.1242,0.1435,0.1915,0.2219,0.1964,0.1182,0.0992,0.1511,0.0607,0.0303,0.1109,0.1416,0.1721,0.202,0.5012,0.6853,0.7319,1.0284,1.2014,1.237,1.3152,1.4022,1.5083,1.5825,1.6857,1.8179,1.9355,1.9627,1.9043,1.8079,1.6158,1.3856,1.4083,1.3975,1.3753,1.4083,1.4196,1.4196,1.4196,1.4254,1.4251,1.4262,1.4089,1.3318,0.987,1.0144,1.1181,0.8013,0.8,0.9096,0.9561,0.9173,0.8811,0.9428,1.0294,1.1327,1.2431,1.3385,1.4894,1.7543,1.8709,1.9756,2.168,2.2402,2.2885,2.3564,2.4465,2.4911,2.4303,2.5407,2.6033,2.5372,2.5828,2.6131,2.591,2.6062,2.6062,2.584,2.5688,2.5465,2.5229,2.4862,2.4492,2.4143,2.4143,2.4082,2.3852,2.3231,2.2316,2.1335,2.0883,2.0372,1.9785,1.9339,1.9274,0.0431,-0.0145,-0.0741,-0.0913,-0.1301,-0.1614,-0.1716,-0.2426,-0.2937,-0.2082,-0.2101,-0.1958,-0.0979,-0.0541,-0.0182,0.0277,0.0838,0.1316,0.1714,0.2004,0.2296,0.2406,0.1349,0.1062,0.1943,0.0984,0.069,0.1849,0.1991,0.2209,0.2479,0.5218,0.6859,0.7208,1.0156,1.216,1.3055,1.3528,1.4292,1.5255,1.6292,1.7225,1.835,1.9279,1.9458,1.9012,1.7674,1.6295,1.4941,1.3926,1.3609,1.3736,1.3736,1.3736,1.397,1.4341,1.4243,1.4035,1.4356,1.4276,1.3502,0.9824,0.9358,0.9639,0.6366,0.607,0.7018,0.7908,0.8178,0.8422,0.9371,1.0207,1.1154,1.296,1.4005,1.5153,1.6911,1.8256,1.946,2.0672,2.168,2.2521,2.3265,2.4169,2.476,2.4921,2.5563,2.6037,2.5898,2.6383,2.6602,2.6452,2.6602,2.6602,2.6452,2.6371,2.6233,2.6094,2.5816,2.5618,2.5477,2.5099,2.4659,2.407,2.407,2.3444,2.2059,2.1485,2.087,2.0314,2.0129,2.0118,0.028,-0.0212,-0.065,-0.0815,-0.1193,-0.1576,-0.1845,-0.232,-0.2589,-0.2058,-0.1828,-0.1513,-0.0698,-0.0527,-0.0442,-0.0181,0.0453,0.1002,0.1478,0.1955,0.2342,0.2545,0.1792,0.1702,0.2666,0.1543,0.1257,0.2574,0.2356,0.2386,0.2846,0.4973,0.6714,0.8096,1.0681,1.2467,1.3346,1.3624,1.4292,1.5337,1.6386,1.7326,1.8342,1.9296,1.9668,1.9595,1.7654,1.6373,1.545,1.376,1.3257,1.3498,1.3472,1.3561,1.3744,1.4276,1.4349,1.4129,1.4359,1.4527,1.3954,1.0821,0.9644,0.8993,0.6478,0.5698,0.5873,0.6913,0.7583,0.814,0.9125,1.0207,1.1499,1.3307,1.4497,1.5546,1.6593,1.7781,1.8984,1.9972,2.0981,2.2059,2.3191,2.402,2.4683,2.5312,2.5816,2.6245,2.6371,2.6726,2.6943,2.693,2.6998,2.7079,2.6985,2.693,2.6863,2.6794,2.6533,2.6327,2.6258,2.5886,2.537,2.4659,2.4874,2.4436,2.3234,2.2488,2.1818,2.1174,2.0973,2.0792,0.0,0.0,0.0,-0.0865,-0.0798,-0.0658,-0.1349,-0.1282,-0.1224,-0.1526,-0.146,-0.1145,-0.0419,-0.0168,-0.0085,-0.0173,0.0174,0.0521,0.0781,0.1769,0.2529,0.2669,0.2584,0.2884,0.3705,0.2381,0.2,0.333,0.2328,0.206,0.304,0.4279,0.6506,0.9976,1.1858,1.2851,1.3147,1.334,1.3998,1.5134,1.6089,1.7131,1.8164,1.9371,2.023,2.0781,1.8015,1.6241,1.5242,1.3755,1.3054,1.308,1.3299,1.3466,1.354,1.4008,1.4456,1.4619,1.4362,1.4581,1.4797,1.2964,1.1005,0.9256,0.8536,0.703,0.5897,0.6835,0.7389,0.788,0.8693,1.0463,1.2272,1.3392,1.4734,1.5899,1.6796,1.7538,1.8425,1.9885,2.0615,2.1471,2.3298,2.407,2.4707,2.5535,2.6233,2.6714,2.6726,2.6875,2.7079,2.7268,2.7335,2.7403,2.7523,2.7403,2.7268,2.7268,2.6918,2.6645,2.6427,2.6414,2.6151,2.5606,2.5606,2.535,2.4759,2.3921,2.3126,2.2276,2.1732,2.1226,-0.1017,0.0,0.0,0.0,0.0,0.0,-0.2924,-0.2828,-0.2388,-0.1646,-0.1425,-0.0801,0.0916,0.0828,0.0657,0.1404,0.1342,0.1442,0.2036,0.2423,0.2901,0.3446,0.2865,0.2807,0.355,0.2678,0.2316,0.0,0.2827,0.2786,0.3267,0.5545,0.8275,1.137,1.2107,1.2688,1.3147,1.3155,1.3814,1.5039,1.5862,1.689,1.8016,1.8991,1.9945,2.0763,1.7501,1.6456,1.6826,1.3769,1.2811,1.3378,1.3236,1.3431,1.3826,1.4344,1.4292,1.4234,1.4945,1.4974,1.4558,1.3094,1.1381,0.9579,0.8344,0.6893,0.5811,0.6792,0.7279,0.7841,0.9076,1.0554,1.2015,1.279,1.4146,1.5492,1.6394,1.7294,1.8273,1.9371,2.0537,2.1756,2.3062,2.4036,2.5063,2.6414,2.6769,2.6985,2.7134,2.7268,2.7403,2.7469,2.759,2.7656,2.7723,2.7523,2.7403,2.7335,2.6918,2.6726,2.6794,2.644,2.5943,2.5382,2.5535,2.5181,2.4341,2.4155,2.3647,2.297,2.2256,2.1816,-0.0807,-0.1411,-0.2083,-0.269,0.0,0.0,-0.2933,-0.2622,-0.2029,-0.1055,-0.0684,0.0,0.1498,0.1738,0.1969,0.2519,0.271,0.2672,0.2316,0.279,0.3269,0.3732,0.3483,0.351,0.4107,0.3501,0.3145,0.3585,0.3419,0.3587,0.4089,0.6219,0.8486,1.0815,1.166,1.2323,1.2647,1.3071,1.3731,1.4649,1.5776,1.685,1.7877,1.876,1.9668,2.0381,1.7268,1.6594,1.7336,1.3898,1.278,1.3335,1.3233,1.3357,1.3624,1.427,1.4253,1.4132,1.4877,1.4961,1.4625,1.4146,1.2114,0.9753,0.9514,0.7687,0.58,0.6786,0.7406,0.8088,0.916,1.0467,1.1729,1.2397,1.3723,1.5206,1.6052,1.7114,1.8184,1.9143,2.0235,2.1512,2.3165,2.4077,2.5194,2.6936,2.7262,2.739,2.7616,2.7603,2.7656,2.7842,2.7855,2.7987,2.8118,2.7987,2.7776,2.7723,2.7053,2.6863,2.7201,2.6714,2.6164,2.5535,2.5886,2.5535,2.4539,2.4719,2.4382,2.3539,2.2826,2.2214,-0.0336,-0.0876,-0.135,-0.1751,-0.182,0.0,-0.1945,-0.1535,-0.0913,-0.0216,0.0362,0.0944,0.1675,0.2594,0.3308,0.3383,0.4059,0.3978,0.241,0.3046,0.3699,0.3871,0.4157,0.452,0.4972,0.4472,0.42,0.438,0.4021,0.4191,0.5197,0.6508,0.7909,0.9326,1.09,1.1849,1.2086,1.3041,1.3658,1.4218,1.5722,1.6845,1.7573,1.8581,1.9418,1.9939,1.7206,1.6535,1.7152,1.392,1.2806,1.3168,1.3394,1.3401,1.3241,1.397,1.4283,1.4376,1.4702,1.4728,1.4821,1.568,1.3227,1.0154,1.1199,0.8903,0.6108,0.6769,0.7681,0.8513,0.9134,1.0207,1.1353,1.204,1.3406,1.4856,1.579,1.6846,1.7971,1.9125,1.9932,2.1131,2.334,2.4152,2.5183,2.715,2.7647,2.7855,2.8079,2.7921,2.7973,2.8287,2.8183,2.8276,2.8587,2.8444,2.8287,2.8287,2.731,2.6985,2.7523,2.6918,2.6371,2.598,2.6252,2.5889,2.4767,2.5272,2.5005,2.3935,2.3289,2.2516,-0.0201,-0.0683,-0.1037,-0.1556,-0.1505,0.0,-0.1633,-0.1492,-0.1024,-0.0211,0.0071,0.071,0.2534,0.2992,0.3368,0.4099,0.4608,0.4765,0.3992,0.4036,0.4163,0.4347,0.4495,0.4749,0.531,0.4781,0.455,0.4825,0.429,0.4528,0.5739,0.6749,0.7996,0.9714,1.0859,1.1775,1.2339,1.2858,1.3456,1.4115,1.5374,1.6255,1.6812,1.7943,1.8953,1.9561,1.6515,1.6062,1.7138,1.403,1.2962,1.341,1.3766,1.3808,1.3749,1.4149,1.4317,1.4407,1.512,1.5215,1.5127,1.6186,1.483,1.2528,1.1551,0.9788,0.8045,0.7318,0.7691,0.8513,0.887,0.9859,1.0924,1.1623,1.2832,1.4172,1.54,1.6563,1.7804,1.9446,2.0459,2.1558,2.3279,2.4443,2.5652,2.7139,2.7589,2.7855,2.8079,2.8079,2.8131,2.8287,2.83,2.8379,2.8587,2.8587,2.8444,2.8287,2.7404,2.7149,2.7723,2.6496,2.5886,2.6164,2.5249,2.4333,2.3565,2.4504,2.4526,2.3713,2.3103,2.2542,0.0403,-0.0136,-0.0619,-0.0892,-0.0893,0.0,0.0,-0.0808,-0.0338,0.0752,0.096,0.1446,0.3207,0.3881,0.4409,0.4909,0.5547,0.5834,0.5244,0.4876,0.4595,0.4525,0.4786,0.5096,0.5442,0.5206,0.5102,0.4999,0.434,0.4546,0.5806,0.6613,0.7721,0.9345,1.0509,1.1368,1.2051,1.2861,1.3578,1.4141,1.5447,1.6234,1.6621,1.7809,1.866,1.92,1.7294,1.6777,1.7016,1.4801,1.3757,1.3494,1.3903,1.4149,1.4107,1.4406,1.4612,1.4808,1.5326,1.5287,1.5194,1.6163,1.4268,1.1657,1.1187,0.9465,0.7556,0.7098,0.7536,0.8253,0.8625,0.9598,1.0641,1.1216,1.2367,1.3818,1.5403,1.6604,1.7935,1.9837,2.1088,2.2229,2.3735,2.4716,2.577,2.7344,2.7773,2.8066,2.8327,2.8262,2.8249,2.8444,2.8365,2.8365,2.8587,2.8651,2.8651,2.8444,2.7404,2.7002,2.7656,2.6219,2.5413,2.5277,2.4536,2.3732,2.2798,2.3656,2.3858,2.3458,2.2648,2.2285,0.1067,0.0404,-0.0205,0.007,0.0,-0.0136,0.0,0.0,0.0,0.1477,0.1746,0.2151,0.3291,0.4365,0.0,0.5258,0.0,0.0,0.0,0.5422,0.0,0.4666,0.5002,0.526,0.5325,0.5309,0.5173,0.4761,0.4176,0.4273,0.5596,0.641,0.7482,0.889,1.0115,1.1094,1.1835,1.2906,1.3672,1.4142,1.5439,1.6229,1.6522,1.7707,1.8467,1.8847,1.8216,1.7507,1.6711,1.5441,1.4386,1.3545,1.4044,1.4294,1.431,1.4653,1.4865,1.5153,1.5369,1.5422,1.5398,1.6062,1.3483,1.0278,1.1052,0.8954,0.6363,0.6652,0.7331,0.7995,0.8504,0.945,1.0368,1.0958,1.2188,1.3622,1.5327,1.6646,1.8053,2.0188,2.1497,2.2671,2.4044,2.4917,2.5972,2.7436,2.7958,2.8276,2.8522,2.8444,2.843,2.8587,2.8444,2.843,2.8587,2.8716,2.8716,2.8587,2.7471,2.6938,2.7353,2.6092,2.5008,2.4168,2.4071,2.3364,2.2173,2.2681,2.2911,2.3007,2.2265,2.1963,0.0971,0.047,0.0279,0.1537,0.1047,0.0488,0.1462,0.0,0.0539,0.0874,0.0,0.1547,0.0,0.0,0.0,0.0,0.0,0.0,0.496,0.5063,0.5201,0.4919,0.4997,0.5043,0.5101,0.437,0.3872,0.3886,0.3533,0.3915,0.5295,0.644,0.7738,0.9148,1.0371,1.1435,1.2275,1.3261,1.3861,1.4369,1.5317,1.5884,1.6171,1.7345,1.8096,1.8572,1.7941,1.7304,1.6494,1.5166,1.4226,1.3528,1.4065,1.4155,1.4051,1.4765,1.5047,1.5108,1.5441,1.5787,1.6229,1.6476,1.3944,1.1014,1.1611,0.9057,0.6079,0.654,0.7216,0.802,0.8659,0.938,1.0235,1.0999,1.217,1.343,1.5034,1.637,1.7956,2.0108,2.1261,2.2241,2.3512,2.4969,2.6277,2.6982,2.7736,2.8379,2.8587,2.8587,2.8587,2.8587,2.8587,2.8587,2.8587,2.8716,2.8716,2.8587,2.7947,2.7315,2.6817,2.6008,2.4966,2.3614,2.3603,2.2864,2.133,2.1325,2.1649,2.232,2.2013,2.1889,0.0,0.0,0.0,0.0,0.0,0.0,0.1638,0.0,0.0809,0.0,0.0,0.0,0.0,0.0,0.0,0.0,0.5156,0.0,0.0,0.0,0.5058,0.4635,0.0,0.0,0.5486,0.4459,0.372,0.3697,0.3406,0.363,0.4586,0.6183,0.7469,0.8352,1.0366,1.1727,1.236,1.3442,1.4128,1.459,1.53,1.5824,1.6102,1.7093,1.7854,1.8498,1.8912,1.8597,1.7755,1.6612,1.5589,1.4802,1.4418,1.4436,1.4649,1.5151,1.5398,1.5601,1.5842,1.6109,1.6095,1.5439,1.3357,1.0981,1.0391,0.814,0.5854,0.6474,0.7034,0.7646,0.8413,0.9131,1.0154,1.1433,1.2401,1.354,1.5634,1.6696,1.799,2.0286,2.1333,2.2221,2.3548,2.4731,2.5849,2.6824,2.751,2.8052,2.8651,2.8651,2.8651,2.8716,2.8651,2.8587,2.8587,2.8716,2.8716,2.8587,2.7524,2.6531,2.5896,2.5174,2.4208,2.2861,2.2991,2.2392,2.0914,2.1146,2.125,2.1167,2.1544,2.1815,0.4412,0.0,0.0,0.0,0.0,0.0,0.0,0.0,0.0,0.0,0.0,0.0,0.0,0.0,0.4483,0.4489,0.0,0.5491,0.0,0.5093,0.0,0.0,0.0,0.0,0.0,0.4142,0.3467,0.3383,0.3175,0.3403,0.4208,0.5951,0.725,0.8016,1.0358,1.1861,1.2534,1.3555,1.4275,1.4698,1.5282,1.5779,1.5965,1.6896,1.7709,1.8584,1.966,1.9387,1.8126,1.7453,1.6337,1.5064,1.4515,1.4538,1.5011,1.5585,1.5763,1.5921,1.6229,1.6266,1.6211,1.538,1.3278,1.0922,1.0104,0.7858,0.5686,0.6227,0.6774,0.7279,0.8191,0.8991,0.9995,1.1769,1.27,1.3775,1.5948,1.6959,1.819,2.0199,2.1282,2.2241,2.361,2.4527,2.5499,2.6756,2.731,2.7855,2.8716,2.8651,2.8651,2.8716,2.8651,2.8587,2.8587,2.8716,2.8716,2.8587,2.7235,2.6272,2.5844,2.509,2.4128,2.2985,2.3189,2.2567,2.0967,2.1654,2.1475,2.0475,2.1135,2.1565,0.0,0.0,0.0,0.5043,0.0,0.0,0.0,0.0,0.3137,0.0,0.0,0.0,0.0,0.3877,0.4671,0.435,0.4489,0.0,0.0,0.0,0.0,0.0,0.0,0.0,0.0,0.3015,0.2482,0.0,0.2542,0.2984,0.4224,0.5798,0.725,0.8763,1.0381,1.1769,1.2954,1.3698,1.4211,1.4631,1.5112,1.5509,1.5622,1.6771,1.7778,1.8584,1.966,1.8741,1.6633,1.6807,1.5596,1.3636,1.4118,1.4479,1.485,1.5902,1.6123,1.5973,1.6182,1.6471,1.6676,1.734,1.4603,1.1109,1.1591,0.8844,0.5611,0.5907,0.6554,0.7302,0.8326,0.9083,1.0033,1.166,1.2845,1.4024,1.5496,1.7026,1.8526,1.9713,2.0944,2.2166,2.3372,2.4527,2.5652,2.6731,2.743,2.8039,2.8716,2.8651,2.8587,2.8587,2.8587,2.8587,2.8587,2.8587,2.8587,2.8587,2.7571,2.711,2.7427,2.6212,2.52,2.4436,2.4621,2.3712,2.1553,2.2832,2.2516,2.0669,2.0955,2.1135,0.0,0.0,0.6724,0.6606,0.0,0.0,0.0,0.0,0.0,0.0,0.0,0.0,0.0,0.5492,0.5811,0.5506,0.5364,0.5362,0.0,0.0,0.0,0.0,0.0,0.0,0.0,0.0,0.255,0.2553,0.2364,0.0,0.3658,0.4711,0.6083,0.799,0.964,1.1161,1.2529,1.3319,1.3812,1.4057,1.4617,1.5124,1.5599,1.6363,1.7263,1.8244,1.929,1.9564,1.9003,1.7634,1.6893,1.6351,1.486,1.4455,1.477,1.5738,1.5875,1.566,1.6052,1.6628,1.7149,1.7609,1.5644,1.3444,1.4358,1.1397,0.7763,0.8405,0.7719,0.6999,0.8023,0.9075,1.0274,1.2254,1.3563,1.4808,1.6164,1.7168,1.807,1.9301,2.0011,2.0831,2.2078,2.3171,2.4413,2.5995,2.6824,2.751,2.817,2.8444,2.8651,2.8716,2.8651,2.8587,2.8587,2.8587,2.8587,2.8587,2.748,2.7033,2.7453,2.6542,2.5768,2.5262,2.4963,2.3909,2.2185,2.2462,2.1804,2.0346,2.1198,2.1514,0.8376,0.8177,0.0,0.7647,0.7687,0.0,0.7131,0.0,0.7476,0.0,0.0,0.0,0.0,0.6967,0.694,0.6496,0.6026,0.5636,0.0,0.48,0.0,0.0,0.0,0.3469,0.0,0.3008,0.2614,0.2484,0.242,0.2616,0.0,0.441,0.5755,0.7316,0.9447,1.1159,1.2529,1.322,1.3715,1.4064,1.4429,1.4933,1.5591,1.6083,1.6846,1.7877,1.8786,1.9333,1.9445,1.7644,1.6972,1.7008,1.5045,1.449,1.4821,1.5687,1.5888,1.5843,1.6136,1.6633,1.7141,1.75,1.5618,1.3373,1.42,1.1208,0.776,0.9073,0.8055,0.6939,0.8922,0.9606,1.0351,1.251,1.3808,1.4947,1.6188,1.7026,1.7752,1.8672,1.9373,2.0211,2.1474,2.2295,2.3375,2.5261,2.6276,2.7162,2.7894,2.8379,2.8716,2.8716,2.878,2.878,2.878,2.8651,2.8587,2.8651,2.7809,2.7466,2.789,2.6959,2.6349,2.6035,2.5307,2.4149,2.2574,2.257,2.1753,2.0216,2.1198,2.1514]}]]